<?xml version="1.0" encoding="UTF-8" standalone="no" ?>
<gpx xmlns="http://www.topografix.com/GPX/1/1" xmlns:xsi="http://www.w3.org/2001/XMLSchema-instance" xsi:schemaLocation="http://www.topografix.com/GPX/1/1 http://www.topografix.com/GPX/1/1/gpx.xsd" version="1.1" creator="VisuGPX - https://www.visugpx.com">
  <metadata>
    <name>Morvan Jour 1 Light</name>
  </metadata>
  <trk>
    <name><![CDATA[Morvan Jour 1 Light]]></name>
    <extensions>
      <line xmlns="http://www.topografix.com/GPX/gpx_style/0/2">
        <color>0000FF</color>
        <width>4</width>
      </line>
    </extensions>
    <trkseg>
      <trkpt lat="47.4928" lon="3.90777">
        <ele>250</ele>
        <time>2022-07-23T05:51:34Z</time>
      </trkpt>
      <trkpt lat="47.49265" lon="3.90796">
        <ele>250</ele>
        <time>2022-07-23T05:51:38Z</time>
      </trkpt>
      <trkpt lat="47.49246" lon="3.90823">
        <ele>251</ele>
        <time>2022-07-23T05:51:42Z</time>
      </trkpt>
      <trkpt lat="47.49233" lon="3.90886">
        <ele>253.6</ele>
      </trkpt>
      <trkpt lat="47.49179" lon="3.91039">
        <ele>255</ele>
        <time>2022-07-23T05:52:11Z</time>
      </trkpt>
      <trkpt lat="47.49121" lon="3.91212">
        <ele>257</ele>
        <time>2022-07-23T05:52:34Z</time>
      </trkpt>
      <trkpt lat="47.49072" lon="3.91258">
        <ele>253</ele>
        <time>2022-07-23T05:52:44Z</time>
      </trkpt>
      <trkpt lat="47.49065" lon="3.91258">
        <ele>252</ele>
        <time>2022-07-23T05:52:46Z</time>
      </trkpt>
      <trkpt lat="47.49041" lon="3.91275">
        <ele>247</ele>
        <time>2022-07-23T05:52:50Z</time>
      </trkpt>
      <trkpt lat="47.4903" lon="3.91322">
        <ele>245</ele>
        <time>2022-07-23T05:52:56Z</time>
      </trkpt>
      <trkpt lat="47.48994" lon="3.91407">
        <ele>242</ele>
        <time>2022-07-23T05:53:08Z</time>
      </trkpt>
      <trkpt lat="47.48969" lon="3.91452">
        <ele>245</ele>
        <time>2022-07-23T05:53:15Z</time>
      </trkpt>
      <trkpt lat="47.48953" lon="3.9147">
        <ele>247</ele>
        <time>2022-07-23T05:53:19Z</time>
      </trkpt>
      <trkpt lat="47.48957" lon="3.91333">
        <ele>246</ele>
        <time>2022-07-23T05:53:35Z</time>
      </trkpt>
      <trkpt lat="47.48951" lon="3.91241">
        <ele>244</ele>
        <time>2022-07-23T05:53:47Z</time>
      </trkpt>
      <trkpt lat="47.48951" lon="3.91188">
        <ele>240</ele>
        <time>2022-07-23T05:53:53Z</time>
      </trkpt>
      <trkpt lat="47.48947" lon="3.91171">
        <ele>238</ele>
        <time>2022-07-23T05:53:55Z</time>
      </trkpt>
      <trkpt lat="47.48943" lon="3.91164">
        <ele>237</ele>
        <time>2022-07-23T05:53:56Z</time>
      </trkpt>
      <trkpt lat="47.48924" lon="3.91142">
        <ele>235</ele>
        <time>2022-07-23T05:54:00Z</time>
      </trkpt>
      <trkpt lat="47.48879" lon="3.91094">
        <ele>236</ele>
        <time>2022-07-23T05:54:10Z</time>
      </trkpt>
      <trkpt lat="47.48839" lon="3.91044">
        <ele>235</ele>
        <time>2022-07-23T05:54:20Z</time>
      </trkpt>
      <trkpt lat="47.4879" lon="3.91024">
        <ele>232</ele>
        <time>2022-07-23T05:54:29Z</time>
      </trkpt>
      <trkpt lat="47.48784" lon="3.91021">
        <ele>231</ele>
        <time>2022-07-23T05:54:30Z</time>
      </trkpt>
      <trkpt lat="47.48738" lon="3.90993">
        <ele>225</ele>
        <time>2022-07-23T05:54:39Z</time>
      </trkpt>
      <trkpt lat="47.48717" lon="3.90975">
        <ele>226</ele>
        <time>2022-07-23T05:54:43Z</time>
      </trkpt>
      <trkpt lat="47.48694" lon="3.90967">
        <ele>224</ele>
        <time>2022-07-23T05:54:47Z</time>
      </trkpt>
      <trkpt lat="47.48675" lon="3.90964">
        <ele>222</ele>
        <time>2022-07-23T05:54:51Z</time>
      </trkpt>
      <trkpt lat="47.48639" lon="3.90972">
        <ele>221</ele>
        <time>2022-07-23T05:54:57Z</time>
      </trkpt>
      <trkpt lat="47.4863" lon="3.90972">
        <ele>220</ele>
        <time>2022-07-23T05:54:59Z</time>
      </trkpt>
      <trkpt lat="47.48567" lon="3.90951">
        <ele>216</ele>
        <time>2022-07-23T05:55:10Z</time>
      </trkpt>
      <trkpt lat="47.48543" lon="3.90946">
        <ele>213</ele>
        <time>2022-07-23T05:55:14Z</time>
      </trkpt>
      <trkpt lat="47.48468" lon="3.90962">
        <ele>206</ele>
        <time>2022-07-23T05:55:28Z</time>
      </trkpt>
      <trkpt lat="47.48377" lon="3.90965">
        <ele>195</ele>
        <time>2022-07-23T05:55:44Z</time>
      </trkpt>
      <trkpt lat="47.48366" lon="3.90969">
        <ele>194</ele>
        <time>2022-07-23T05:55:46Z</time>
      </trkpt>
      <trkpt lat="47.48339" lon="3.9099">
        <ele>191</ele>
        <time>2022-07-23T05:55:52Z</time>
      </trkpt>
      <trkpt lat="47.48307" lon="3.90992">
        <ele>190</ele>
        <time>2022-07-23T05:55:57Z</time>
      </trkpt>
      <trkpt lat="47.48197" lon="3.9101">
        <ele>190</ele>
        <time>2022-07-23T05:56:17Z</time>
      </trkpt>
      <trkpt lat="47.48181" lon="3.91009">
        <ele>190</ele>
        <time>2022-07-23T05:56:20Z</time>
      </trkpt>
      <trkpt lat="47.48159" lon="3.91001">
        <ele>190</ele>
        <time>2022-07-23T05:56:24Z</time>
      </trkpt>
      <trkpt lat="47.48081" lon="3.90947">
        <ele>189</ele>
        <time>2022-07-23T05:56:39Z</time>
      </trkpt>
      <trkpt lat="47.4807" lon="3.90944">
        <ele>189</ele>
        <time>2022-07-23T05:56:41Z</time>
      </trkpt>
      <trkpt lat="47.48046" lon="3.90945">
        <ele>189</ele>
        <time>2022-07-23T05:56:45Z</time>
      </trkpt>
      <trkpt lat="47.48032" lon="3.90949">
        <ele>189</ele>
        <time>2022-07-23T05:56:48Z</time>
      </trkpt>
      <trkpt lat="47.48008" lon="3.9097">
        <ele>191</ele>
        <time>2022-07-23T05:56:53Z</time>
      </trkpt>
      <trkpt lat="47.47987" lon="3.91003">
        <ele>194</ele>
        <time>2022-07-23T05:56:58Z</time>
      </trkpt>
      <trkpt lat="47.47978" lon="3.91022">
        <ele>195</ele>
        <time>2022-07-23T05:57:01Z</time>
      </trkpt>
      <trkpt lat="47.47974" lon="3.91042">
        <ele>196</ele>
        <time>2022-07-23T05:57:04Z</time>
      </trkpt>
      <trkpt lat="47.47967" lon="3.91089">
        <ele>198</ele>
        <time>2022-07-23T05:57:09Z</time>
      </trkpt>
      <trkpt lat="47.47959" lon="3.91118">
        <ele>196</ele>
        <time>2022-07-23T05:57:13Z</time>
      </trkpt>
      <trkpt lat="47.4795" lon="3.91141">
        <ele>195</ele>
        <time>2022-07-23T05:57:16Z</time>
      </trkpt>
      <trkpt lat="47.47933" lon="3.9117">
        <ele>194</ele>
        <time>2022-07-23T05:57:21Z</time>
      </trkpt>
      <trkpt lat="47.47904" lon="3.91206">
        <ele>194</ele>
        <time>2022-07-23T05:57:28Z</time>
      </trkpt>
      <trkpt lat="47.47859" lon="3.9124">
        <ele>196</ele>
        <time>2022-07-23T05:57:37Z</time>
      </trkpt>
      <trkpt lat="47.4783" lon="3.91278">
        <ele>195</ele>
        <time>2022-07-23T05:57:44Z</time>
      </trkpt>
      <trkpt lat="47.47715" lon="3.91482">
        <ele>192</ele>
        <time>2022-07-23T05:58:16Z</time>
      </trkpt>
      <trkpt lat="47.47688" lon="3.91525">
        <ele>193</ele>
        <time>2022-07-23T05:58:23Z</time>
      </trkpt>
      <trkpt lat="47.47658" lon="3.91562">
        <ele>194</ele>
        <time>2022-07-23T05:58:30Z</time>
      </trkpt>
      <trkpt lat="47.47642" lon="3.91573">
        <ele>194</ele>
        <time>2022-07-23T05:58:33Z</time>
      </trkpt>
      <trkpt lat="47.47633" lon="3.91575">
        <ele>194</ele>
        <time>2022-07-23T05:58:34Z</time>
      </trkpt>
      <trkpt lat="47.47616" lon="3.91572">
        <ele>195</ele>
        <time>2022-07-23T05:58:37Z</time>
      </trkpt>
      <trkpt lat="47.47589" lon="3.91565">
        <ele>196</ele>
        <time>2022-07-23T05:58:42Z</time>
      </trkpt>
      <trkpt lat="47.47538" lon="3.91546">
        <ele>199</ele>
        <time>2022-07-23T05:58:52Z</time>
      </trkpt>
      <trkpt lat="47.47514" lon="3.9153">
        <ele>201</ele>
        <time>2022-07-23T05:58:56Z</time>
      </trkpt>
      <trkpt lat="47.47509" lon="3.91581">
        <ele>198</ele>
        <time>2022-07-23T05:58:59Z</time>
      </trkpt>
      <trkpt lat="47.47488" lon="3.91594">
        <ele>199.6</ele>
      </trkpt>
      <trkpt lat="47.47377" lon="3.9168">
        <ele>212.6</ele>
        <time>2022-07-23T05:59:03Z</time>
      </trkpt>
      <trkpt lat="47.47262" lon="3.91673">
        <ele>216.7</ele>
        <time>2022-07-23T05:59:08Z</time>
      </trkpt>
      <trkpt lat="47.4714" lon="3.91637">
        <ele>222.4</ele>
        <time>2022-07-23T05:59:25Z</time>
      </trkpt>
      <trkpt lat="47.47121" lon="3.91637">
        <ele>224.3</ele>
        <time>2022-07-23T05:59:27Z</time>
      </trkpt>
      <trkpt lat="47.4711" lon="3.91637">
        <ele>225.7</ele>
      </trkpt>
      <trkpt lat="47.47031" lon="3.91746">
        <ele>234</ele>
        <time>2022-07-23T05:59:30Z</time>
      </trkpt>
      <trkpt lat="47.46985" lon="3.91841">
        <ele>235.1</ele>
        <time>2022-07-23T05:59:36Z</time>
      </trkpt>
      <trkpt lat="47.4693" lon="3.9189">
        <ele>237.6</ele>
        <time>2022-07-23T05:59:48Z</time>
      </trkpt>
      <trkpt lat="47.46809" lon="3.91866">
        <ele>248.1</ele>
        <time>2022-07-23T05:59:51Z</time>
      </trkpt>
      <trkpt lat="47.46728" lon="3.91897">
        <ele>248</ele>
      </trkpt>
      <trkpt lat="47.46511" lon="3.91892">
        <ele>264.9</ele>
      </trkpt>
      <trkpt lat="47.4634" lon="3.91824">
        <ele>271.7</ele>
      </trkpt>
      <trkpt lat="47.4622" lon="3.91714">
        <ele>278.9</ele>
      </trkpt>
      <trkpt lat="47.46179" lon="3.91673">
        <ele>281.9</ele>
      </trkpt>
      <trkpt lat="47.46104" lon="3.91667">
        <ele>282.3</ele>
      </trkpt>
      <trkpt lat="47.46041" lon="3.91697">
        <ele>282.5</ele>
      </trkpt>
      <trkpt lat="47.45872" lon="3.91843">
        <ele>289</ele>
      </trkpt>
      <trkpt lat="47.45825" lon="3.91877">
        <ele>290.4</ele>
      </trkpt>
      <trkpt lat="47.45783" lon="3.91884">
        <ele>290.3</ele>
      </trkpt>
      <trkpt lat="47.4569" lon="3.91942">
        <ele>296</ele>
      </trkpt>
      <trkpt lat="47.45596" lon="3.92021">
        <ele>302.7</ele>
      </trkpt>
      <trkpt lat="47.45512" lon="3.9203">
        <ele>307.7</ele>
      </trkpt>
      <trkpt lat="47.45342" lon="3.92049">
        <ele>316.2</ele>
      </trkpt>
      <trkpt lat="47.45226" lon="3.92098">
        <ele>323</ele>
      </trkpt>
      <trkpt lat="47.45164" lon="3.92128">
        <ele>325.3</ele>
      </trkpt>
      <trkpt lat="47.45069" lon="3.92135">
        <ele>328.3</ele>
      </trkpt>
      <trkpt lat="47.44917" lon="3.92206">
        <ele>333.4</ele>
      </trkpt>
      <trkpt lat="47.44841" lon="3.92289">
        <ele>337.7</ele>
      </trkpt>
      <trkpt lat="47.44773" lon="3.92403">
        <ele>343.5</ele>
      </trkpt>
      <trkpt lat="47.44661" lon="3.92675">
        <ele>353.1</ele>
      </trkpt>
      <trkpt lat="47.44165" lon="3.92871">
        <ele>372.3</ele>
      </trkpt>
      <trkpt lat="47.44069" lon="3.92864">
        <ele>373.1</ele>
      </trkpt>
      <trkpt lat="47.44039" lon="3.92866">
        <ele>373.2</ele>
      </trkpt>
      <trkpt lat="47.43871" lon="3.92957">
        <ele>369.8</ele>
      </trkpt>
      <trkpt lat="47.43569" lon="3.93064">
        <ele>366.6</ele>
      </trkpt>
      <trkpt lat="47.43483" lon="3.93083">
        <ele>367</ele>
      </trkpt>
      <trkpt lat="47.43386" lon="3.93083">
        <ele>368.1</ele>
      </trkpt>
      <trkpt lat="47.43281" lon="3.93077">
        <ele>371.6</ele>
      </trkpt>
      <trkpt lat="47.43191" lon="3.93105">
        <ele>374.8</ele>
      </trkpt>
      <trkpt lat="47.43106" lon="3.93163">
        <ele>374.7</ele>
      </trkpt>
      <trkpt lat="47.42893" lon="3.93113">
        <ele>375.7</ele>
      </trkpt>
      <trkpt lat="47.42783" lon="3.93053">
        <ele>378.3</ele>
      </trkpt>
      <trkpt lat="47.42712" lon="3.93092">
        <ele>382.9</ele>
      </trkpt>
      <trkpt lat="47.42637" lon="3.93012">
        <ele>381.9</ele>
      </trkpt>
      <trkpt lat="47.42603" lon="3.92935">
        <ele>380.8</ele>
      </trkpt>
      <trkpt lat="47.42595" lon="3.92804">
        <ele>382.4</ele>
      </trkpt>
      <trkpt lat="47.42586" lon="3.92714">
        <ele>380.3</ele>
      </trkpt>
      <trkpt lat="47.42412" lon="3.92626">
        <ele>378</ele>
      </trkpt>
      <trkpt lat="47.42271" lon="3.92656">
        <ele>386.2</ele>
      </trkpt>
      <trkpt lat="47.41973" lon="3.92437">
        <ele>386.4</ele>
      </trkpt>
      <trkpt lat="47.41901" lon="3.92401">
        <ele>385.1</ele>
      </trkpt>
      <trkpt lat="47.41806" lon="3.92403">
        <ele>384</ele>
      </trkpt>
      <trkpt lat="47.41586" lon="3.9221">
        <ele>385.1</ele>
      </trkpt>
      <trkpt lat="47.41554" lon="3.92167">
        <ele>381.9</ele>
      </trkpt>
      <trkpt lat="47.41461" lon="3.92186">
        <ele>376.9</ele>
      </trkpt>
      <trkpt lat="47.41426" lon="3.92193">
        <ele>375.2</ele>
      </trkpt>
      <trkpt lat="47.41365" lon="3.92197">
        <ele>374.3</ele>
      </trkpt>
      <trkpt lat="47.41236" lon="3.92111">
        <ele>370</ele>
      </trkpt>
      <trkpt lat="47.41185" lon="3.92098">
        <ele>368.5</ele>
      </trkpt>
      <trkpt lat="47.41236" lon="3.92111">
        <ele>370</ele>
      </trkpt>
      <trkpt lat="47.41043" lon="3.9216">
        <ele>359.1</ele>
      </trkpt>
      <trkpt lat="47.41016" lon="3.92173">
        <ele>356</ele>
      </trkpt>
      <trkpt lat="47.40916" lon="3.92167">
        <ele>346</ele>
      </trkpt>
      <trkpt lat="47.40717" lon="3.92188">
        <ele>334.6</ele>
      </trkpt>
      <trkpt lat="47.40446" lon="3.92167">
        <ele>316.1</ele>
      </trkpt>
      <trkpt lat="47.40341" lon="3.92075">
        <ele>311.2</ele>
      </trkpt>
      <trkpt lat="47.40334" lon="3.91909">
        <ele>320.5</ele>
      </trkpt>
      <trkpt lat="47.40322" lon="3.91869">
        <ele>322.8</ele>
      </trkpt>
      <trkpt lat="47.40122" lon="3.91549">
        <ele>321.5</ele>
      </trkpt>
      <trkpt lat="47.4001" lon="3.91437">
        <ele>318.9</ele>
      </trkpt>
      <trkpt lat="47.3999" lon="3.91379">
        <ele>319.1</ele>
      </trkpt>
      <trkpt lat="47.39884" lon="3.91283">
        <ele>318.9</ele>
      </trkpt>
      <trkpt lat="47.39724" lon="3.91028">
        <ele>310.8</ele>
      </trkpt>
      <trkpt lat="47.3964" lon="3.91008">
        <ele>307.9</ele>
      </trkpt>
      <trkpt lat="47.39613" lon="3.90955">
        <ele>304.4</ele>
      </trkpt>
      <trkpt lat="47.39532" lon="3.90931">
        <ele>296.5</ele>
      </trkpt>
      <trkpt lat="47.39522" lon="3.90961">
        <ele>294.9</ele>
      </trkpt>
      <trkpt lat="47.395" lon="3.91">
        <ele>292</ele>
      </trkpt>
      <trkpt lat="47.39454" lon="3.91073">
        <ele>287.6</ele>
      </trkpt>
      <trkpt lat="47.39429" lon="3.91197">
        <ele>282.6</ele>
      </trkpt>
      <trkpt lat="47.394" lon="3.91212">
        <ele>281.3</ele>
      </trkpt>
      <trkpt lat="47.39383" lon="3.91197">
        <ele>282.5</ele>
      </trkpt>
      <trkpt lat="47.39364" lon="3.91163">
        <ele>283</ele>
      </trkpt>
      <trkpt lat="47.39342" lon="3.91109">
        <ele>282</ele>
      </trkpt>
      <trkpt lat="47.39278" lon="3.91023">
        <ele>286.6</ele>
      </trkpt>
      <trkpt lat="47.39229" lon="3.9097">
        <ele>288.8</ele>
      </trkpt>
      <trkpt lat="47.39111" lon="3.90862">
        <ele>289.1</ele>
      </trkpt>
      <trkpt lat="47.39082" lon="3.90845">
        <ele>287.8</ele>
      </trkpt>
      <trkpt lat="47.39032" lon="3.90858">
        <ele>286</ele>
      </trkpt>
      <trkpt lat="47.38976" lon="3.90899">
        <ele>285.3</ele>
      </trkpt>
      <trkpt lat="47.38877" lon="3.9094">
        <ele>284.4</ele>
      </trkpt>
      <trkpt lat="47.38846" lon="3.9094">
        <ele>284.2</ele>
      </trkpt>
      <trkpt lat="47.38819" lon="3.90907">
        <ele>282.1</ele>
      </trkpt>
      <trkpt lat="47.38755" lon="3.90867">
        <ele>278.5</ele>
      </trkpt>
      <trkpt lat="47.38732" lon="3.90811">
        <ele>273.7</ele>
      </trkpt>
      <trkpt lat="47.38724" lon="3.90791">
        <ele>272.9</ele>
      </trkpt>
      <trkpt lat="47.38617" lon="3.90764">
        <ele>273.7</ele>
      </trkpt>
      <trkpt lat="47.3854" lon="3.90652">
        <ele>277.6</ele>
      </trkpt>
      <trkpt lat="47.38509" lon="3.90643">
        <ele>279.1</ele>
      </trkpt>
      <trkpt lat="47.38476" lon="3.90646">
        <ele>278.2</ele>
      </trkpt>
      <trkpt lat="47.38435" lon="3.90583">
        <ele>282.4</ele>
      </trkpt>
      <trkpt lat="47.38392" lon="3.9042">
        <ele>291.7</ele>
      </trkpt>
      <trkpt lat="47.38373" lon="3.90382">
        <ele>293.9</ele>
      </trkpt>
      <trkpt lat="47.3836" lon="3.90281">
        <ele>301.6</ele>
      </trkpt>
      <trkpt lat="47.38345" lon="3.90178">
        <ele>308</ele>
      </trkpt>
      <trkpt lat="47.38342" lon="3.90128">
        <ele>311.9</ele>
      </trkpt>
      <trkpt lat="47.38251" lon="3.90143">
        <ele>302.7</ele>
      </trkpt>
      <trkpt lat="47.3821" lon="3.90148">
        <ele>299.9</ele>
      </trkpt>
      <trkpt lat="47.38191" lon="3.90169">
        <ele>298.8</ele>
      </trkpt>
      <trkpt lat="47.38175" lon="3.90229">
        <ele>298.5</ele>
      </trkpt>
      <trkpt lat="47.38167" lon="3.90272">
        <ele>296.4</ele>
      </trkpt>
      <trkpt lat="47.3812" lon="3.90274">
        <ele>290</ele>
      </trkpt>
      <trkpt lat="47.38092" lon="3.90255">
        <ele>288</ele>
      </trkpt>
      <trkpt lat="47.38066" lon="3.90251">
        <ele>285.1</ele>
      </trkpt>
      <trkpt lat="47.38042" lon="3.90279">
        <ele>284.5</ele>
      </trkpt>
      <trkpt lat="47.38001" lon="3.90339">
        <ele>289.5</ele>
      </trkpt>
      <trkpt lat="47.37963" lon="3.90352">
        <ele>295.4</ele>
      </trkpt>
      <trkpt lat="47.37953" lon="3.90309">
        <ele>295.2</ele>
      </trkpt>
      <trkpt lat="47.37946" lon="3.90251">
        <ele>298.7</ele>
      </trkpt>
      <trkpt lat="47.3795" lon="3.90176">
        <ele>301.5</ele>
      </trkpt>
      <trkpt lat="47.37957" lon="3.9012">
        <ele>302.8</ele>
      </trkpt>
      <trkpt lat="47.37872" lon="3.89948">
        <ele>313.7</ele>
      </trkpt>
      <trkpt lat="47.37837" lon="3.8991">
        <ele>316.7</ele>
      </trkpt>
      <trkpt lat="47.37713" lon="3.8989">
        <ele>328.9</ele>
      </trkpt>
      <trkpt lat="47.37628" lon="3.89871">
        <ele>334.7</ele>
      </trkpt>
      <trkpt lat="47.37575" lon="3.89834">
        <ele>339.9</ele>
      </trkpt>
      <trkpt lat="47.37501" lon="3.89813">
        <ele>348.7</ele>
      </trkpt>
      <trkpt lat="47.37436" lon="3.89809">
        <ele>353.1</ele>
      </trkpt>
      <trkpt lat="47.37394" lon="3.89854">
        <ele>357.8</ele>
      </trkpt>
      <trkpt lat="47.37353" lon="3.89897">
        <ele>355.8</ele>
      </trkpt>
      <trkpt lat="47.37238" lon="3.89925">
        <ele>344.5</ele>
      </trkpt>
      <trkpt lat="47.37161" lon="3.89991">
        <ele>342.7</ele>
      </trkpt>
      <trkpt lat="47.37112" lon="3.9009">
        <ele>334.3</ele>
      </trkpt>
      <trkpt lat="47.37097" lon="3.90158">
        <ele>328.6</ele>
      </trkpt>
      <trkpt lat="47.371" lon="3.90182">
        <ele>327.5</ele>
      </trkpt>
      <trkpt lat="47.37103" lon="3.90229">
        <ele>326.6</ele>
      </trkpt>
      <trkpt lat="47.37101" lon="3.90257">
        <ele>326.6</ele>
      </trkpt>
      <trkpt lat="47.37093" lon="3.90284">
        <ele>326.2</ele>
      </trkpt>
      <trkpt lat="47.37078" lon="3.90301">
        <ele>325.4</ele>
      </trkpt>
      <trkpt lat="47.37065" lon="3.90313">
        <ele>324.1</ele>
      </trkpt>
      <trkpt lat="47.37042" lon="3.90323">
        <ele>322.4</ele>
      </trkpt>
      <trkpt lat="47.37021" lon="3.90324">
        <ele>321</ele>
      </trkpt>
      <trkpt lat="47.37001" lon="3.90323">
        <ele>319.2</ele>
      </trkpt>
      <trkpt lat="47.36937" lon="3.90289">
        <ele>316</ele>
      </trkpt>
      <trkpt lat="47.36892" lon="3.90276">
        <ele>312.5</ele>
      </trkpt>
      <trkpt lat="47.36859" lon="3.90273">
        <ele>310.3</ele>
      </trkpt>
      <trkpt lat="47.3683" lon="3.90289">
        <ele>311.2</ele>
      </trkpt>
      <trkpt lat="47.36753" lon="3.90418">
        <ele>319.5</ele>
      </trkpt>
      <trkpt lat="47.36708" lon="3.9047">
        <ele>317</ele>
      </trkpt>
      <trkpt lat="47.36638" lon="3.905">
        <ele>313.3</ele>
      </trkpt>
      <trkpt lat="47.36565" lon="3.90519">
        <ele>315.9</ele>
      </trkpt>
      <trkpt lat="47.365" lon="3.90502">
        <ele>316.8</ele>
      </trkpt>
      <trkpt lat="47.36314" lon="3.90551">
        <ele>324.8</ele>
      </trkpt>
      <trkpt lat="47.36189" lon="3.90497">
        <ele>325.8</ele>
      </trkpt>
      <trkpt lat="47.3619" lon="3.90463">
        <ele>329.6</ele>
      </trkpt>
      <trkpt lat="47.36166" lon="3.9044">
        <ele>330.2</ele>
      </trkpt>
      <trkpt lat="47.36161" lon="3.90401">
        <ele>332.6</ele>
      </trkpt>
      <trkpt lat="47.3617" lon="3.90377">
        <ele>334.7</ele>
      </trkpt>
      <trkpt lat="47.36189" lon="3.90367">
        <ele>336.5</ele>
      </trkpt>
      <trkpt lat="47.36209" lon="3.90373">
        <ele>338.7</ele>
      </trkpt>
      <trkpt lat="47.36228" lon="3.90394">
        <ele>339</ele>
      </trkpt>
      <trkpt lat="47.36253" lon="3.90388">
        <ele>341.3</ele>
      </trkpt>
      <trkpt lat="47.36352" lon="3.90345">
        <ele>349.7</ele>
      </trkpt>
      <trkpt lat="47.36395" lon="3.90304">
        <ele>352.9</ele>
      </trkpt>
      <trkpt lat="47.36439" lon="3.90234">
        <ele>358.6</ele>
      </trkpt>
      <trkpt lat="47.3649" lon="3.90204">
        <ele>361.6</ele>
      </trkpt>
      <trkpt lat="47.36504" lon="3.90165">
        <ele>365.1</ele>
      </trkpt>
      <trkpt lat="47.365" lon="3.90124">
        <ele>366.5</ele>
      </trkpt>
      <trkpt lat="47.36474" lon="3.90103">
        <ele>368.2</ele>
      </trkpt>
      <trkpt lat="47.3645" lon="3.90109">
        <ele>369.8</ele>
      </trkpt>
      <trkpt lat="47.36408" lon="3.90126">
        <ele>373.7</ele>
      </trkpt>
      <trkpt lat="47.36368" lon="3.90133">
        <ele>376.2</ele>
      </trkpt>
      <trkpt lat="47.36333" lon="3.90111">
        <ele>379</ele>
      </trkpt>
      <trkpt lat="47.36311" lon="3.90092">
        <ele>379.8</ele>
      </trkpt>
      <trkpt lat="47.36305" lon="3.90045">
        <ele>382.1</ele>
      </trkpt>
      <trkpt lat="47.36301" lon="3.90004">
        <ele>385.3</ele>
      </trkpt>
      <trkpt lat="47.36141" lon="3.89725">
        <ele>402.7</ele>
      </trkpt>
      <trkpt lat="47.36065" lon="3.89592">
        <ele>408.7</ele>
      </trkpt>
      <trkpt lat="47.36026" lon="3.89553">
        <ele>412.1</ele>
      </trkpt>
      <trkpt lat="47.35953" lon="3.89347">
        <ele>422.2</ele>
      </trkpt>
      <trkpt lat="47.35947" lon="3.89304">
        <ele>425.1</ele>
      </trkpt>
      <trkpt lat="47.35968" lon="3.89264">
        <ele>428</ele>
      </trkpt>
      <trkpt lat="47.35979" lon="3.89236">
        <ele>429.6</ele>
      </trkpt>
      <trkpt lat="47.35963" lon="3.89174">
        <ele>432.6</ele>
      </trkpt>
      <trkpt lat="47.35927" lon="3.89073">
        <ele>437.5</ele>
      </trkpt>
      <trkpt lat="47.35872" lon="3.88968">
        <ele>438</ele>
      </trkpt>
      <trkpt lat="47.35815" lon="3.8885">
        <ele>433.9</ele>
      </trkpt>
      <trkpt lat="47.35759" lon="3.88835">
        <ele>429</ele>
      </trkpt>
      <trkpt lat="47.35719" lon="3.88847">
        <ele>426.3</ele>
      </trkpt>
      <trkpt lat="47.3568" lon="3.88837">
        <ele>423.1</ele>
      </trkpt>
      <trkpt lat="47.3566" lon="3.88854">
        <ele>422.5</ele>
      </trkpt>
      <trkpt lat="47.35638" lon="3.88869">
        <ele>422.5</ele>
      </trkpt>
      <trkpt lat="47.35626" lon="3.88862">
        <ele>421.6</ele>
      </trkpt>
      <trkpt lat="47.35565" lon="3.88796">
        <ele>417</ele>
      </trkpt>
      <trkpt lat="47.35503" lon="3.88665">
        <ele>408.9</ele>
      </trkpt>
      <trkpt lat="47.35479" lon="3.88547">
        <ele>406.4</ele>
      </trkpt>
      <trkpt lat="47.35465" lon="3.88536">
        <ele>406.6</ele>
      </trkpt>
      <trkpt lat="47.35229" lon="3.88562">
        <ele>416.7</ele>
      </trkpt>
      <trkpt lat="47.35164" lon="3.88513">
        <ele>415.7</ele>
      </trkpt>
      <trkpt lat="47.35131" lon="3.88433">
        <ele>414</ele>
      </trkpt>
      <trkpt lat="47.35056" lon="3.88352">
        <ele>410</ele>
      </trkpt>
      <trkpt lat="47.34971" lon="3.88309">
        <ele>410.1</ele>
      </trkpt>
      <trkpt lat="47.34476" lon="3.88163">
        <ele>416</ele>
      </trkpt>
      <trkpt lat="47.34433" lon="3.88163">
        <ele>418.4</ele>
      </trkpt>
      <trkpt lat="47.34375" lon="3.88206">
        <ele>419.8</ele>
      </trkpt>
      <trkpt lat="47.34019" lon="3.87989">
        <ele>434.4</ele>
      </trkpt>
      <trkpt lat="47.3374" lon="3.87543">
        <ele>440.5</ele>
      </trkpt>
      <trkpt lat="47.33641" lon="3.8726">
        <ele>435.9</ele>
      </trkpt>
      <trkpt lat="47.33531" lon="3.87036">
        <ele>446.3</ele>
      </trkpt>
      <trkpt lat="47.33414" lon="3.86916">
        <ele>454</ele>
      </trkpt>
      <trkpt lat="47.33344" lon="3.87019">
        <ele>449.6</ele>
      </trkpt>
      <trkpt lat="47.33275" lon="3.87105">
        <ele>455</ele>
      </trkpt>
      <trkpt lat="47.33077" lon="3.87071">
        <ele>473.2</ele>
      </trkpt>
      <trkpt lat="47.32908" lon="3.87105">
        <ele>484</ele>
      </trkpt>
      <trkpt lat="47.32815" lon="3.87131">
        <ele>489.7</ele>
      </trkpt>
      <trkpt lat="47.32734" lon="3.87105">
        <ele>496.2</ele>
      </trkpt>
      <trkpt lat="47.32675" lon="3.86993">
        <ele>504.9</ele>
      </trkpt>
      <trkpt lat="47.32635" lon="3.87019">
        <ele>506.3</ele>
      </trkpt>
      <trkpt lat="47.32629" lon="3.87199">
        <ele>511.5</ele>
      </trkpt>
      <trkpt lat="47.32227" lon="3.87242">
        <ele>504.7</ele>
      </trkpt>
      <trkpt lat="47.32268" lon="3.87457">
        <ele>504</ele>
      </trkpt>
      <trkpt lat="47.32128" lon="3.87611">
        <ele>506.5</ele>
      </trkpt>
      <trkpt lat="47.31954" lon="3.87629">
        <ele>517</ele>
      </trkpt>
      <trkpt lat="47.31826" lon="3.87491">
        <ele>507.2</ele>
      </trkpt>
      <trkpt lat="47.31774" lon="3.87337">
        <ele>509.2</ele>
      </trkpt>
      <trkpt lat="47.31651" lon="3.87337">
        <ele>507.3</ele>
      </trkpt>
      <trkpt lat="47.31616" lon="3.87431">
        <ele>504.1</ele>
      </trkpt>
      <trkpt lat="47.31558" lon="3.87457">
        <ele>507.1</ele>
      </trkpt>
      <trkpt lat="47.31349" lon="3.87423">
        <ele>505.7</ele>
      </trkpt>
      <trkpt lat="47.31248" lon="3.87538">
        <ele>493.4</ele>
      </trkpt>
      <trkpt lat="47.31143" lon="3.87493">
        <ele>491.3</ele>
      </trkpt>
      <trkpt lat="47.31083" lon="3.87626">
        <ele>483.8</ele>
      </trkpt>
      <trkpt lat="47.31013" lon="3.87639">
        <ele>487.4</ele>
      </trkpt>
      <trkpt lat="47.30709" lon="3.87575">
        <ele>477.6</ele>
      </trkpt>
      <trkpt lat="47.30705" lon="3.87689">
        <ele>475.2</ele>
      </trkpt>
      <trkpt lat="47.30762" lon="3.8785">
        <ele>486.5</ele>
      </trkpt>
      <trkpt lat="47.30738" lon="3.87981">
        <ele>492.6</ele>
      </trkpt>
      <trkpt lat="47.30734" lon="3.88049">
        <ele>497.5</ele>
      </trkpt>
      <trkpt lat="47.30753" lon="3.88124">
        <ele>501.1</ele>
      </trkpt>
      <trkpt lat="47.30853" lon="3.88279">
        <ele>508.1</ele>
      </trkpt>
      <trkpt lat="47.30836" lon="3.88433">
        <ele>510.6</ele>
      </trkpt>
      <trkpt lat="47.30871" lon="3.88712">
        <ele>503.4</ele>
      </trkpt>
      <trkpt lat="47.30882" lon="3.89">
        <ele>504</ele>
      </trkpt>
      <trkpt lat="47.30942" lon="3.89094">
        <ele>509.9</ele>
      </trkpt>
      <trkpt lat="47.30929" lon="3.89146">
        <ele>514.7</ele>
      </trkpt>
      <trkpt lat="47.30757" lon="3.89219">
        <ele>529.3</ele>
      </trkpt>
      <trkpt lat="47.30631" lon="3.89189">
        <ele>538.2</ele>
      </trkpt>
      <trkpt lat="47.30591" lon="3.89251">
        <ele>540</ele>
      </trkpt>
      <trkpt lat="47.3052" lon="3.89184">
        <ele>540.9</ele>
      </trkpt>
      <trkpt lat="47.30469" lon="3.89083">
        <ele>541.1</ele>
      </trkpt>
      <trkpt lat="47.30348" lon="3.89015">
        <ele>545</ele>
      </trkpt>
      <trkpt lat="47.3026" lon="3.89019">
        <ele>552</ele>
      </trkpt>
      <trkpt lat="47.30155" lon="3.89002">
        <ele>560.8</ele>
      </trkpt>
      <trkpt lat="47.30113" lon="3.8897">
        <ele>564</ele>
      </trkpt>
      <trkpt lat="47.3003" lon="3.88845">
        <ele>567.6</ele>
      </trkpt>
      <trkpt lat="47.29974" lon="3.88777">
        <ele>568.9</ele>
      </trkpt>
      <trkpt lat="47.29913" lon="3.88747">
        <ele>571.2</ele>
      </trkpt>
      <trkpt lat="47.29874" lon="3.88697">
        <ele>575</ele>
      </trkpt>
      <trkpt lat="47.2979" lon="3.88459">
        <ele>570.7</ele>
      </trkpt>
      <trkpt lat="47.29694" lon="3.88362">
        <ele>574.4</ele>
      </trkpt>
      <trkpt lat="47.29682" lon="3.88294">
        <ele>574.1</ele>
      </trkpt>
      <trkpt lat="47.29692" lon="3.88249">
        <ele>576.7</ele>
      </trkpt>
      <trkpt lat="47.29731" lon="3.88195">
        <ele>579.9</ele>
      </trkpt>
      <trkpt lat="47.29734" lon="3.88167">
        <ele>583.5</ele>
      </trkpt>
      <trkpt lat="47.29688" lon="3.88047">
        <ele>579.2</ele>
      </trkpt>
      <trkpt lat="47.29634" lon="3.88019">
        <ele>578.3</ele>
      </trkpt>
      <trkpt lat="47.29621" lon="3.87946">
        <ele>577.5</ele>
      </trkpt>
      <trkpt lat="47.29643" lon="3.87923">
        <ele>574.6</ele>
      </trkpt>
      <trkpt lat="47.29657" lon="3.87897">
        <ele>572.6</ele>
      </trkpt>
      <trkpt lat="47.29653" lon="3.87805">
        <ele>569</ele>
      </trkpt>
      <trkpt lat="47.2966" lon="3.87747">
        <ele>567.8</ele>
      </trkpt>
      <trkpt lat="47.29705" lon="3.87674">
        <ele>569.6</ele>
      </trkpt>
      <trkpt lat="47.29753" lon="3.87644">
        <ele>567.4</ele>
      </trkpt>
      <trkpt lat="47.2982" lon="3.87504">
        <ele>569.1</ele>
      </trkpt>
      <trkpt lat="47.29894" lon="3.87283">
        <ele>578.4</ele>
      </trkpt>
      <trkpt lat="47.29894" lon="3.87223">
        <ele>580.2</ele>
      </trkpt>
      <trkpt lat="47.29849" lon="3.87161">
        <ele>581</ele>
      </trkpt>
      <trkpt lat="47.29749" lon="3.8709">
        <ele>571</ele>
      </trkpt>
      <trkpt lat="47.29582" lon="3.87058">
        <ele>564.7</ele>
      </trkpt>
      <trkpt lat="47.29478" lon="3.86822">
        <ele>552.8</ele>
      </trkpt>
      <trkpt lat="47.29472" lon="3.86764">
        <ele>549.5</ele>
      </trkpt>
      <trkpt lat="47.29465" lon="3.8659">
        <ele>543.8</ele>
      </trkpt>
      <trkpt lat="47.29503" lon="3.86041">
        <ele>520.9</ele>
      </trkpt>
      <trkpt lat="47.29484" lon="3.85886">
        <ele>511.3</ele>
      </trkpt>
      <trkpt lat="47.29379" lon="3.85798">
        <ele>507.6</ele>
      </trkpt>
      <trkpt lat="47.29209" lon="3.8574">
        <ele>502</ele>
      </trkpt>
      <trkpt lat="47.29164" lon="3.85693">
        <ele>498.1</ele>
      </trkpt>
      <trkpt lat="47.29158" lon="3.85515">
        <ele>485.7</ele>
      </trkpt>
      <trkpt lat="47.29175" lon="3.8547">
        <ele>483.9</ele>
      </trkpt>
      <trkpt lat="47.29199" lon="3.85403">
        <ele>479.6</ele>
      </trkpt>
      <trkpt lat="47.29159" lon="3.85288">
        <ele>473.3</ele>
      </trkpt>
      <trkpt lat="47.29143" lon="3.85176">
        <ele>465.5</ele>
      </trkpt>
      <trkpt lat="47.29151" lon="3.85049">
        <ele>460.8</ele>
      </trkpt>
      <trkpt lat="47.29178" lon="3.8477">
        <ele>465.2</ele>
      </trkpt>
      <trkpt lat="47.29155" lon="3.84682">
        <ele>469.2</ele>
      </trkpt>
      <trkpt lat="47.29095" lon="3.84605">
        <ele>466.9</ele>
      </trkpt>
      <trkpt lat="47.29077" lon="3.84549">
        <ele>465.8</ele>
      </trkpt>
      <trkpt lat="47.29075" lon="3.84419">
        <ele>466.4</ele>
      </trkpt>
      <trkpt lat="47.29037" lon="3.84376">
        <ele>468.3</ele>
      </trkpt>
      <trkpt lat="47.28998" lon="3.84371">
        <ele>469.2</ele>
      </trkpt>
      <trkpt lat="47.28884" lon="3.84193">
        <ele>476.9</ele>
      </trkpt>
      <trkpt lat="47.28858" lon="3.83773">
        <ele>473.6</ele>
      </trkpt>
      <trkpt lat="47.29021" lon="3.83243">
        <ele>457.2</ele>
      </trkpt>
      <trkpt lat="47.29044" lon="3.83105">
        <ele>454.1</ele>
      </trkpt>
      <trkpt lat="47.28927" lon="3.82359">
        <ele>434.8</ele>
      </trkpt>
      <trkpt lat="47.28904" lon="3.82187">
        <ele>435.4</ele>
      </trkpt>
      <trkpt lat="47.2892" lon="3.82106">
        <ele>435</ele>
        <time>2022-07-23T07:09:55Z</time>
      </trkpt>
      <trkpt lat="47.28907" lon="3.82102">
        <ele>434</ele>
        <time>2022-07-23T07:09:57Z</time>
      </trkpt>
      <trkpt lat="47.2886" lon="3.82093">
        <ele>433</ele>
        <time>2022-07-23T07:10:06Z</time>
      </trkpt>
      <trkpt lat="47.2882" lon="3.82093">
        <ele>432</ele>
        <time>2022-07-23T07:10:13Z</time>
      </trkpt>
      <trkpt lat="47.28775" lon="3.82087">
        <ele>429</ele>
        <time>2022-07-23T07:10:21Z</time>
      </trkpt>
      <trkpt lat="47.28741" lon="3.82095">
        <ele>427</ele>
        <time>2022-07-23T07:10:27Z</time>
      </trkpt>
      <trkpt lat="47.28723" lon="3.82096">
        <ele>426</ele>
        <time>2022-07-23T07:10:30Z</time>
      </trkpt>
      <trkpt lat="47.28707" lon="3.8209">
        <ele>426</ele>
        <time>2022-07-23T07:10:33Z</time>
      </trkpt>
      <trkpt lat="47.28701" lon="3.82085">
        <ele>425</ele>
        <time>2022-07-23T07:10:34Z</time>
      </trkpt>
      <trkpt lat="47.28698" lon="3.82072">
        <ele>425</ele>
        <time>2022-07-23T07:10:36Z</time>
      </trkpt>
      <trkpt lat="47.28693" lon="3.82036">
        <ele>424</ele>
        <time>2022-07-23T07:10:41Z</time>
      </trkpt>
      <trkpt lat="47.28653" lon="3.81943">
        <ele>420</ele>
        <time>2022-07-23T07:10:54Z</time>
      </trkpt>
      <trkpt lat="47.2865" lon="3.81933">
        <ele>419</ele>
        <time>2022-07-23T07:10:55Z</time>
      </trkpt>
      <trkpt lat="47.28648" lon="3.81913">
        <ele>419</ele>
        <time>2022-07-23T07:10:58Z</time>
      </trkpt>
      <trkpt lat="47.28029" lon="3.82212">
        <ele>420</ele>
        <time>2022-07-23T07:12:54Z</time>
      </trkpt>
      <trkpt lat="47.28" lon="3.8229">
        <ele>421.6</ele>
      </trkpt>
      <trkpt lat="47.27901" lon="3.82466">
        <ele>424.3</ele>
      </trkpt>
      <trkpt lat="47.27869" lon="3.82663">
        <ele>425.2</ele>
      </trkpt>
      <trkpt lat="47.27814" lon="3.8314">
        <ele>424.1</ele>
      </trkpt>
      <trkpt lat="47.27799" lon="3.83294">
        <ele>425</ele>
      </trkpt>
      <trkpt lat="47.27735" lon="3.83449">
        <ele>426.1</ele>
      </trkpt>
      <trkpt lat="47.2763" lon="3.83565">
        <ele>429.5</ele>
      </trkpt>
      <trkpt lat="47.27534" lon="3.83629">
        <ele>432.7</ele>
      </trkpt>
      <trkpt lat="47.27485" lon="3.8371">
        <ele>433.2</ele>
      </trkpt>
      <trkpt lat="47.27412" lon="3.83805">
        <ele>437.2</ele>
      </trkpt>
      <trkpt lat="47.27333" lon="3.83861">
        <ele>436.9</ele>
      </trkpt>
      <trkpt lat="47.27249" lon="3.83912">
        <ele>436.1</ele>
      </trkpt>
      <trkpt lat="47.2722" lon="3.84049">
        <ele>434.4</ele>
      </trkpt>
      <trkpt lat="47.27223" lon="3.84174">
        <ele>440.9</ele>
      </trkpt>
      <trkpt lat="47.2715" lon="3.84324">
        <ele>439.2</ele>
      </trkpt>
      <trkpt lat="47.2706" lon="3.8438">
        <ele>443.6</ele>
      </trkpt>
      <trkpt lat="47.27016" lon="3.8444">
        <ele>442.1</ele>
      </trkpt>
      <trkpt lat="47.27007" lon="3.84517">
        <ele>436.9</ele>
      </trkpt>
      <trkpt lat="47.26993" lon="3.84633">
        <ele>435.9</ele>
      </trkpt>
      <trkpt lat="47.26932" lon="3.84715">
        <ele>446.4</ele>
      </trkpt>
      <trkpt lat="47.26838" lon="3.848">
        <ele>442.5</ele>
      </trkpt>
      <trkpt lat="47.26806" lon="3.84839">
        <ele>441.5</ele>
      </trkpt>
      <trkpt lat="47.26771" lon="3.84916">
        <ele>438.8</ele>
      </trkpt>
      <trkpt lat="47.26713" lon="3.84942">
        <ele>441.5</ele>
      </trkpt>
      <trkpt lat="47.26664" lon="3.84951">
        <ele>443.8</ele>
      </trkpt>
      <trkpt lat="47.26637" lon="3.84951">
        <ele>443.4</ele>
      </trkpt>
      <trkpt lat="47.26588" lon="3.84805">
        <ele>438.8</ele>
      </trkpt>
      <trkpt lat="47.26573" lon="3.84745">
        <ele>441.6</ele>
      </trkpt>
      <trkpt lat="47.26489" lon="3.8471">
        <ele>435.6</ele>
      </trkpt>
      <trkpt lat="47.2641" lon="3.84625">
        <ele>435.5</ele>
      </trkpt>
      <trkpt lat="47.26329" lon="3.84517">
        <ele>438.6</ele>
      </trkpt>
      <trkpt lat="47.26163" lon="3.8438">
        <ele>428.4</ele>
      </trkpt>
      <trkpt lat="47.26087" lon="3.84285">
        <ele>423.4</ele>
      </trkpt>
      <trkpt lat="47.26061" lon="3.84152">
        <ele>420.7</ele>
      </trkpt>
      <trkpt lat="47.25883" lon="3.83985">
        <ele>412.9</ele>
      </trkpt>
      <trkpt lat="47.2588" lon="3.83951">
        <ele>411.4</ele>
      </trkpt>
      <trkpt lat="47.25903" lon="3.83878">
        <ele>408.4</ele>
      </trkpt>
      <trkpt lat="47.25909" lon="3.83826">
        <ele>406.4</ele>
      </trkpt>
      <trkpt lat="47.25869" lon="3.83809">
        <ele>402.8</ele>
      </trkpt>
      <trkpt lat="47.25837" lon="3.83831">
        <ele>400.3</ele>
      </trkpt>
      <trkpt lat="47.25784" lon="3.83869">
        <ele>396</ele>
      </trkpt>
      <trkpt lat="47.25737" lon="3.83891">
        <ele>393.1</ele>
      </trkpt>
      <trkpt lat="47.25714" lon="3.84071">
        <ele>385.8</ele>
      </trkpt>
      <trkpt lat="47.25636" lon="3.84144">
        <ele>383.9</ele>
      </trkpt>
      <trkpt lat="47.25609" lon="3.84213">
        <ele>379.5</ele>
      </trkpt>
      <trkpt lat="47.25574" lon="3.84247">
        <ele>382.5</ele>
      </trkpt>
      <trkpt lat="47.25522" lon="3.842">
        <ele>389.5</ele>
      </trkpt>
      <trkpt lat="47.2547" lon="3.84178">
        <ele>389</ele>
      </trkpt>
      <trkpt lat="47.25347" lon="3.84238">
        <ele>391.5</ele>
      </trkpt>
      <trkpt lat="47.25257" lon="3.84243">
        <ele>396.4</ele>
      </trkpt>
      <trkpt lat="47.25225" lon="3.8426">
        <ele>398</ele>
      </trkpt>
      <trkpt lat="47.25222" lon="3.84324">
        <ele>398.6</ele>
      </trkpt>
      <trkpt lat="47.25202" lon="3.84371">
        <ele>396.3</ele>
      </trkpt>
      <trkpt lat="47.25146" lon="3.84393">
        <ele>391</ele>
      </trkpt>
      <trkpt lat="47.251" lon="3.84384">
        <ele>385.7</ele>
      </trkpt>
      <trkpt lat="47.25068" lon="3.84311">
        <ele>382</ele>
      </trkpt>
      <trkpt lat="47.25035" lon="3.84255">
        <ele>379.8</ele>
      </trkpt>
      <trkpt lat="47.24966" lon="3.84243">
        <ele>372.5</ele>
      </trkpt>
      <trkpt lat="47.24846" lon="3.84251">
        <ele>363.3</ele>
      </trkpt>
      <trkpt lat="47.24709" lon="3.84221">
        <ele>352.6</ele>
      </trkpt>
      <trkpt lat="47.24648" lon="3.84183">
        <ele>351.6</ele>
      </trkpt>
      <trkpt lat="47.24561" lon="3.84187">
        <ele>352.6</ele>
      </trkpt>
      <trkpt lat="47.24529" lon="3.84208">
        <ele>353</ele>
      </trkpt>
      <trkpt lat="47.24464" lon="3.84221">
        <ele>355.2</ele>
      </trkpt>
      <trkpt lat="47.24403" lon="3.8423">
        <ele>357.9</ele>
      </trkpt>
      <trkpt lat="47.2436" lon="3.84281">
        <ele>361.2</ele>
      </trkpt>
      <trkpt lat="47.24339" lon="3.84346">
        <ele>364.2</ele>
      </trkpt>
      <trkpt lat="47.24295" lon="3.84431">
        <ele>368.6</ele>
      </trkpt>
      <trkpt lat="47.24249" lon="3.845">
        <ele>373.2</ele>
      </trkpt>
      <trkpt lat="47.24249" lon="3.84577">
        <ele>375.8</ele>
      </trkpt>
      <trkpt lat="47.24205" lon="3.84633">
        <ele>373.4</ele>
      </trkpt>
      <trkpt lat="47.2415" lon="3.84616">
        <ele>368.8</ele>
      </trkpt>
      <trkpt lat="47.24094" lon="3.84564">
        <ele>365.8</ele>
      </trkpt>
      <trkpt lat="47.24016" lon="3.84539">
        <ele>361.1</ele>
      </trkpt>
      <trkpt lat="47.2392" lon="3.84509">
        <ele>356.5</ele>
      </trkpt>
      <trkpt lat="47.23861" lon="3.84547">
        <ele>353.6</ele>
      </trkpt>
      <trkpt lat="47.23771" lon="3.84612">
        <ele>349.8</ele>
      </trkpt>
      <trkpt lat="47.23692" lon="3.84594">
        <ele>347.4</ele>
      </trkpt>
      <trkpt lat="47.2364" lon="3.84534">
        <ele>344.9</ele>
      </trkpt>
      <trkpt lat="47.23596" lon="3.84483">
        <ele>339.3</ele>
      </trkpt>
      <trkpt lat="47.23579" lon="3.84496">
        <ele>338.3</ele>
      </trkpt>
      <trkpt lat="47.23582" lon="3.84586">
        <ele>338.7</ele>
      </trkpt>
      <trkpt lat="47.23576" lon="3.84706">
        <ele>334.6</ele>
      </trkpt>
      <trkpt lat="47.23538" lon="3.84826">
        <ele>327.8</ele>
      </trkpt>
      <trkpt lat="47.23483" lon="3.85002">
        <ele>322.6</ele>
      </trkpt>
      <trkpt lat="47.23465" lon="3.85075">
        <ele>317.1</ele>
      </trkpt>
      <trkpt lat="47.23462" lon="3.85118">
        <ele>316.1</ele>
      </trkpt>
      <trkpt lat="47.23421" lon="3.85174">
        <ele>318.7</ele>
      </trkpt>
      <trkpt lat="47.23404" lon="3.85225">
        <ele>322.8</ele>
      </trkpt>
      <trkpt lat="47.23378" lon="3.85277">
        <ele>325.1</ele>
      </trkpt>
      <trkpt lat="47.23197" lon="3.85109">
        <ele>315</ele>
      </trkpt>
      <trkpt lat="47.23115" lon="3.85054">
        <ele>308.1</ele>
      </trkpt>
      <trkpt lat="47.22987" lon="3.84822">
        <ele>293.6</ele>
      </trkpt>
      <trkpt lat="47.22792" lon="3.84702">
        <ele>294.6</ele>
      </trkpt>
      <trkpt lat="47.22573" lon="3.85032">
        <ele>285.7</ele>
      </trkpt>
      <trkpt lat="47.2248" lon="3.85187">
        <ele>287.3</ele>
      </trkpt>
      <trkpt lat="47.2239" lon="3.852">
        <ele>282.8</ele>
      </trkpt>
      <trkpt lat="47.22264" lon="3.85097">
        <ele>283.7</ele>
      </trkpt>
      <trkpt lat="47.22221" lon="3.85135">
        <ele>286.9</ele>
      </trkpt>
      <trkpt lat="47.22192" lon="3.85221">
        <ele>291.1</ele>
      </trkpt>
      <trkpt lat="47.22119" lon="3.85307">
        <ele>294</ele>
      </trkpt>
      <trkpt lat="47.22028" lon="3.85376">
        <ele>296.5</ele>
      </trkpt>
      <trkpt lat="47.21964" lon="3.85294">
        <ele>298.9</ele>
      </trkpt>
      <trkpt lat="47.21944" lon="3.85195">
        <ele>304</ele>
      </trkpt>
      <trkpt lat="47.2192" lon="3.85187">
        <ele>306.5</ele>
      </trkpt>
      <trkpt lat="47.21941" lon="3.85092">
        <ele>307.5</ele>
      </trkpt>
      <trkpt lat="47.21923" lon="3.85041">
        <ele>306.5</ele>
      </trkpt>
      <trkpt lat="47.21827" lon="3.85084">
        <ele>315.7</ele>
      </trkpt>
      <trkpt lat="47.2174" lon="3.85058">
        <ele>323.4</ele>
      </trkpt>
      <trkpt lat="47.21649" lon="3.85049">
        <ele>333.9</ele>
      </trkpt>
      <trkpt lat="47.21518" lon="3.85174">
        <ele>341</ele>
      </trkpt>
      <trkpt lat="47.21498" lon="3.85208">
        <ele>344.6</ele>
      </trkpt>
      <trkpt lat="47.21396" lon="3.85247">
        <ele>348.8</ele>
      </trkpt>
      <trkpt lat="47.2125" lon="3.85217">
        <ele>357</ele>
      </trkpt>
      <trkpt lat="47.21171" lon="3.85234">
        <ele>359.2</ele>
      </trkpt>
      <trkpt lat="47.2104" lon="3.85281">
        <ele>360.9</ele>
      </trkpt>
      <trkpt lat="47.20929" lon="3.8535">
        <ele>368.1</ele>
      </trkpt>
      <trkpt lat="47.20801" lon="3.85363">
        <ele>371.9</ele>
      </trkpt>
      <trkpt lat="47.20737" lon="3.8556">
        <ele>375.6</ele>
      </trkpt>
      <trkpt lat="47.20711" lon="3.85603">
        <ele>373.2</ele>
      </trkpt>
      <trkpt lat="47.20644" lon="3.85612">
        <ele>366.5</ele>
      </trkpt>
      <trkpt lat="47.20512" lon="3.85599">
        <ele>355.2</ele>
      </trkpt>
      <trkpt lat="47.20442" lon="3.85547">
        <ele>345.7</ele>
      </trkpt>
      <trkpt lat="47.2039" lon="3.8547">
        <ele>343.7</ele>
      </trkpt>
      <trkpt lat="47.2034" lon="3.85376">
        <ele>345.7</ele>
      </trkpt>
      <trkpt lat="47.20224" lon="3.85174">
        <ele>358.7</ele>
      </trkpt>
      <trkpt lat="47.20157" lon="3.85058">
        <ele>365.5</ele>
      </trkpt>
      <trkpt lat="47.20122" lon="3.84938">
        <ele>374.3</ele>
      </trkpt>
      <trkpt lat="47.20107" lon="3.84835">
        <ele>380.9</ele>
      </trkpt>
      <trkpt lat="47.20052" lon="3.84805">
        <ele>389.2</ele>
      </trkpt>
      <trkpt lat="47.19967" lon="3.84818">
        <ele>393.8</ele>
      </trkpt>
      <trkpt lat="47.19941" lon="3.84766">
        <ele>396.8</ele>
      </trkpt>
      <trkpt lat="47.19933" lon="3.84717">
        <ele>396</ele>
        <time>2022-07-23T07:42:21Z</time>
      </trkpt>
      <trkpt lat="47.19914" lon="3.84729">
        <ele>396</ele>
        <time>2022-07-23T07:42:25Z</time>
      </trkpt>
      <trkpt lat="47.1989" lon="3.8475">
        <ele>396</ele>
        <time>2022-07-23T07:42:30Z</time>
      </trkpt>
      <trkpt lat="47.19865" lon="3.84784">
        <ele>395</ele>
        <time>2022-07-23T07:42:36Z</time>
      </trkpt>
      <trkpt lat="47.19774" lon="3.84971">
        <ele>398</ele>
        <time>2022-07-23T07:43:03Z</time>
      </trkpt>
      <trkpt lat="47.1969" lon="3.85154">
        <ele>391</ele>
        <time>2022-07-23T07:43:30Z</time>
      </trkpt>
      <trkpt lat="47.19664" lon="3.8519">
        <ele>389</ele>
        <time>2022-07-23T07:43:36Z</time>
      </trkpt>
      <trkpt lat="47.19653" lon="3.85199">
        <ele>389</ele>
        <time>2022-07-23T07:43:39Z</time>
      </trkpt>
      <trkpt lat="47.1964" lon="3.85204">
        <ele>389</ele>
        <time>2022-07-23T07:43:41Z</time>
      </trkpt>
      <trkpt lat="47.19608" lon="3.8521">
        <ele>388</ele>
        <time>2022-07-23T07:43:47Z</time>
      </trkpt>
      <trkpt lat="47.19483" lon="3.85224">
        <ele>392</ele>
        <time>2022-07-23T07:44:09Z</time>
      </trkpt>
      <trkpt lat="47.19469" lon="3.85223">
        <ele>392</ele>
        <time>2022-07-23T07:44:12Z</time>
      </trkpt>
      <trkpt lat="47.19461" lon="3.85221">
        <ele>392</ele>
        <time>2022-07-23T07:44:13Z</time>
      </trkpt>
      <trkpt lat="47.19453" lon="3.85215">
        <ele>392</ele>
        <time>2022-07-23T07:44:15Z</time>
      </trkpt>
      <trkpt lat="47.19445" lon="3.85206">
        <ele>392</ele>
        <time>2022-07-23T07:44:16Z</time>
      </trkpt>
      <trkpt lat="47.19434" lon="3.85187">
        <ele>392</ele>
        <time>2022-07-23T07:44:19Z</time>
      </trkpt>
      <trkpt lat="47.19412" lon="3.85132">
        <ele>393</ele>
        <time>2022-07-23T07:44:27Z</time>
      </trkpt>
      <trkpt lat="47.19365" lon="3.85137">
        <ele>393</ele>
        <time>2022-07-23T07:44:36Z</time>
      </trkpt>
      <trkpt lat="47.19304" lon="3.85152">
        <ele>390</ele>
        <time>2022-07-23T07:44:47Z</time>
      </trkpt>
      <trkpt lat="47.19234" lon="3.85184">
        <ele>383</ele>
        <time>2022-07-23T07:45:00Z</time>
      </trkpt>
      <trkpt lat="47.19158" lon="3.85205">
        <ele>374</ele>
        <time>2022-07-23T07:45:13Z</time>
      </trkpt>
      <trkpt lat="47.19128" lon="3.8522">
        <ele>371</ele>
        <time>2022-07-23T07:45:19Z</time>
      </trkpt>
      <trkpt lat="47.19074" lon="3.85251">
        <ele>365</ele>
        <time>2022-07-23T07:45:29Z</time>
      </trkpt>
      <trkpt lat="47.19036" lon="3.85276">
        <ele>362</ele>
        <time>2022-07-23T07:45:37Z</time>
      </trkpt>
      <trkpt lat="47.1891" lon="3.85381">
        <ele>349</ele>
        <time>2022-07-23T07:46:02Z</time>
      </trkpt>
      <trkpt lat="47.18887" lon="3.85392">
        <ele>346</ele>
        <time>2022-07-23T07:46:07Z</time>
      </trkpt>
      <trkpt lat="47.18873" lon="3.85374">
        <ele>345</ele>
        <time>2022-07-23T07:46:10Z</time>
      </trkpt>
      <trkpt lat="47.18863" lon="3.85353">
        <ele>345</ele>
        <time>2022-07-23T07:46:13Z</time>
      </trkpt>
      <trkpt lat="47.18858" lon="3.85339">
        <ele>345</ele>
        <time>2022-07-23T07:46:15Z</time>
      </trkpt>
      <trkpt lat="47.18853" lon="3.85316">
        <ele>347</ele>
        <time>2022-07-23T07:46:18Z</time>
      </trkpt>
      <trkpt lat="47.18845" lon="3.85296">
        <ele>351</ele>
        <time>2022-07-23T07:46:21Z</time>
      </trkpt>
      <trkpt lat="47.18843" lon="3.85295">
        <ele>351</ele>
        <time>2022-07-23T07:46:21Z</time>
      </trkpt>
      <trkpt lat="47.18839" lon="3.85293">
        <ele>351</ele>
        <time>2022-07-23T07:46:22Z</time>
      </trkpt>
      <trkpt lat="47.18825" lon="3.85293">
        <ele>350</ele>
        <time>2022-07-23T07:46:24Z</time>
      </trkpt>
      <trkpt lat="47.18782" lon="3.85309">
        <ele>341</ele>
        <time>2022-07-23T07:46:32Z</time>
      </trkpt>
      <trkpt lat="47.18773" lon="3.8531">
        <ele>340</ele>
        <time>2022-07-23T07:46:34Z</time>
      </trkpt>
      <trkpt lat="47.18762" lon="3.85308">
        <ele>339</ele>
        <time>2022-07-23T07:46:36Z</time>
      </trkpt>
      <trkpt lat="47.18732" lon="3.85293">
        <ele>338</ele>
        <time>2022-07-23T07:46:42Z</time>
      </trkpt>
      <trkpt lat="47.18714" lon="3.85291">
        <ele>336</ele>
        <time>2022-07-23T07:46:45Z</time>
      </trkpt>
      <trkpt lat="47.18701" lon="3.85292">
        <ele>334</ele>
        <time>2022-07-23T07:46:47Z</time>
      </trkpt>
      <trkpt lat="47.18661" lon="3.85302">
        <ele>327</ele>
        <time>2022-07-23T07:46:54Z</time>
      </trkpt>
      <trkpt lat="47.18639" lon="3.85302">
        <ele>324</ele>
        <time>2022-07-23T07:46:58Z</time>
      </trkpt>
      <trkpt lat="47.18622" lon="3.85299">
        <ele>322</ele>
        <time>2022-07-23T07:47:01Z</time>
      </trkpt>
      <trkpt lat="47.18603" lon="3.85292">
        <ele>320</ele>
        <time>2022-07-23T07:47:05Z</time>
      </trkpt>
      <trkpt lat="47.18585" lon="3.8528">
        <ele>318</ele>
        <time>2022-07-23T07:47:08Z</time>
      </trkpt>
      <trkpt lat="47.18469" lon="3.85191">
        <ele>311</ele>
        <time>2022-07-23T07:47:32Z</time>
      </trkpt>
      <trkpt lat="47.1841" lon="3.85159">
        <ele>307</ele>
        <time>2022-07-23T07:47:43Z</time>
      </trkpt>
      <trkpt lat="47.18372" lon="3.85128">
        <ele>304</ele>
        <time>2022-07-23T07:47:50Z</time>
      </trkpt>
      <trkpt lat="47.18278" lon="3.85084">
        <ele>299</ele>
        <time>2022-07-23T07:48:08Z</time>
      </trkpt>
      <trkpt lat="47.18263" lon="3.85082">
        <ele>298</ele>
        <time>2022-07-23T07:48:11Z</time>
      </trkpt>
      <trkpt lat="47.18253" lon="3.85083">
        <ele>297</ele>
        <time>2022-07-23T07:48:12Z</time>
      </trkpt>
      <trkpt lat="47.18245" lon="3.85088">
        <ele>297</ele>
        <time>2022-07-23T07:48:14Z</time>
      </trkpt>
      <trkpt lat="47.18219" lon="3.85119">
        <ele>299</ele>
        <time>2022-07-23T07:48:20Z</time>
      </trkpt>
      <trkpt lat="47.18212" lon="3.85125">
        <ele>300</ele>
        <time>2022-07-23T07:48:21Z</time>
      </trkpt>
      <trkpt lat="47.18207" lon="3.85127">
        <ele>300</ele>
        <time>2022-07-23T07:48:22Z</time>
      </trkpt>
      <trkpt lat="47.18185" lon="3.85126">
        <ele>300</ele>
        <time>2022-07-23T07:48:26Z</time>
      </trkpt>
      <trkpt lat="47.18163" lon="3.85136">
        <ele>301</ele>
        <time>2022-07-23T07:48:30Z</time>
      </trkpt>
      <trkpt lat="47.18145" lon="3.85154">
        <ele>304</ele>
        <time>2022-07-23T07:48:34Z</time>
      </trkpt>
      <trkpt lat="47.18108" lon="3.85199">
        <ele>311</ele>
        <time>2022-07-23T07:48:43Z</time>
      </trkpt>
      <trkpt lat="47.18091" lon="3.85205">
        <ele>311</ele>
        <time>2022-07-23T07:48:46Z</time>
      </trkpt>
      <trkpt lat="47.18043" lon="3.85206">
        <ele>310</ele>
        <time>2022-07-23T07:48:54Z</time>
      </trkpt>
      <trkpt lat="47.18023" lon="3.85215">
        <ele>311</ele>
        <time>2022-07-23T07:48:58Z</time>
      </trkpt>
      <trkpt lat="47.1801" lon="3.85228">
        <ele>312</ele>
        <time>2022-07-23T07:49:01Z</time>
      </trkpt>
      <trkpt lat="47.17986" lon="3.85271">
        <ele>313</ele>
        <time>2022-07-23T07:49:08Z</time>
      </trkpt>
      <trkpt lat="47.17973" lon="3.85298">
        <ele>313</ele>
        <time>2022-07-23T07:49:12Z</time>
      </trkpt>
      <trkpt lat="47.17967" lon="3.85308">
        <ele>313</ele>
        <time>2022-07-23T07:49:13Z</time>
      </trkpt>
      <trkpt lat="47.17936" lon="3.85342">
        <ele>313</ele>
        <time>2022-07-23T07:49:20Z</time>
      </trkpt>
      <trkpt lat="47.17912" lon="3.85362">
        <ele>313</ele>
        <time>2022-07-23T07:49:25Z</time>
      </trkpt>
      <trkpt lat="47.17881" lon="3.85382">
        <ele>314</ele>
        <time>2022-07-23T07:49:31Z</time>
      </trkpt>
      <trkpt lat="47.17863" lon="3.85397">
        <ele>316</ele>
        <time>2022-07-23T07:49:35Z</time>
      </trkpt>
      <trkpt lat="47.1773" lon="3.85543">
        <ele>325</ele>
        <time>2022-07-23T07:50:04Z</time>
      </trkpt>
      <trkpt lat="47.17711" lon="3.85555">
        <ele>327</ele>
        <time>2022-07-23T07:50:08Z</time>
      </trkpt>
      <trkpt lat="47.17672" lon="3.85565">
        <ele>330</ele>
        <time>2022-07-23T07:50:15Z</time>
      </trkpt>
      <trkpt lat="47.17655" lon="3.85574">
        <ele>330</ele>
        <time>2022-07-23T07:50:18Z</time>
      </trkpt>
      <trkpt lat="47.17601" lon="3.85612">
        <ele>335</ele>
        <time>2022-07-23T07:50:29Z</time>
      </trkpt>
      <trkpt lat="47.17573" lon="3.85637">
        <ele>337</ele>
        <time>2022-07-23T07:50:35Z</time>
      </trkpt>
      <trkpt lat="47.17565" lon="3.85646">
        <ele>338</ele>
        <time>2022-07-23T07:50:37Z</time>
      </trkpt>
      <trkpt lat="47.17555" lon="3.85662">
        <ele>339</ele>
        <time>2022-07-23T07:50:39Z</time>
      </trkpt>
      <trkpt lat="47.17519" lon="3.85729">
        <ele>343</ele>
        <time>2022-07-23T07:50:49Z</time>
      </trkpt>
      <trkpt lat="47.17507" lon="3.85747">
        <ele>344</ele>
        <time>2022-07-23T07:50:53Z</time>
      </trkpt>
      <trkpt lat="47.17474" lon="3.85784">
        <ele>347</ele>
        <time>2022-07-23T07:51:00Z</time>
      </trkpt>
      <trkpt lat="47.17462" lon="3.85796">
        <ele>347</ele>
        <time>2022-07-23T07:51:02Z</time>
      </trkpt>
      <trkpt lat="47.17415" lon="3.85831">
        <ele>348</ele>
        <time>2022-07-23T07:51:12Z</time>
      </trkpt>
      <trkpt lat="47.17358" lon="3.8589">
        <ele>350</ele>
        <time>2022-07-23T07:51:24Z</time>
      </trkpt>
      <trkpt lat="47.17333" lon="3.85906">
        <ele>350</ele>
        <time>2022-07-23T07:51:29Z</time>
      </trkpt>
      <trkpt lat="47.17294" lon="3.85915">
        <ele>351</ele>
        <time>2022-07-23T07:51:36Z</time>
      </trkpt>
      <trkpt lat="47.17278" lon="3.85912">
        <ele>351</ele>
        <time>2022-07-23T07:51:39Z</time>
      </trkpt>
      <trkpt lat="47.17266" lon="3.85913">
        <ele>352</ele>
        <time>2022-07-23T07:51:41Z</time>
      </trkpt>
      <trkpt lat="47.1725" lon="3.85922">
        <ele>352</ele>
        <time>2022-07-23T07:51:44Z</time>
      </trkpt>
      <trkpt lat="47.17218" lon="3.85953">
        <ele>350</ele>
        <time>2022-07-23T07:51:51Z</time>
      </trkpt>
      <trkpt lat="47.17198" lon="3.85964">
        <ele>349</ele>
        <time>2022-07-23T07:51:55Z</time>
      </trkpt>
      <trkpt lat="47.17145" lon="3.86005">
        <ele>344</ele>
        <time>2022-07-23T07:52:05Z</time>
      </trkpt>
      <trkpt lat="47.17105" lon="3.86029">
        <ele>338</ele>
        <time>2022-07-23T07:52:13Z</time>
      </trkpt>
      <trkpt lat="47.16959" lon="3.86108">
        <ele>315</ele>
        <time>2022-07-23T07:52:41Z</time>
      </trkpt>
      <trkpt lat="47.1693" lon="3.86131">
        <ele>310</ele>
        <time>2022-07-23T07:52:47Z</time>
      </trkpt>
      <trkpt lat="47.16897" lon="3.86164">
        <ele>304</ele>
        <time>2022-07-23T07:52:54Z</time>
      </trkpt>
      <trkpt lat="47.16855" lon="3.86214">
        <ele>298</ele>
        <time>2022-07-23T07:53:03Z</time>
      </trkpt>
      <trkpt lat="47.16843" lon="3.86224">
        <ele>297</ele>
        <time>2022-07-23T07:53:06Z</time>
      </trkpt>
      <trkpt lat="47.16823" lon="3.86231">
        <ele>295</ele>
        <time>2022-07-23T07:53:10Z</time>
      </trkpt>
      <trkpt lat="47.16798" lon="3.86229">
        <ele>293</ele>
        <time>2022-07-23T07:53:14Z</time>
      </trkpt>
      <trkpt lat="47.16774" lon="3.86222">
        <ele>292</ele>
        <time>2022-07-23T07:53:18Z</time>
      </trkpt>
      <trkpt lat="47.16766" lon="3.86234">
        <ele>291</ele>
        <time>2022-07-23T07:53:20Z</time>
      </trkpt>
      <trkpt lat="47.1675" lon="3.86268">
        <ele>288</ele>
        <time>2022-07-23T07:53:25Z</time>
      </trkpt>
      <trkpt lat="47.16722" lon="3.86341">
        <ele>284</ele>
        <time>2022-07-23T07:53:35Z</time>
      </trkpt>
      <trkpt lat="47.16715" lon="3.86352">
        <ele>283</ele>
        <time>2022-07-23T07:53:37Z</time>
      </trkpt>
      <trkpt lat="47.16693" lon="3.86379">
        <ele>280</ele>
        <time>2022-07-23T07:53:42Z</time>
      </trkpt>
      <trkpt lat="47.16714" lon="3.86405">
        <ele>282</ele>
        <time>2022-07-23T07:53:47Z</time>
      </trkpt>
      <trkpt lat="47.16725" lon="3.86431">
        <ele>284</ele>
        <time>2022-07-23T07:53:51Z</time>
      </trkpt>
      <trkpt lat="47.16731" lon="3.86462">
        <ele>287</ele>
        <time>2022-07-23T07:53:55Z</time>
      </trkpt>
      <trkpt lat="47.16738" lon="3.86619">
        <ele>293</ele>
        <time>2022-07-23T07:54:14Z</time>
      </trkpt>
      <trkpt lat="47.16736" lon="3.86727">
        <ele>294</ele>
        <time>2022-07-23T07:54:27Z</time>
      </trkpt>
      <trkpt lat="47.16744" lon="3.86745">
        <ele>295</ele>
        <time>2022-07-23T07:54:30Z</time>
      </trkpt>
      <trkpt lat="47.16803" lon="3.8683">
        <ele>304</ele>
        <time>2022-07-23T07:54:44Z</time>
      </trkpt>
      <trkpt lat="47.16811" lon="3.86844">
        <ele>306</ele>
        <time>2022-07-23T07:54:47Z</time>
      </trkpt>
      <trkpt lat="47.16813" lon="3.86858">
        <ele>306</ele>
        <time>2022-07-23T07:54:48Z</time>
      </trkpt>
      <trkpt lat="47.16817" lon="3.86976">
        <ele>312</ele>
        <time>2022-07-23T07:55:03Z</time>
      </trkpt>
      <trkpt lat="47.16829" lon="3.87104">
        <ele>318</ele>
        <time>2022-07-23T07:55:18Z</time>
      </trkpt>
      <trkpt lat="47.16828" lon="3.87147">
        <ele>318</ele>
        <time>2022-07-23T07:55:23Z</time>
      </trkpt>
      <trkpt lat="47.16815" lon="3.87276">
        <ele>324</ele>
        <time>2022-07-23T07:55:39Z</time>
      </trkpt>
      <trkpt lat="47.16808" lon="3.87325">
        <ele>328</ele>
        <time>2022-07-23T07:55:45Z</time>
      </trkpt>
      <trkpt lat="47.16795" lon="3.87355">
        <ele>329</ele>
        <time>2022-07-23T07:55:50Z</time>
      </trkpt>
      <trkpt lat="47.16748" lon="3.874">
        <ele>328</ele>
        <time>2022-07-23T07:55:59Z</time>
      </trkpt>
      <trkpt lat="47.16742" lon="3.87442">
        <ele>328</ele>
        <time>2022-07-23T07:56:05Z</time>
      </trkpt>
      <trkpt lat="47.16754" lon="3.87506">
        <ele>329</ele>
        <time>2022-07-23T07:56:13Z</time>
      </trkpt>
      <trkpt lat="47.16759" lon="3.87528">
        <ele>327</ele>
        <time>2022-07-23T07:56:16Z</time>
      </trkpt>
      <trkpt lat="47.16786" lon="3.87543">
        <ele>331</ele>
        <time>2022-07-23T07:56:21Z</time>
      </trkpt>
      <trkpt lat="47.16837" lon="3.87581">
        <ele>337</ele>
        <time>2022-07-23T07:56:31Z</time>
      </trkpt>
      <trkpt lat="47.16849" lon="3.87615">
        <ele>334</ele>
        <time>2022-07-23T07:56:35Z</time>
      </trkpt>
      <trkpt lat="47.16846" lon="3.87836">
        <ele>323</ele>
        <time>2022-07-23T07:57:02Z</time>
      </trkpt>
      <trkpt lat="47.16841" lon="3.87888">
        <ele>322</ele>
        <time>2022-07-23T07:57:09Z</time>
      </trkpt>
      <trkpt lat="47.16829" lon="3.87914">
        <ele>321</ele>
        <time>2022-07-23T07:57:12Z</time>
      </trkpt>
      <trkpt lat="47.16815" lon="3.87923">
        <ele>323</ele>
        <time>2022-07-23T07:57:15Z</time>
      </trkpt>
      <trkpt lat="47.16792" lon="3.87931">
        <ele>327</ele>
        <time>2022-07-23T07:57:19Z</time>
      </trkpt>
      <trkpt lat="47.16767" lon="3.87915">
        <ele>329</ele>
        <time>2022-07-23T07:57:24Z</time>
      </trkpt>
      <trkpt lat="47.16748" lon="3.87885">
        <ele>328</ele>
        <time>2022-07-23T07:57:29Z</time>
      </trkpt>
      <trkpt lat="47.16742" lon="3.87845">
        <ele>326</ele>
        <time>2022-07-23T07:57:34Z</time>
      </trkpt>
      <trkpt lat="47.16728" lon="3.878">
        <ele>327</ele>
        <time>2022-07-23T07:57:40Z</time>
      </trkpt>
      <trkpt lat="47.16703" lon="3.87757">
        <ele>331</ele>
        <time>2022-07-23T07:57:47Z</time>
      </trkpt>
      <trkpt lat="47.16656" lon="3.87705">
        <ele>334</ele>
        <time>2022-07-23T07:57:57Z</time>
      </trkpt>
      <trkpt lat="47.16592" lon="3.87646">
        <ele>339</ele>
        <time>2022-07-23T07:58:11Z</time>
      </trkpt>
      <trkpt lat="47.16579" lon="3.87628">
        <ele>338</ele>
        <time>2022-07-23T07:58:14Z</time>
      </trkpt>
      <trkpt lat="47.16573" lon="3.87608">
        <ele>335</ele>
        <time>2022-07-23T07:58:17Z</time>
      </trkpt>
      <trkpt lat="47.16562" lon="3.87595">
        <ele>332</ele>
        <time>2022-07-23T07:58:19Z</time>
      </trkpt>
      <trkpt lat="47.16546" lon="3.87586">
        <ele>330</ele>
        <time>2022-07-23T07:58:22Z</time>
      </trkpt>
      <trkpt lat="47.16531" lon="3.87586">
        <ele>330</ele>
        <time>2022-07-23T07:58:25Z</time>
      </trkpt>
      <trkpt lat="47.16518" lon="3.87593">
        <ele>330</ele>
        <time>2022-07-23T07:58:27Z</time>
      </trkpt>
      <trkpt lat="47.16482" lon="3.87636">
        <ele>334</ele>
        <time>2022-07-23T07:58:36Z</time>
      </trkpt>
      <trkpt lat="47.16442" lon="3.87677">
        <ele>333</ele>
        <time>2022-07-23T07:58:44Z</time>
      </trkpt>
      <trkpt lat="47.16435" lon="3.8768">
        <ele>332</ele>
        <time>2022-07-23T07:58:46Z</time>
      </trkpt>
      <trkpt lat="47.1643" lon="3.87676">
        <ele>330</ele>
        <time>2022-07-23T07:58:47Z</time>
      </trkpt>
      <trkpt lat="47.16428" lon="3.8767">
        <ele>329</ele>
        <time>2022-07-23T07:58:47Z</time>
      </trkpt>
      <trkpt lat="47.16458" lon="3.87645">
        <ele>332</ele>
        <time>2022-07-23T07:58:53Z</time>
      </trkpt>
      <trkpt lat="47.16471" lon="3.8763">
        <ele>332</ele>
        <time>2022-07-23T07:58:56Z</time>
      </trkpt>
      <trkpt lat="47.16512" lon="3.87578">
        <ele>327</ele>
        <time>2022-07-23T07:59:06Z</time>
      </trkpt>
      <trkpt lat="47.16515" lon="3.87568">
        <ele>326</ele>
        <time>2022-07-23T07:59:07Z</time>
      </trkpt>
      <trkpt lat="47.16515" lon="3.8756">
        <ele>324</ele>
        <time>2022-07-23T07:59:08Z</time>
      </trkpt>
      <trkpt lat="47.16513" lon="3.87556">
        <ele>324</ele>
        <time>2022-07-23T07:59:09Z</time>
      </trkpt>
      <trkpt lat="47.16413" lon="3.87445">
        <ele>294</ele>
        <time>2022-07-23T07:59:31Z</time>
      </trkpt>
      <trkpt lat="47.16513" lon="3.87556">
        <ele>324</ele>
        <time>2022-07-23T07:59:54Z</time>
      </trkpt>
      <trkpt lat="47.16515" lon="3.8756">
        <ele>324</ele>
        <time>2022-07-23T07:59:54Z</time>
      </trkpt>
      <trkpt lat="47.16515" lon="3.87568">
        <ele>326</ele>
        <time>2022-07-23T07:59:55Z</time>
      </trkpt>
      <trkpt lat="47.16512" lon="3.87578">
        <ele>327</ele>
        <time>2022-07-23T07:59:56Z</time>
      </trkpt>
      <trkpt lat="47.16471" lon="3.8763">
        <ele>332</ele>
        <time>2022-07-23T08:00:06Z</time>
      </trkpt>
      <trkpt lat="47.16458" lon="3.87645">
        <ele>332</ele>
        <time>2022-07-23T08:00:09Z</time>
      </trkpt>
      <trkpt lat="47.16422" lon="3.87676">
        <ele>329</ele>
        <time>2022-07-23T08:00:16Z</time>
      </trkpt>
      <trkpt lat="47.16407" lon="3.87698">
        <ele>329</ele>
        <time>2022-07-23T08:00:20Z</time>
      </trkpt>
      <trkpt lat="47.16364" lon="3.87774">
        <ele>330</ele>
        <time>2022-07-23T08:00:32Z</time>
      </trkpt>
      <trkpt lat="47.1634" lon="3.87822">
        <ele>329</ele>
        <time>2022-07-23T08:00:39Z</time>
      </trkpt>
      <trkpt lat="47.16317" lon="3.87897">
        <ele>329</ele>
        <time>2022-07-23T08:00:49Z</time>
      </trkpt>
      <trkpt lat="47.1631" lon="3.87949">
        <ele>331</ele>
        <time>2022-07-23T08:00:56Z</time>
      </trkpt>
      <trkpt lat="47.16304" lon="3.87966">
        <ele>331</ele>
        <time>2022-07-23T08:00:58Z</time>
      </trkpt>
      <trkpt lat="47.1629" lon="3.87998">
        <ele>332</ele>
        <time>2022-07-23T08:01:03Z</time>
      </trkpt>
      <trkpt lat="47.16255" lon="3.88115">
        <ele>331</ele>
        <time>2022-07-23T08:01:18Z</time>
      </trkpt>
      <trkpt lat="47.16248" lon="3.88128">
        <ele>331</ele>
        <time>2022-07-23T08:01:20Z</time>
      </trkpt>
      <trkpt lat="47.16237" lon="3.88141">
        <ele>333</ele>
        <time>2022-07-23T08:01:23Z</time>
      </trkpt>
      <trkpt lat="47.16225" lon="3.88145">
        <ele>334</ele>
        <time>2022-07-23T08:01:25Z</time>
      </trkpt>
      <trkpt lat="47.1621" lon="3.88143">
        <ele>334</ele>
        <time>2022-07-23T08:01:27Z</time>
      </trkpt>
      <trkpt lat="47.16197" lon="3.88138">
        <ele>334</ele>
        <time>2022-07-23T08:01:30Z</time>
      </trkpt>
      <trkpt lat="47.16143" lon="3.88086">
        <ele>331</ele>
        <time>2022-07-23T08:01:41Z</time>
      </trkpt>
      <trkpt lat="47.1613" lon="3.88078">
        <ele>330</ele>
        <time>2022-07-23T08:01:44Z</time>
      </trkpt>
      <trkpt lat="47.1611" lon="3.88079">
        <ele>330</ele>
        <time>2022-07-23T08:01:47Z</time>
      </trkpt>
      <trkpt lat="47.16053" lon="3.88098">
        <ele>331</ele>
        <time>2022-07-23T08:01:58Z</time>
      </trkpt>
      <trkpt lat="47.1603" lon="3.88115">
        <ele>331</ele>
        <time>2022-07-23T08:02:02Z</time>
      </trkpt>
      <trkpt lat="47.16015" lon="3.8813">
        <ele>331</ele>
        <time>2022-07-23T08:02:06Z</time>
      </trkpt>
      <trkpt lat="47.15953" lon="3.88212">
        <ele>331</ele>
        <time>2022-07-23T08:02:20Z</time>
      </trkpt>
      <trkpt lat="47.15942" lon="3.88231">
        <ele>331</ele>
        <time>2022-07-23T08:02:23Z</time>
      </trkpt>
      <trkpt lat="47.15936" lon="3.88254">
        <ele>331</ele>
        <time>2022-07-23T08:02:26Z</time>
      </trkpt>
      <trkpt lat="47.15902" lon="3.88433">
        <ele>327</ele>
        <time>2022-07-23T08:02:49Z</time>
      </trkpt>
      <trkpt lat="47.15859" lon="3.88586">
        <ele>331</ele>
        <time>2022-07-23T08:03:09Z</time>
      </trkpt>
      <trkpt lat="47.15839" lon="3.88643">
        <ele>332</ele>
        <time>2022-07-23T08:03:17Z</time>
      </trkpt>
      <trkpt lat="47.15821" lon="3.88674">
        <ele>332</ele>
        <time>2022-07-23T08:03:22Z</time>
      </trkpt>
      <trkpt lat="47.15803" lon="3.88698">
        <ele>330</ele>
        <time>2022-07-23T08:03:26Z</time>
      </trkpt>
      <trkpt lat="47.1579" lon="3.88735">
        <ele>329</ele>
        <time>2022-07-23T08:03:31Z</time>
      </trkpt>
      <trkpt lat="47.15791" lon="3.88762">
        <ele>328</ele>
        <time>2022-07-23T08:03:34Z</time>
      </trkpt>
      <trkpt lat="47.15793" lon="3.88772">
        <ele>328</ele>
        <time>2022-07-23T08:03:36Z</time>
      </trkpt>
      <trkpt lat="47.15797" lon="3.88782">
        <ele>328</ele>
        <time>2022-07-23T08:03:37Z</time>
      </trkpt>
      <trkpt lat="47.15821" lon="3.8882">
        <ele>329</ele>
        <time>2022-07-23T08:03:43Z</time>
      </trkpt>
      <trkpt lat="47.15828" lon="3.88837">
        <ele>329</ele>
        <time>2022-07-23T08:03:46Z</time>
      </trkpt>
      <trkpt lat="47.15831" lon="3.88855">
        <ele>328</ele>
        <time>2022-07-23T08:03:48Z</time>
      </trkpt>
      <trkpt lat="47.15852" lon="3.89055">
        <ele>326</ele>
        <time>2022-07-23T08:04:12Z</time>
      </trkpt>
      <trkpt lat="47.15848" lon="3.89085">
        <ele>325</ele>
        <time>2022-07-23T08:04:16Z</time>
      </trkpt>
      <trkpt lat="47.15844" lon="3.89099">
        <ele>325</ele>
        <time>2022-07-23T08:04:18Z</time>
      </trkpt>
      <trkpt lat="47.15785" lon="3.89206">
        <ele>326</ele>
        <time>2022-07-23T08:04:35Z</time>
      </trkpt>
      <trkpt lat="47.15773" lon="3.89234">
        <ele>326</ele>
        <time>2022-07-23T08:04:39Z</time>
      </trkpt>
      <trkpt lat="47.15766" lon="3.89263">
        <ele>325</ele>
        <time>2022-07-23T08:04:42Z</time>
      </trkpt>
      <trkpt lat="47.15763" lon="3.89283">
        <ele>325</ele>
        <time>2022-07-23T08:04:45Z</time>
      </trkpt>
      <trkpt lat="47.15764" lon="3.89306">
        <ele>325</ele>
        <time>2022-07-23T08:04:48Z</time>
      </trkpt>
      <trkpt lat="47.1577" lon="3.89339">
        <ele>325</ele>
        <time>2022-07-23T08:04:52Z</time>
      </trkpt>
      <trkpt lat="47.15785" lon="3.89403">
        <ele>326</ele>
        <time>2022-07-23T08:05:00Z</time>
      </trkpt>
      <trkpt lat="47.15792" lon="3.89425">
        <ele>326</ele>
        <time>2022-07-23T08:05:03Z</time>
      </trkpt>
      <trkpt lat="47.15799" lon="3.8944">
        <ele>326</ele>
        <time>2022-07-23T08:05:05Z</time>
      </trkpt>
      <trkpt lat="47.15811" lon="3.89457">
        <ele>326</ele>
        <time>2022-07-23T08:05:08Z</time>
      </trkpt>
      <trkpt lat="47.15845" lon="3.89502">
        <ele>325</ele>
        <time>2022-07-23T08:05:16Z</time>
      </trkpt>
      <trkpt lat="47.15877" lon="3.89542">
        <ele>325</ele>
        <time>2022-07-23T08:05:24Z</time>
      </trkpt>
      <trkpt lat="47.15888" lon="3.89561">
        <ele>324</ele>
        <time>2022-07-23T08:05:27Z</time>
      </trkpt>
      <trkpt lat="47.15892" lon="3.89571">
        <ele>324</ele>
        <time>2022-07-23T08:05:28Z</time>
      </trkpt>
      <trkpt lat="47.15897" lon="3.89598">
        <ele>325</ele>
        <time>2022-07-23T08:05:31Z</time>
      </trkpt>
      <trkpt lat="47.15917" lon="3.89796">
        <ele>326</ele>
        <time>2022-07-23T08:05:56Z</time>
      </trkpt>
      <trkpt lat="47.15917" lon="3.89848">
        <ele>325</ele>
        <time>2022-07-23T08:06:02Z</time>
      </trkpt>
      <trkpt lat="47.15914" lon="3.89865">
        <ele>326</ele>
        <time>2022-07-23T08:06:04Z</time>
      </trkpt>
      <trkpt lat="47.15909" lon="3.89882">
        <ele>326</ele>
        <time>2022-07-23T08:06:06Z</time>
      </trkpt>
      <trkpt lat="47.15898" lon="3.89904">
        <ele>326</ele>
        <time>2022-07-23T08:06:10Z</time>
      </trkpt>
      <trkpt lat="47.15881" lon="3.89924">
        <ele>326</ele>
        <time>2022-07-23T08:06:13Z</time>
      </trkpt>
      <trkpt lat="47.15818" lon="3.89969">
        <ele>327</ele>
        <time>2022-07-23T08:06:26Z</time>
      </trkpt>
      <trkpt lat="47.15805" lon="3.89982">
        <ele>327</ele>
        <time>2022-07-23T08:06:29Z</time>
      </trkpt>
      <trkpt lat="47.15794" lon="3.90001">
        <ele>327</ele>
        <time>2022-07-23T08:06:32Z</time>
      </trkpt>
      <trkpt lat="47.15787" lon="3.90025">
        <ele>328</ele>
        <time>2022-07-23T08:06:35Z</time>
      </trkpt>
      <trkpt lat="47.15784" lon="3.90053">
        <ele>329</ele>
        <time>2022-07-23T08:06:38Z</time>
      </trkpt>
      <trkpt lat="47.15783" lon="3.90078">
        <ele>330</ele>
        <time>2022-07-23T08:06:41Z</time>
      </trkpt>
      <trkpt lat="47.15785" lon="3.90096">
        <ele>331</ele>
        <time>2022-07-23T08:06:44Z</time>
      </trkpt>
      <trkpt lat="47.15792" lon="3.90121">
        <ele>331</ele>
        <time>2022-07-23T08:06:47Z</time>
      </trkpt>
      <trkpt lat="47.15799" lon="3.90136">
        <ele>332</ele>
        <time>2022-07-23T08:06:49Z</time>
      </trkpt>
      <trkpt lat="47.15814" lon="3.90157">
        <ele>333</ele>
        <time>2022-07-23T08:06:53Z</time>
      </trkpt>
      <trkpt lat="47.15839" lon="3.90187">
        <ele>335</ele>
        <time>2022-07-23T08:06:58Z</time>
      </trkpt>
      <trkpt lat="47.15868" lon="3.90226">
        <ele>337</ele>
        <time>2022-07-23T08:07:05Z</time>
      </trkpt>
      <trkpt lat="47.15905" lon="3.90282">
        <ele>338</ele>
        <time>2022-07-23T08:07:15Z</time>
      </trkpt>
      <trkpt lat="47.15912" lon="3.90307">
        <ele>335</ele>
        <time>2022-07-23T08:07:18Z</time>
      </trkpt>
      <trkpt lat="47.15913" lon="3.90323">
        <ele>333</ele>
        <time>2022-07-23T08:07:20Z</time>
      </trkpt>
      <trkpt lat="47.15909" lon="3.90334">
        <ele>331</ele>
        <time>2022-07-23T08:07:22Z</time>
      </trkpt>
      <trkpt lat="47.15906" lon="3.90344">
        <ele>330</ele>
        <time>2022-07-23T08:07:23Z</time>
      </trkpt>
      <trkpt lat="47.15832" lon="3.90445">
        <ele>328</ele>
        <time>2022-07-23T08:07:41Z</time>
      </trkpt>
      <trkpt lat="47.15827" lon="3.90447">
        <ele>330</ele>
        <time>2022-07-23T08:07:42Z</time>
      </trkpt>
      <trkpt lat="47.15786" lon="3.9043">
        <ele>334</ele>
        <time>2022-07-23T08:07:49Z</time>
      </trkpt>
      <trkpt lat="47.15776" lon="3.90422">
        <ele>334</ele>
        <time>2022-07-23T08:07:51Z</time>
      </trkpt>
      <trkpt lat="47.1576" lon="3.90402">
        <ele>334</ele>
        <time>2022-07-23T08:07:55Z</time>
      </trkpt>
      <trkpt lat="47.15751" lon="3.90394">
        <ele>334</ele>
        <time>2022-07-23T08:07:57Z</time>
      </trkpt>
      <trkpt lat="47.15719" lon="3.90372">
        <ele>335</ele>
        <time>2022-07-23T08:08:03Z</time>
      </trkpt>
      <trkpt lat="47.15644" lon="3.90338">
        <ele>336</ele>
        <time>2022-07-23T08:08:17Z</time>
      </trkpt>
      <trkpt lat="47.15564" lon="3.90279">
        <ele>335</ele>
        <time>2022-07-23T08:08:33Z</time>
      </trkpt>
      <trkpt lat="47.15483" lon="3.90209">
        <ele>334</ele>
        <time>2022-07-23T08:08:50Z</time>
      </trkpt>
      <trkpt lat="47.15289" lon="3.90019">
        <ele>330</ele>
        <time>2022-07-23T08:09:31Z</time>
      </trkpt>
      <trkpt lat="47.15232" lon="3.89991">
        <ele>328</ele>
        <time>2022-07-23T08:09:42Z</time>
      </trkpt>
      <trkpt lat="47.15179" lon="3.90003">
        <ele>329</ele>
        <time>2022-07-23T08:09:52Z</time>
      </trkpt>
      <trkpt lat="47.1514" lon="3.90037">
        <ele>330</ele>
        <time>2022-07-23T08:10:00Z</time>
      </trkpt>
      <trkpt lat="47.1508" lon="3.90099">
        <ele>330</ele>
        <time>2022-07-23T08:10:13Z</time>
      </trkpt>
      <trkpt lat="47.15042" lon="3.90132">
        <ele>332</ele>
        <time>2022-07-23T08:10:21Z</time>
      </trkpt>
      <trkpt lat="47.1499" lon="3.90141">
        <ele>330</ele>
        <time>2022-07-23T08:10:30Z</time>
      </trkpt>
      <trkpt lat="47.14964" lon="3.90175">
        <ele>332</ele>
        <time>2022-07-23T08:10:36Z</time>
      </trkpt>
      <trkpt lat="47.14923" lon="3.90255">
        <ele>333</ele>
        <time>2022-07-23T08:10:48Z</time>
      </trkpt>
      <trkpt lat="47.14906" lon="3.903">
        <ele>334</ele>
        <time>2022-07-23T08:10:54Z</time>
      </trkpt>
      <trkpt lat="47.14903" lon="3.90318">
        <ele>336</ele>
        <time>2022-07-23T08:10:57Z</time>
      </trkpt>
      <trkpt lat="47.14899" lon="3.90354">
        <ele>338</ele>
        <time>2022-07-23T08:11:01Z</time>
      </trkpt>
      <trkpt lat="47.14895" lon="3.90369">
        <ele>340</ele>
        <time>2022-07-23T08:11:03Z</time>
      </trkpt>
      <trkpt lat="47.14884" lon="3.90384">
        <ele>340</ele>
        <time>2022-07-23T08:11:06Z</time>
      </trkpt>
      <trkpt lat="47.14875" lon="3.9039">
        <ele>341</ele>
        <time>2022-07-23T08:11:07Z</time>
      </trkpt>
      <trkpt lat="47.14852" lon="3.90397">
        <ele>340</ele>
        <time>2022-07-23T08:11:12Z</time>
      </trkpt>
      <trkpt lat="47.14826" lon="3.90399">
        <ele>339</ele>
        <time>2022-07-23T08:11:16Z</time>
      </trkpt>
      <trkpt lat="47.14788" lon="3.90407">
        <ele>340</ele>
        <time>2022-07-23T08:11:23Z</time>
      </trkpt>
      <trkpt lat="47.14744" lon="3.90424">
        <ele>340</ele>
        <time>2022-07-23T08:11:31Z</time>
      </trkpt>
      <trkpt lat="47.14721" lon="3.90441">
        <ele>340</ele>
        <time>2022-07-23T08:11:36Z</time>
      </trkpt>
      <trkpt lat="47.1471" lon="3.90455">
        <ele>341</ele>
        <time>2022-07-23T08:11:38Z</time>
      </trkpt>
      <trkpt lat="47.14701" lon="3.90485">
        <ele>343</ele>
        <time>2022-07-23T08:11:42Z</time>
      </trkpt>
      <trkpt lat="47.14702" lon="3.9052">
        <ele>344</ele>
        <time>2022-07-23T08:11:47Z</time>
      </trkpt>
      <trkpt lat="47.14716" lon="3.90556">
        <ele>344</ele>
        <time>2022-07-23T08:11:52Z</time>
      </trkpt>
      <trkpt lat="47.14758" lon="3.90603">
        <ele>350</ele>
        <time>2022-07-23T08:12:01Z</time>
      </trkpt>
      <trkpt lat="47.14767" lon="3.90619">
        <ele>351</ele>
        <time>2022-07-23T08:12:04Z</time>
      </trkpt>
      <trkpt lat="47.14774" lon="3.90638">
        <ele>352</ele>
        <time>2022-07-23T08:12:06Z</time>
      </trkpt>
      <trkpt lat="47.14778" lon="3.90657">
        <ele>353</ele>
        <time>2022-07-23T08:12:09Z</time>
      </trkpt>
      <trkpt lat="47.1478" lon="3.9068">
        <ele>355</ele>
        <time>2022-07-23T08:12:11Z</time>
      </trkpt>
      <trkpt lat="47.14779" lon="3.90704">
        <ele>356</ele>
        <time>2022-07-23T08:12:14Z</time>
      </trkpt>
      <trkpt lat="47.1476" lon="3.90778">
        <ele>357</ele>
        <time>2022-07-23T08:12:24Z</time>
      </trkpt>
      <trkpt lat="47.14636" lon="3.90892">
        <ele>349</ele>
        <time>2022-07-23T08:12:50Z</time>
      </trkpt>
      <trkpt lat="47.14604" lon="3.90938">
        <ele>349</ele>
        <time>2022-07-23T08:12:58Z</time>
      </trkpt>
      <trkpt lat="47.14579" lon="3.90992">
        <ele>349</ele>
        <time>2022-07-23T08:13:06Z</time>
      </trkpt>
      <trkpt lat="47.14561" lon="3.91039">
        <ele>350</ele>
        <time>2022-07-23T08:13:12Z</time>
      </trkpt>
      <trkpt lat="47.1449" lon="3.91153">
        <ele>351</ele>
        <time>2022-07-23T08:13:31Z</time>
      </trkpt>
      <trkpt lat="47.14471" lon="3.91175">
        <ele>352</ele>
        <time>2022-07-23T08:13:35Z</time>
      </trkpt>
      <trkpt lat="47.14442" lon="3.91188">
        <ele>351</ele>
        <time>2022-07-23T08:13:41Z</time>
      </trkpt>
      <trkpt lat="47.14437" lon="3.91193">
        <ele>351</ele>
        <time>2022-07-23T08:13:42Z</time>
      </trkpt>
      <trkpt lat="47.14429" lon="3.91208">
        <ele>352</ele>
        <time>2022-07-23T08:13:44Z</time>
      </trkpt>
      <trkpt lat="47.14418" lon="3.91255">
        <ele>354</ele>
        <time>2022-07-23T08:13:50Z</time>
      </trkpt>
      <trkpt lat="47.14389" lon="3.91307">
        <ele>347</ele>
        <time>2022-07-23T08:13:58Z</time>
      </trkpt>
      <trkpt lat="47.14386" lon="3.91321">
        <ele>346</ele>
        <time>2022-07-23T08:14:00Z</time>
      </trkpt>
      <trkpt lat="47.14388" lon="3.91335">
        <ele>346</ele>
        <time>2022-07-23T08:14:02Z</time>
      </trkpt>
      <trkpt lat="47.14391" lon="3.91345">
        <ele>346</ele>
        <time>2022-07-23T08:14:03Z</time>
      </trkpt>
      <trkpt lat="47.14423" lon="3.91383">
        <ele>347</ele>
        <time>2022-07-23T08:14:10Z</time>
      </trkpt>
      <trkpt lat="47.1443" lon="3.9141">
        <ele>347</ele>
        <time>2022-07-23T08:14:14Z</time>
      </trkpt>
      <trkpt lat="47.14429" lon="3.91438">
        <ele>347</ele>
        <time>2022-07-23T08:14:17Z</time>
      </trkpt>
      <trkpt lat="47.14418" lon="3.91492">
        <ele>346</ele>
        <time>2022-07-23T08:14:24Z</time>
      </trkpt>
      <trkpt lat="47.14415" lon="3.9153">
        <ele>346</ele>
        <time>2022-07-23T08:14:29Z</time>
      </trkpt>
      <trkpt lat="47.14419" lon="3.91564">
        <ele>347</ele>
        <time>2022-07-23T08:14:33Z</time>
      </trkpt>
      <trkpt lat="47.14443" lon="3.91635">
        <ele>347</ele>
        <time>2022-07-23T08:14:42Z</time>
      </trkpt>
      <trkpt lat="47.14452" lon="3.91668">
        <ele>347</ele>
        <time>2022-07-23T08:14:47Z</time>
      </trkpt>
      <trkpt lat="47.14452" lon="3.91703">
        <ele>346</ele>
        <time>2022-07-23T08:14:51Z</time>
      </trkpt>
      <trkpt lat="47.14448" lon="3.91726">
        <ele>345</ele>
        <time>2022-07-23T08:14:54Z</time>
      </trkpt>
      <trkpt lat="47.1443" lon="3.91755">
        <ele>343</ele>
        <time>2022-07-23T08:14:59Z</time>
      </trkpt>
      <trkpt lat="47.14405" lon="3.91786">
        <ele>341</ele>
        <time>2022-07-23T08:15:04Z</time>
      </trkpt>
      <trkpt lat="47.14393" lon="3.9181">
        <ele>341</ele>
        <time>2022-07-23T08:15:08Z</time>
      </trkpt>
      <trkpt lat="47.14391" lon="3.9184">
        <ele>341</ele>
        <time>2022-07-23T08:15:12Z</time>
      </trkpt>
      <trkpt lat="47.14399" lon="3.91872">
        <ele>343</ele>
        <time>2022-07-23T08:15:16Z</time>
      </trkpt>
      <trkpt lat="47.14406" lon="3.91911">
        <ele>344</ele>
        <time>2022-07-23T08:15:21Z</time>
      </trkpt>
      <trkpt lat="47.14408" lon="3.91951">
        <ele>346</ele>
        <time>2022-07-23T08:15:26Z</time>
      </trkpt>
      <trkpt lat="47.144" lon="3.92082">
        <ele>350</ele>
        <time>2022-07-23T08:15:41Z</time>
      </trkpt>
      <trkpt lat="47.14393" lon="3.92126">
        <ele>347</ele>
        <time>2022-07-23T08:15:47Z</time>
      </trkpt>
      <trkpt lat="47.14385" lon="3.92164">
        <ele>344</ele>
        <time>2022-07-23T08:15:52Z</time>
      </trkpt>
      <trkpt lat="47.14388" lon="3.92193">
        <ele>342</ele>
        <time>2022-07-23T08:15:55Z</time>
      </trkpt>
      <trkpt lat="47.14398" lon="3.92226">
        <ele>341</ele>
        <time>2022-07-23T08:16:00Z</time>
      </trkpt>
      <trkpt lat="47.14405" lon="3.9226">
        <ele>340</ele>
        <time>2022-07-23T08:16:04Z</time>
      </trkpt>
      <trkpt lat="47.14405" lon="3.92282">
        <ele>339</ele>
        <time>2022-07-23T08:16:07Z</time>
      </trkpt>
      <trkpt lat="47.14398" lon="3.92302">
        <ele>338</ele>
        <time>2022-07-23T08:16:09Z</time>
      </trkpt>
      <trkpt lat="47.14376" lon="3.92337">
        <ele>335</ele>
        <time>2022-07-23T08:16:15Z</time>
      </trkpt>
      <trkpt lat="47.14358" lon="3.92372">
        <ele>333</ele>
        <time>2022-07-23T08:16:20Z</time>
      </trkpt>
      <trkpt lat="47.14321" lon="3.92662">
        <ele>330</ele>
        <time>2022-07-23T08:16:56Z</time>
      </trkpt>
      <trkpt lat="47.14321" lon="3.92703">
        <ele>332</ele>
        <time>2022-07-23T08:17:01Z</time>
      </trkpt>
      <trkpt lat="47.14323" lon="3.9278">
        <ele>333</ele>
        <time>2022-07-23T08:17:10Z</time>
      </trkpt>
      <trkpt lat="47.14323" lon="3.92794">
        <ele>333</ele>
        <time>2022-07-23T08:17:12Z</time>
      </trkpt>
      <trkpt lat="47.1432" lon="3.92806">
        <ele>332</ele>
        <time>2022-07-23T08:17:14Z</time>
      </trkpt>
      <trkpt lat="47.14317" lon="3.92814">
        <ele>331</ele>
        <time>2022-07-23T08:17:15Z</time>
      </trkpt>
      <trkpt lat="47.14309" lon="3.92822">
        <ele>330</ele>
        <time>2022-07-23T08:17:17Z</time>
      </trkpt>
      <trkpt lat="47.14283" lon="3.92834">
        <ele>326</ele>
        <time>2022-07-23T08:17:21Z</time>
      </trkpt>
      <trkpt lat="47.14245" lon="3.92852">
        <ele>322</ele>
        <time>2022-07-23T08:17:28Z</time>
      </trkpt>
      <trkpt lat="47.14213" lon="3.92866">
        <ele>328</ele>
        <time>2022-07-23T08:17:34Z</time>
      </trkpt>
      <trkpt lat="47.14205" lon="3.92867">
        <ele>329</ele>
        <time>2022-07-23T08:17:36Z</time>
      </trkpt>
      <trkpt lat="47.14198" lon="3.92866">
        <ele>330</ele>
        <time>2022-07-23T08:17:37Z</time>
      </trkpt>
      <trkpt lat="47.14188" lon="3.9286">
        <ele>331</ele>
        <time>2022-07-23T08:17:39Z</time>
      </trkpt>
      <trkpt lat="47.14156" lon="3.92826">
        <ele>330</ele>
        <time>2022-07-23T08:17:46Z</time>
      </trkpt>
      <trkpt lat="47.14147" lon="3.92821">
        <ele>331</ele>
        <time>2022-07-23T08:17:48Z</time>
      </trkpt>
      <trkpt lat="47.14139" lon="3.92818">
        <ele>331</ele>
        <time>2022-07-23T08:17:49Z</time>
      </trkpt>
      <trkpt lat="47.14124" lon="3.9282">
        <ele>333</ele>
        <time>2022-07-23T08:17:52Z</time>
      </trkpt>
      <trkpt lat="47.14072" lon="3.92847">
        <ele>340</ele>
        <time>2022-07-23T08:18:02Z</time>
      </trkpt>
      <trkpt lat="47.14055" lon="3.92849">
        <ele>342</ele>
        <time>2022-07-23T08:18:05Z</time>
      </trkpt>
      <trkpt lat="47.14039" lon="3.92844">
        <ele>343</ele>
        <time>2022-07-23T08:18:08Z</time>
      </trkpt>
      <trkpt lat="47.14032" lon="3.92837">
        <ele>343</ele>
        <time>2022-07-23T08:18:09Z</time>
      </trkpt>
      <trkpt lat="47.14022" lon="3.92822">
        <ele>344</ele>
        <time>2022-07-23T08:18:12Z</time>
      </trkpt>
      <trkpt lat="47.14006" lon="3.92773">
        <ele>345</ele>
        <time>2022-07-23T08:18:18Z</time>
      </trkpt>
      <trkpt lat="47.14004" lon="3.92753">
        <ele>344</ele>
        <time>2022-07-23T08:18:21Z</time>
      </trkpt>
      <trkpt lat="47.14005" lon="3.92713">
        <ele>342</ele>
        <time>2022-07-23T08:18:26Z</time>
      </trkpt>
      <trkpt lat="47.14003" lon="3.92656">
        <ele>340</ele>
        <time>2022-07-23T08:18:32Z</time>
      </trkpt>
      <trkpt lat="47.14" lon="3.92639">
        <ele>340</ele>
        <time>2022-07-23T08:18:35Z</time>
      </trkpt>
      <trkpt lat="47.13977" lon="3.92572">
        <ele>345</ele>
        <time>2022-07-23T08:18:44Z</time>
      </trkpt>
      <trkpt lat="47.13944" lon="3.92426">
        <ele>349</ele>
        <time>2022-07-23T08:19:02Z</time>
      </trkpt>
      <trkpt lat="47.13939" lon="3.92344">
        <ele>348</ele>
        <time>2022-07-23T08:19:12Z</time>
      </trkpt>
      <trkpt lat="47.13932" lon="3.92314">
        <ele>348</ele>
        <time>2022-07-23T08:19:16Z</time>
      </trkpt>
      <trkpt lat="47.13926" lon="3.92303">
        <ele>349</ele>
        <time>2022-07-23T08:19:18Z</time>
      </trkpt>
      <trkpt lat="47.13913" lon="3.92295">
        <ele>350</ele>
        <time>2022-07-23T08:19:20Z</time>
      </trkpt>
      <trkpt lat="47.13901" lon="3.92292">
        <ele>350</ele>
        <time>2022-07-23T08:19:22Z</time>
      </trkpt>
      <trkpt lat="47.13861" lon="3.92294">
        <ele>352</ele>
        <time>2022-07-23T08:19:30Z</time>
      </trkpt>
      <trkpt lat="47.13823" lon="3.92311">
        <ele>355</ele>
        <time>2022-07-23T08:19:37Z</time>
      </trkpt>
      <trkpt lat="47.13776" lon="3.92341">
        <ele>355</ele>
        <time>2022-07-23T08:19:46Z</time>
      </trkpt>
      <trkpt lat="47.13686" lon="3.92443">
        <ele>360</ele>
        <time>2022-07-23T08:20:06Z</time>
      </trkpt>
      <trkpt lat="47.13659" lon="3.9246">
        <ele>359</ele>
        <time>2022-07-23T08:20:11Z</time>
      </trkpt>
      <trkpt lat="47.13632" lon="3.92498">
        <ele>360</ele>
        <time>2022-07-23T08:20:18Z</time>
      </trkpt>
      <trkpt lat="47.13621" lon="3.92506">
        <ele>360</ele>
        <time>2022-07-23T08:20:20Z</time>
      </trkpt>
      <trkpt lat="47.13607" lon="3.92506">
        <ele>359</ele>
        <time>2022-07-23T08:20:23Z</time>
      </trkpt>
      <trkpt lat="47.1357" lon="3.92495">
        <ele>357</ele>
        <time>2022-07-23T08:20:29Z</time>
      </trkpt>
      <trkpt lat="47.13542" lon="3.92492">
        <ele>357</ele>
        <time>2022-07-23T08:20:34Z</time>
      </trkpt>
      <trkpt lat="47.13529" lon="3.92489">
        <ele>358</ele>
        <time>2022-07-23T08:20:37Z</time>
      </trkpt>
      <trkpt lat="47.13519" lon="3.92478">
        <ele>358</ele>
        <time>2022-07-23T08:20:39Z</time>
      </trkpt>
      <trkpt lat="47.1351" lon="3.92463">
        <ele>358</ele>
        <time>2022-07-23T08:20:41Z</time>
      </trkpt>
      <trkpt lat="47.135" lon="3.92441">
        <ele>359</ele>
        <time>2022-07-23T08:20:44Z</time>
      </trkpt>
      <trkpt lat="47.13493" lon="3.92422">
        <ele>360</ele>
        <time>2022-07-23T08:20:47Z</time>
      </trkpt>
      <trkpt lat="47.13488" lon="3.92399">
        <ele>361</ele>
        <time>2022-07-23T08:20:50Z</time>
      </trkpt>
      <trkpt lat="47.13476" lon="3.92321">
        <ele>363</ele>
        <time>2022-07-23T08:21:00Z</time>
      </trkpt>
      <trkpt lat="47.13469" lon="3.92301">
        <ele>364</ele>
        <time>2022-07-23T08:21:02Z</time>
      </trkpt>
      <trkpt lat="47.13461" lon="3.92285">
        <ele>365</ele>
        <time>2022-07-23T08:21:05Z</time>
      </trkpt>
      <trkpt lat="47.13421" lon="3.92239">
        <ele>369</ele>
        <time>2022-07-23T08:21:14Z</time>
      </trkpt>
      <trkpt lat="47.13384" lon="3.92226">
        <ele>369</ele>
        <time>2022-07-23T08:21:21Z</time>
      </trkpt>
      <trkpt lat="47.13327" lon="3.9223">
        <ele>371</ele>
        <time>2022-07-23T08:21:31Z</time>
      </trkpt>
      <trkpt lat="47.13282" lon="3.92268">
        <ele>376</ele>
        <time>2022-07-23T08:21:40Z</time>
      </trkpt>
      <trkpt lat="47.13235" lon="3.92316">
        <ele>387</ele>
        <time>2022-07-23T08:21:50Z</time>
      </trkpt>
      <trkpt lat="47.132" lon="3.92315">
        <ele>392</ele>
        <time>2022-07-23T08:21:56Z</time>
      </trkpt>
      <trkpt lat="47.13151" lon="3.92263">
        <ele>393</ele>
        <time>2022-07-23T08:22:07Z</time>
      </trkpt>
      <trkpt lat="47.13119" lon="3.9222">
        <ele>393</ele>
        <time>2022-07-23T08:22:15Z</time>
      </trkpt>
      <trkpt lat="47.13057" lon="3.92157">
        <ele>388</ele>
        <time>2022-07-23T08:22:28Z</time>
      </trkpt>
      <trkpt lat="47.12992" lon="3.92112">
        <ele>383</ele>
        <time>2022-07-23T08:22:41Z</time>
      </trkpt>
      <trkpt lat="47.12959" lon="3.92097">
        <ele>378</ele>
        <time>2022-07-23T08:22:47Z</time>
      </trkpt>
      <trkpt lat="47.12932" lon="3.92098">
        <ele>377</ele>
        <time>2022-07-23T08:22:52Z</time>
      </trkpt>
      <trkpt lat="47.12878" lon="3.92107">
        <ele>373</ele>
        <time>2022-07-23T08:23:02Z</time>
      </trkpt>
      <trkpt lat="47.12852" lon="3.92117">
        <ele>371</ele>
        <time>2022-07-23T08:23:06Z</time>
      </trkpt>
      <trkpt lat="47.12828" lon="3.92137">
        <ele>370</ele>
        <time>2022-07-23T08:23:11Z</time>
      </trkpt>
      <trkpt lat="47.12809" lon="3.92161">
        <ele>369</ele>
        <time>2022-07-23T08:23:16Z</time>
      </trkpt>
      <trkpt lat="47.12791" lon="3.922">
        <ele>368</ele>
        <time>2022-07-23T08:23:22Z</time>
      </trkpt>
      <trkpt lat="47.12784" lon="3.92226">
        <ele>368</ele>
        <time>2022-07-23T08:23:25Z</time>
      </trkpt>
      <trkpt lat="47.12778" lon="3.92256">
        <ele>368</ele>
        <time>2022-07-23T08:23:29Z</time>
      </trkpt>
      <trkpt lat="47.12765" lon="3.92367">
        <ele>368</ele>
        <time>2022-07-23T08:23:42Z</time>
      </trkpt>
      <trkpt lat="47.12766" lon="3.92383">
        <ele>369</ele>
        <time>2022-07-23T08:23:44Z</time>
      </trkpt>
      <trkpt lat="47.1277" lon="3.9242">
        <ele>371</ele>
        <time>2022-07-23T08:23:49Z</time>
      </trkpt>
      <trkpt lat="47.1277" lon="3.92443">
        <ele>373</ele>
        <time>2022-07-23T08:23:52Z</time>
      </trkpt>
      <trkpt lat="47.12766" lon="3.92458">
        <ele>373</ele>
        <time>2022-07-23T08:23:54Z</time>
      </trkpt>
      <trkpt lat="47.1276" lon="3.9247">
        <ele>372</ele>
        <time>2022-07-23T08:23:55Z</time>
      </trkpt>
      <trkpt lat="47.12701" lon="3.92528">
        <ele>358</ele>
        <time>2022-07-23T08:24:08Z</time>
      </trkpt>
      <trkpt lat="47.12684" lon="3.92546">
        <ele>354</ele>
        <time>2022-07-23T08:24:12Z</time>
      </trkpt>
      <trkpt lat="47.12676" lon="3.92559">
        <ele>352</ele>
        <time>2022-07-23T08:24:14Z</time>
      </trkpt>
      <trkpt lat="47.12667" lon="3.92581">
        <ele>350</ele>
        <time>2022-07-23T08:24:17Z</time>
      </trkpt>
      <trkpt lat="47.12645" lon="3.92652">
        <ele>352</ele>
        <time>2022-07-23T08:24:26Z</time>
      </trkpt>
      <trkpt lat="47.12628" lon="3.92711">
        <ele>349</ele>
        <time>2022-07-23T08:24:34Z</time>
      </trkpt>
      <trkpt lat="47.12629" lon="3.92735">
        <ele>349</ele>
        <time>2022-07-23T08:24:37Z</time>
      </trkpt>
      <trkpt lat="47.12645" lon="3.92785">
        <ele>350</ele>
        <time>2022-07-23T08:24:44Z</time>
      </trkpt>
      <trkpt lat="47.12652" lon="3.9284">
        <ele>346</ele>
        <time>2022-07-23T08:24:51Z</time>
      </trkpt>
      <trkpt lat="47.12658" lon="3.92908">
        <ele>345</ele>
        <time>2022-07-23T08:24:59Z</time>
      </trkpt>
      <trkpt lat="47.12658" lon="3.9292">
        <ele>344</ele>
        <time>2022-07-23T08:25:00Z</time>
      </trkpt>
      <trkpt lat="47.12652" lon="3.92939">
        <ele>344</ele>
        <time>2022-07-23T08:25:03Z</time>
      </trkpt>
      <trkpt lat="47.12646" lon="3.92946">
        <ele>344</ele>
        <time>2022-07-23T08:25:04Z</time>
      </trkpt>
      <trkpt lat="47.12639" lon="3.92951">
        <ele>344</ele>
        <time>2022-07-23T08:25:06Z</time>
      </trkpt>
      <trkpt lat="47.1263" lon="3.92953">
        <ele>344</ele>
        <time>2022-07-23T08:25:07Z</time>
      </trkpt>
      <trkpt lat="47.12486" lon="3.92964">
        <ele>338</ele>
        <time>2022-07-23T08:25:33Z</time>
      </trkpt>
      <trkpt lat="47.12469" lon="3.92967">
        <ele>338</ele>
        <time>2022-07-23T08:25:36Z</time>
      </trkpt>
      <trkpt lat="47.1245" lon="3.92973">
        <ele>338</ele>
        <time>2022-07-23T08:25:39Z</time>
      </trkpt>
      <trkpt lat="47.12325" lon="3.93036">
        <ele>337</ele>
        <time>2022-07-23T08:26:03Z</time>
      </trkpt>
      <trkpt lat="47.1231" lon="3.93046">
        <ele>337</ele>
        <time>2022-07-23T08:26:06Z</time>
      </trkpt>
      <trkpt lat="47.12286" lon="3.93068">
        <ele>335</ele>
        <time>2022-07-23T08:26:11Z</time>
      </trkpt>
      <trkpt lat="47.12044" lon="3.93378">
        <ele>333</ele>
        <time>2022-07-23T08:27:08Z</time>
      </trkpt>
      <trkpt lat="47.1202" lon="3.93414">
        <ele>331</ele>
        <time>2022-07-23T08:27:14Z</time>
      </trkpt>
      <trkpt lat="47.1195" lon="3.93547">
        <ele>332</ele>
        <time>2022-07-23T08:27:34Z</time>
      </trkpt>
      <trkpt lat="47.11928" lon="3.93591">
        <ele>332</ele>
        <time>2022-07-23T08:27:41Z</time>
      </trkpt>
      <trkpt lat="47.119" lon="3.9367">
        <ele>339</ele>
        <time>2022-07-23T08:27:52Z</time>
      </trkpt>
      <trkpt lat="47.11886" lon="3.93704">
        <ele>342</ele>
        <time>2022-07-23T08:27:57Z</time>
      </trkpt>
      <trkpt lat="47.11875" lon="3.93724">
        <ele>342</ele>
        <time>2022-07-23T08:28:00Z</time>
      </trkpt>
      <trkpt lat="47.11853" lon="3.93754">
        <ele>341</ele>
        <time>2022-07-23T08:28:05Z</time>
      </trkpt>
      <trkpt lat="47.11829" lon="3.93779">
        <ele>340</ele>
        <time>2022-07-23T08:28:10Z</time>
      </trkpt>
      <trkpt lat="47.11811" lon="3.93795">
        <ele>341</ele>
        <time>2022-07-23T08:28:14Z</time>
      </trkpt>
      <trkpt lat="47.11791" lon="3.93808">
        <ele>340</ele>
        <time>2022-07-23T08:28:18Z</time>
      </trkpt>
      <trkpt lat="47.11769" lon="3.93816">
        <ele>338</ele>
        <time>2022-07-23T08:28:22Z</time>
      </trkpt>
      <trkpt lat="47.11706" lon="3.93831">
        <ele>334</ele>
        <time>2022-07-23T08:28:33Z</time>
      </trkpt>
      <trkpt lat="47.11683" lon="3.93845">
        <ele>335</ele>
        <time>2022-07-23T08:28:38Z</time>
      </trkpt>
      <trkpt lat="47.11673" lon="3.93848">
        <ele>334</ele>
        <time>2022-07-23T08:28:40Z</time>
      </trkpt>
      <trkpt lat="47.11635" lon="3.93848">
        <ele>335</ele>
        <time>2022-07-23T08:28:46Z</time>
      </trkpt>
      <trkpt lat="47.11558" lon="3.93839">
        <ele>336</ele>
        <time>2022-07-23T08:29:00Z</time>
      </trkpt>
      <trkpt lat="47.11538" lon="3.93839">
        <ele>336</ele>
        <time>2022-07-23T08:29:04Z</time>
      </trkpt>
      <trkpt lat="47.11525" lon="3.93842">
        <ele>336</ele>
        <time>2022-07-23T08:29:06Z</time>
      </trkpt>
      <trkpt lat="47.11516" lon="3.93847">
        <ele>336</ele>
        <time>2022-07-23T08:29:08Z</time>
      </trkpt>
      <trkpt lat="47.11506" lon="3.93855">
        <ele>337</ele>
        <time>2022-07-23T08:29:10Z</time>
      </trkpt>
      <trkpt lat="47.11497" lon="3.93866">
        <ele>337</ele>
        <time>2022-07-23T08:29:12Z</time>
      </trkpt>
      <trkpt lat="47.11482" lon="3.93896">
        <ele>337</ele>
        <time>2022-07-23T08:29:16Z</time>
      </trkpt>
      <trkpt lat="47.11424" lon="3.94105">
        <ele>339</ele>
        <time>2022-07-23T08:29:44Z</time>
      </trkpt>
      <trkpt lat="47.11413" lon="3.94135">
        <ele>340</ele>
        <time>2022-07-23T08:29:48Z</time>
      </trkpt>
      <trkpt lat="47.11406" lon="3.9415">
        <ele>341</ele>
        <time>2022-07-23T08:29:50Z</time>
      </trkpt>
      <trkpt lat="47.11398" lon="3.9416">
        <ele>341</ele>
        <time>2022-07-23T08:29:52Z</time>
      </trkpt>
      <trkpt lat="47.11388" lon="3.94166">
        <ele>342</ele>
        <time>2022-07-23T08:29:54Z</time>
      </trkpt>
      <trkpt lat="47.1138" lon="3.94167">
        <ele>342</ele>
        <time>2022-07-23T08:29:55Z</time>
      </trkpt>
      <trkpt lat="47.11373" lon="3.94165">
        <ele>342</ele>
        <time>2022-07-23T08:29:56Z</time>
      </trkpt>
      <trkpt lat="47.11365" lon="3.94159">
        <ele>342</ele>
        <time>2022-07-23T08:29:58Z</time>
      </trkpt>
      <trkpt lat="47.11354" lon="3.94147">
        <ele>342</ele>
        <time>2022-07-23T08:30:00Z</time>
      </trkpt>
      <trkpt lat="47.11292" lon="3.94068">
        <ele>344</ele>
        <time>2022-07-23T08:30:15Z</time>
      </trkpt>
      <trkpt lat="47.11283" lon="3.94057">
        <ele>345</ele>
        <time>2022-07-23T08:30:17Z</time>
      </trkpt>
      <trkpt lat="47.11272" lon="3.94051">
        <ele>346</ele>
        <time>2022-07-23T08:30:19Z</time>
      </trkpt>
      <trkpt lat="47.11232" lon="3.94049">
        <ele>349</ele>
        <time>2022-07-23T08:30:26Z</time>
      </trkpt>
      <trkpt lat="47.11192" lon="3.9406">
        <ele>352</ele>
        <time>2022-07-23T08:30:34Z</time>
      </trkpt>
      <trkpt lat="47.11161" lon="3.94076">
        <ele>354</ele>
        <time>2022-07-23T08:30:39Z</time>
      </trkpt>
      <trkpt lat="47.11136" lon="3.94094">
        <ele>354</ele>
        <time>2022-07-23T08:30:44Z</time>
      </trkpt>
      <trkpt lat="47.11103" lon="3.94131">
        <ele>354</ele>
        <time>2022-07-23T08:30:52Z</time>
      </trkpt>
      <trkpt lat="47.11092" lon="3.94151">
        <ele>355</ele>
        <time>2022-07-23T08:30:55Z</time>
      </trkpt>
      <trkpt lat="47.11086" lon="3.94167">
        <ele>355</ele>
        <time>2022-07-23T08:30:57Z</time>
      </trkpt>
      <trkpt lat="47.11076" lon="3.94205">
        <ele>360</ele>
        <time>2022-07-23T08:31:02Z</time>
      </trkpt>
      <trkpt lat="47.11071" lon="3.94214">
        <ele>362</ele>
        <time>2022-07-23T08:31:03Z</time>
      </trkpt>
      <trkpt lat="47.11063" lon="3.94217">
        <ele>364</ele>
        <time>2022-07-23T08:31:05Z</time>
      </trkpt>
      <trkpt lat="47.11055" lon="3.94215">
        <ele>365</ele>
        <time>2022-07-23T08:31:06Z</time>
      </trkpt>
      <trkpt lat="47.11049" lon="3.94209">
        <ele>366</ele>
        <time>2022-07-23T08:31:08Z</time>
      </trkpt>
      <trkpt lat="47.11015" lon="3.94148">
        <ele>365</ele>
        <time>2022-07-23T08:31:17Z</time>
      </trkpt>
      <trkpt lat="47.11003" lon="3.94132">
        <ele>365</ele>
        <time>2022-07-23T08:31:20Z</time>
      </trkpt>
      <trkpt lat="47.10973" lon="3.94111">
        <ele>364</ele>
        <time>2022-07-23T08:31:26Z</time>
      </trkpt>
      <trkpt lat="47.10956" lon="3.94108">
        <ele>364</ele>
        <time>2022-07-23T08:31:29Z</time>
      </trkpt>
      <trkpt lat="47.10943" lon="3.94109">
        <ele>364</ele>
        <time>2022-07-23T08:31:31Z</time>
      </trkpt>
      <trkpt lat="47.10918" lon="3.9412">
        <ele>366</ele>
        <time>2022-07-23T08:31:36Z</time>
      </trkpt>
      <trkpt lat="47.1085" lon="3.94215">
        <ele>368</ele>
        <time>2022-07-23T08:31:53Z</time>
      </trkpt>
      <trkpt lat="47.10833" lon="3.94235">
        <ele>370</ele>
        <time>2022-07-23T08:31:57Z</time>
      </trkpt>
      <trkpt lat="47.10798" lon="3.94261">
        <ele>371</ele>
        <time>2022-07-23T08:32:04Z</time>
      </trkpt>
      <trkpt lat="47.10743" lon="3.9428">
        <ele>369</ele>
        <time>2022-07-23T08:32:14Z</time>
      </trkpt>
      <trkpt lat="47.10729" lon="3.94287">
        <ele>368</ele>
        <time>2022-07-23T08:32:16Z</time>
      </trkpt>
      <trkpt lat="47.10692" lon="3.9432">
        <ele>370</ele>
        <time>2022-07-23T08:32:24Z</time>
      </trkpt>
      <trkpt lat="47.10637" lon="3.94382">
        <ele>374</ele>
        <time>2022-07-23T08:32:36Z</time>
      </trkpt>
      <trkpt lat="47.10556" lon="3.94454">
        <ele>373</ele>
        <time>2022-07-23T08:32:53Z</time>
      </trkpt>
      <trkpt lat="47.1052" lon="3.94491">
        <ele>370</ele>
        <time>2022-07-23T08:33:01Z</time>
      </trkpt>
      <trkpt lat="47.10412" lon="3.94624">
        <ele>367</ele>
        <time>2022-07-23T08:33:26Z</time>
      </trkpt>
      <trkpt lat="47.10403" lon="3.94633">
        <ele>369</ele>
        <time>2022-07-23T08:33:28Z</time>
      </trkpt>
      <trkpt lat="47.10395" lon="3.94636">
        <ele>369</ele>
        <time>2022-07-23T08:33:29Z</time>
      </trkpt>
      <trkpt lat="47.1038" lon="3.94634">
        <ele>369</ele>
        <time>2022-07-23T08:33:32Z</time>
      </trkpt>
      <trkpt lat="47.10373" lon="3.94631">
        <ele>369</ele>
        <time>2022-07-23T08:33:33Z</time>
      </trkpt>
      <trkpt lat="47.10368" lon="3.94627">
        <ele>369</ele>
        <time>2022-07-23T08:33:34Z</time>
      </trkpt>
      <trkpt lat="47.10356" lon="3.94607">
        <ele>366</ele>
        <time>2022-07-23T08:33:38Z</time>
      </trkpt>
      <trkpt lat="47.10349" lon="3.94601">
        <ele>365</ele>
        <time>2022-07-23T08:33:39Z</time>
      </trkpt>
      <trkpt lat="47.10342" lon="3.946">
        <ele>365</ele>
        <time>2022-07-23T08:33:40Z</time>
      </trkpt>
      <trkpt lat="47.10339" lon="3.94602">
        <ele>366</ele>
        <time>2022-07-23T08:33:41Z</time>
      </trkpt>
      <trkpt lat="47.10336" lon="3.94606">
        <ele>366</ele>
        <time>2022-07-23T08:33:42Z</time>
      </trkpt>
      <trkpt lat="47.10335" lon="3.94614">
        <ele>367</ele>
        <time>2022-07-23T08:33:43Z</time>
      </trkpt>
      <trkpt lat="47.10339" lon="3.94654">
        <ele>373</ele>
        <time>2022-07-23T08:33:48Z</time>
      </trkpt>
      <trkpt lat="47.10336" lon="3.9467">
        <ele>375</ele>
        <time>2022-07-23T08:33:50Z</time>
      </trkpt>
      <trkpt lat="47.10333" lon="3.94675">
        <ele>375</ele>
        <time>2022-07-23T08:33:50Z</time>
      </trkpt>
      <trkpt lat="47.10328" lon="3.94679">
        <ele>375</ele>
        <time>2022-07-23T08:33:51Z</time>
      </trkpt>
      <trkpt lat="47.1029" lon="3.94683">
        <ele>375</ele>
        <time>2022-07-23T08:33:58Z</time>
      </trkpt>
      <trkpt lat="47.10283" lon="3.94687">
        <ele>376</ele>
        <time>2022-07-23T08:33:59Z</time>
      </trkpt>
      <trkpt lat="47.10277" lon="3.94694">
        <ele>376</ele>
        <time>2022-07-23T08:34:01Z</time>
      </trkpt>
      <trkpt lat="47.10274" lon="3.94705">
        <ele>377</ele>
        <time>2022-07-23T08:34:02Z</time>
      </trkpt>
      <trkpt lat="47.10273" lon="3.94733">
        <ele>379</ele>
        <time>2022-07-23T08:34:06Z</time>
      </trkpt>
      <trkpt lat="47.10275" lon="3.94766">
        <ele>381</ele>
        <time>2022-07-23T08:34:10Z</time>
      </trkpt>
      <trkpt lat="47.10271" lon="3.94792">
        <ele>383</ele>
        <time>2022-07-23T08:34:13Z</time>
      </trkpt>
      <trkpt lat="47.10265" lon="3.948">
        <ele>383</ele>
        <time>2022-07-23T08:34:14Z</time>
      </trkpt>
      <trkpt lat="47.10258" lon="3.94819">
        <ele>384</ele>
        <time>2022-07-23T08:34:17Z</time>
      </trkpt>
      <trkpt lat="47.10244" lon="3.94822">
        <ele>384</ele>
        <time>2022-07-23T08:34:19Z</time>
      </trkpt>
      <trkpt lat="47.10238" lon="3.94827">
        <ele>384</ele>
        <time>2022-07-23T08:34:21Z</time>
      </trkpt>
      <trkpt lat="47.10227" lon="3.94844">
        <ele>383</ele>
        <time>2022-07-23T08:34:24Z</time>
      </trkpt>
      <trkpt lat="47.10216" lon="3.94844">
        <ele>382</ele>
        <time>2022-07-23T08:34:26Z</time>
      </trkpt>
      <trkpt lat="47.10192" lon="3.9484">
        <ele>380</ele>
        <time>2022-07-23T08:34:30Z</time>
      </trkpt>
      <trkpt lat="47.10183" lon="3.9484">
        <ele>379</ele>
        <time>2022-07-23T08:34:31Z</time>
      </trkpt>
      <trkpt lat="47.10094" lon="3.94794">
        <ele>370</ele>
        <time>2022-07-23T08:34:48Z</time>
      </trkpt>
      <trkpt lat="47.1009" lon="3.9478">
        <ele>369</ele>
        <time>2022-07-23T08:34:50Z</time>
      </trkpt>
      <trkpt lat="47.10091" lon="3.94752">
        <ele>369</ele>
        <time>2022-07-23T08:34:53Z</time>
      </trkpt>
      <trkpt lat="47.10065" lon="3.94779">
        <ele>367</ele>
        <time>2022-07-23T08:34:59Z</time>
      </trkpt>
      <trkpt lat="47.09979" lon="3.94828">
        <ele>358</ele>
        <time>2022-07-23T08:35:16Z</time>
      </trkpt>
      <trkpt lat="47.0998" lon="3.94841">
        <ele>358</ele>
        <time>2022-07-23T08:35:17Z</time>
      </trkpt>
      <trkpt lat="47.09963" lon="3.94847">
        <ele>356</ele>
        <time>2022-07-23T08:35:20Z</time>
      </trkpt>
      <trkpt lat="47.09953" lon="3.94848">
        <ele>355</ele>
        <time>2022-07-23T08:35:22Z</time>
      </trkpt>
      <trkpt lat="47.09946" lon="3.94846">
        <ele>354</ele>
        <time>2022-07-23T08:35:23Z</time>
      </trkpt>
      <trkpt lat="47.09841" lon="3.94755">
        <ele>346</ele>
        <time>2022-07-23T08:35:45Z</time>
      </trkpt>
      <trkpt lat="47.09827" lon="3.94752">
        <ele>345</ele>
        <time>2022-07-23T08:35:47Z</time>
      </trkpt>
      <trkpt lat="47.09787" lon="3.94757">
        <ele>343</ele>
        <time>2022-07-23T08:35:55Z</time>
      </trkpt>
      <trkpt lat="47.0978" lon="3.94764">
        <ele>343</ele>
        <time>2022-07-23T08:35:56Z</time>
      </trkpt>
      <trkpt lat="47.09765" lon="3.9477">
        <ele>342</ele>
        <time>2022-07-23T08:35:59Z</time>
      </trkpt>
      <trkpt lat="47.09737" lon="3.9477">
        <ele>343</ele>
        <time>2022-07-23T08:36:04Z</time>
      </trkpt>
      <trkpt lat="47.09709" lon="3.94758">
        <ele>345</ele>
        <time>2022-07-23T08:36:09Z</time>
      </trkpt>
      <trkpt lat="47.09686" lon="3.94738">
        <ele>346</ele>
        <time>2022-07-23T08:36:14Z</time>
      </trkpt>
      <trkpt lat="47.09662" lon="3.94712">
        <ele>348</ele>
        <time>2022-07-23T08:36:19Z</time>
      </trkpt>
      <trkpt lat="47.09656" lon="3.947">
        <ele>348</ele>
        <time>2022-07-23T08:36:21Z</time>
      </trkpt>
      <trkpt lat="47.09651" lon="3.94688">
        <ele>349</ele>
        <time>2022-07-23T08:36:23Z</time>
      </trkpt>
      <trkpt lat="47.09641" lon="3.94651">
        <ele>350</ele>
        <time>2022-07-23T08:36:27Z</time>
      </trkpt>
      <trkpt lat="47.09629" lon="3.94626">
        <ele>352</ele>
        <time>2022-07-23T08:36:31Z</time>
      </trkpt>
      <trkpt lat="47.09595" lon="3.94589">
        <ele>356</ele>
        <time>2022-07-23T08:36:39Z</time>
      </trkpt>
      <trkpt lat="47.09538" lon="3.94557">
        <ele>360</ele>
        <time>2022-07-23T08:36:50Z</time>
      </trkpt>
      <trkpt lat="47.09521" lon="3.94552">
        <ele>361</ele>
        <time>2022-07-23T08:36:53Z</time>
      </trkpt>
      <trkpt lat="47.09465" lon="3.94542">
        <ele>363</ele>
        <time>2022-07-23T08:37:03Z</time>
      </trkpt>
      <trkpt lat="47.09448" lon="3.94542">
        <ele>364</ele>
        <time>2022-07-23T08:37:06Z</time>
      </trkpt>
      <trkpt lat="47.0944" lon="3.94546">
        <ele>365</ele>
        <time>2022-07-23T08:37:07Z</time>
      </trkpt>
      <trkpt lat="47.09437" lon="3.94556">
        <ele>368</ele>
        <time>2022-07-23T08:37:09Z</time>
      </trkpt>
      <trkpt lat="47.0937" lon="3.9453">
        <ele>362</ele>
        <time>2022-07-23T08:37:21Z</time>
      </trkpt>
      <trkpt lat="47.09368" lon="3.94537">
        <ele>364</ele>
        <time>2022-07-23T08:37:22Z</time>
      </trkpt>
      <trkpt lat="47.09356" lon="3.9455">
        <ele>367</ele>
        <time>2022-07-23T08:37:24Z</time>
      </trkpt>
      <trkpt lat="47.09296" lon="3.94573">
        <ele>367</ele>
        <time>2022-07-23T08:37:35Z</time>
      </trkpt>
      <trkpt lat="47.09271" lon="3.94588">
        <ele>366</ele>
        <time>2022-07-23T08:37:40Z</time>
      </trkpt>
      <trkpt lat="47.09248" lon="3.94616">
        <ele>367</ele>
        <time>2022-07-23T08:37:46Z</time>
      </trkpt>
      <trkpt lat="47.09239" lon="3.94639">
        <ele>368</ele>
        <time>2022-07-23T08:37:49Z</time>
      </trkpt>
      <trkpt lat="47.09234" lon="3.94662">
        <ele>370</ele>
        <time>2022-07-23T08:37:52Z</time>
      </trkpt>
      <trkpt lat="47.09235" lon="3.94685">
        <ele>372</ele>
        <time>2022-07-23T08:37:54Z</time>
      </trkpt>
      <trkpt lat="47.09254" lon="3.94776">
        <ele>378</ele>
        <time>2022-07-23T08:38:06Z</time>
      </trkpt>
      <trkpt lat="47.09256" lon="3.94795">
        <ele>380</ele>
        <time>2022-07-23T08:38:08Z</time>
      </trkpt>
      <trkpt lat="47.09255" lon="3.94807">
        <ele>381</ele>
        <time>2022-07-23T08:38:10Z</time>
      </trkpt>
      <trkpt lat="47.0925" lon="3.94823">
        <ele>381</ele>
        <time>2022-07-23T08:38:12Z</time>
      </trkpt>
      <trkpt lat="47.09242" lon="3.94835">
        <ele>382</ele>
        <time>2022-07-23T08:38:14Z</time>
      </trkpt>
      <trkpt lat="47.09229" lon="3.94842">
        <ele>382</ele>
        <time>2022-07-23T08:38:16Z</time>
      </trkpt>
      <trkpt lat="47.09204" lon="3.94846">
        <ele>382</ele>
        <time>2022-07-23T08:38:21Z</time>
      </trkpt>
      <trkpt lat="47.09175" lon="3.94855">
        <ele>381</ele>
        <time>2022-07-23T08:38:26Z</time>
      </trkpt>
      <trkpt lat="47.09162" lon="3.94865">
        <ele>382</ele>
        <time>2022-07-23T08:38:29Z</time>
      </trkpt>
      <trkpt lat="47.09151" lon="3.94878">
        <ele>382</ele>
        <time>2022-07-23T08:38:31Z</time>
      </trkpt>
      <trkpt lat="47.09141" lon="3.94897">
        <ele>382</ele>
        <time>2022-07-23T08:38:34Z</time>
      </trkpt>
      <trkpt lat="47.09134" lon="3.94919">
        <ele>383</ele>
        <time>2022-07-23T08:38:37Z</time>
      </trkpt>
      <trkpt lat="47.09133" lon="3.94948">
        <ele>384</ele>
        <time>2022-07-23T08:38:41Z</time>
      </trkpt>
      <trkpt lat="47.09163" lon="3.95279">
        <ele>409</ele>
        <time>2022-07-23T08:39:21Z</time>
      </trkpt>
      <trkpt lat="47.09163" lon="3.95303">
        <ele>410</ele>
        <time>2022-07-23T08:39:24Z</time>
      </trkpt>
      <trkpt lat="47.09159" lon="3.95322">
        <ele>409</ele>
        <time>2022-07-23T08:39:26Z</time>
      </trkpt>
      <trkpt lat="47.09153" lon="3.9534">
        <ele>409</ele>
        <time>2022-07-23T08:39:29Z</time>
      </trkpt>
      <trkpt lat="47.09119" lon="3.95398">
        <ele>411</ele>
        <time>2022-07-23T08:39:38Z</time>
      </trkpt>
      <trkpt lat="47.09107" lon="3.95422">
        <ele>412</ele>
        <time>2022-07-23T08:39:42Z</time>
      </trkpt>
      <trkpt lat="47.091" lon="3.9544">
        <ele>413</ele>
        <time>2022-07-23T08:39:44Z</time>
      </trkpt>
      <trkpt lat="47.09096" lon="3.95458">
        <ele>414</ele>
        <time>2022-07-23T08:39:47Z</time>
      </trkpt>
      <trkpt lat="47.09094" lon="3.95482">
        <ele>416</ele>
        <time>2022-07-23T08:39:49Z</time>
      </trkpt>
      <trkpt lat="47.09095" lon="3.95509">
        <ele>418</ele>
        <time>2022-07-23T08:39:53Z</time>
      </trkpt>
      <trkpt lat="47.09102" lon="3.95564">
        <ele>422</ele>
        <time>2022-07-23T08:40:00Z</time>
      </trkpt>
      <trkpt lat="47.09109" lon="3.95575">
        <ele>423</ele>
        <time>2022-07-23T08:40:01Z</time>
      </trkpt>
      <trkpt lat="47.09116" lon="3.95583">
        <ele>424</ele>
        <time>2022-07-23T08:40:03Z</time>
      </trkpt>
      <trkpt lat="47.09128" lon="3.95585">
        <ele>425</ele>
        <time>2022-07-23T08:40:05Z</time>
      </trkpt>
      <trkpt lat="47.09164" lon="3.95587">
        <ele>428</ele>
        <time>2022-07-23T08:40:12Z</time>
      </trkpt>
      <trkpt lat="47.09182" lon="3.95586">
        <ele>429</ele>
        <time>2022-07-23T08:40:15Z</time>
      </trkpt>
      <trkpt lat="47.0919" lon="3.95588">
        <ele>430</ele>
        <time>2022-07-23T08:40:16Z</time>
      </trkpt>
      <trkpt lat="47.09197" lon="3.95592">
        <ele>430</ele>
        <time>2022-07-23T08:40:17Z</time>
      </trkpt>
      <trkpt lat="47.09203" lon="3.956">
        <ele>431</ele>
        <time>2022-07-23T08:40:19Z</time>
      </trkpt>
      <trkpt lat="47.09208" lon="3.95615">
        <ele>432</ele>
        <time>2022-07-23T08:40:21Z</time>
      </trkpt>
      <trkpt lat="47.09209" lon="3.95626">
        <ele>432</ele>
        <time>2022-07-23T08:40:22Z</time>
      </trkpt>
      <trkpt lat="47.09206" lon="3.9564">
        <ele>432</ele>
        <time>2022-07-23T08:40:24Z</time>
      </trkpt>
      <trkpt lat="47.09173" lon="3.9573">
        <ele>434</ele>
        <time>2022-07-23T08:40:36Z</time>
      </trkpt>
      <trkpt lat="47.09082" lon="3.9601">
        <ele>431</ele>
        <time>2022-07-23T08:41:14Z</time>
      </trkpt>
      <trkpt lat="47.09075" lon="3.96046">
        <ele>430</ele>
        <time>2022-07-23T08:41:19Z</time>
      </trkpt>
      <trkpt lat="47.09072" lon="3.96071">
        <ele>430</ele>
        <time>2022-07-23T08:41:22Z</time>
      </trkpt>
      <trkpt lat="47.09074" lon="3.96126">
        <ele>429</ele>
        <time>2022-07-23T08:41:28Z</time>
      </trkpt>
      <trkpt lat="47.09073" lon="3.9615">
        <ele>427</ele>
        <time>2022-07-23T08:41:31Z</time>
      </trkpt>
      <trkpt lat="47.0907" lon="3.96161">
        <ele>426</ele>
        <time>2022-07-23T08:41:33Z</time>
      </trkpt>
      <trkpt lat="47.09063" lon="3.96175">
        <ele>425</ele>
        <time>2022-07-23T08:41:35Z</time>
      </trkpt>
      <trkpt lat="47.09057" lon="3.96184">
        <ele>425</ele>
        <time>2022-07-23T08:41:36Z</time>
      </trkpt>
      <trkpt lat="47.08981" lon="3.96263">
        <ele>421</ele>
        <time>2022-07-23T08:41:53Z</time>
      </trkpt>
      <trkpt lat="47.08964" lon="3.96289">
        <ele>421</ele>
        <time>2022-07-23T08:41:57Z</time>
      </trkpt>
      <trkpt lat="47.08944" lon="3.96335">
        <ele>422</ele>
        <time>2022-07-23T08:42:04Z</time>
      </trkpt>
      <trkpt lat="47.08929" lon="3.96389">
        <ele>422</ele>
        <time>2022-07-23T08:42:11Z</time>
      </trkpt>
      <trkpt lat="47.08924" lon="3.96403">
        <ele>422</ele>
        <time>2022-07-23T08:42:13Z</time>
      </trkpt>
      <trkpt lat="47.08918" lon="3.96415">
        <ele>422</ele>
        <time>2022-07-23T08:42:15Z</time>
      </trkpt>
      <trkpt lat="47.0891" lon="3.96425">
        <ele>422</ele>
        <time>2022-07-23T08:42:17Z</time>
      </trkpt>
      <trkpt lat="47.0889" lon="3.96444">
        <ele>423</ele>
        <time>2022-07-23T08:42:21Z</time>
      </trkpt>
      <trkpt lat="47.08873" lon="3.96455">
        <ele>423</ele>
        <time>2022-07-23T08:42:24Z</time>
      </trkpt>
      <trkpt lat="47.08856" lon="3.96459">
        <ele>424</ele>
        <time>2022-07-23T08:42:27Z</time>
      </trkpt>
      <trkpt lat="47.0885" lon="3.96458">
        <ele>423</ele>
        <time>2022-07-23T08:42:28Z</time>
      </trkpt>
      <trkpt lat="47.08829" lon="3.96447">
        <ele>424</ele>
        <time>2022-07-23T08:42:32Z</time>
      </trkpt>
      <trkpt lat="47.08772" lon="3.96404">
        <ele>434</ele>
        <time>2022-07-23T08:42:44Z</time>
      </trkpt>
      <trkpt lat="47.08761" lon="3.96389">
        <ele>435</ele>
        <time>2022-07-23T08:42:46Z</time>
      </trkpt>
      <trkpt lat="47.08744" lon="3.96356">
        <ele>436</ele>
        <time>2022-07-23T08:42:51Z</time>
      </trkpt>
      <trkpt lat="47.08717" lon="3.96261">
        <ele>435</ele>
        <time>2022-07-23T08:43:04Z</time>
      </trkpt>
      <trkpt lat="47.08709" lon="3.96241">
        <ele>435</ele>
        <time>2022-07-23T08:43:07Z</time>
      </trkpt>
      <trkpt lat="47.087" lon="3.96228">
        <ele>437</ele>
        <time>2022-07-23T08:43:09Z</time>
      </trkpt>
      <trkpt lat="47.08662" lon="3.96203">
        <ele>442</ele>
        <time>2022-07-23T08:43:16Z</time>
      </trkpt>
      <trkpt lat="47.0865" lon="3.96204">
        <ele>442</ele>
        <time>2022-07-23T08:43:18Z</time>
      </trkpt>
      <trkpt lat="47.08642" lon="3.96206">
        <ele>442</ele>
        <time>2022-07-23T08:43:20Z</time>
      </trkpt>
      <trkpt lat="47.08626" lon="3.9622">
        <ele>443</ele>
        <time>2022-07-23T08:43:23Z</time>
      </trkpt>
      <trkpt lat="47.08617" lon="3.96234">
        <ele>444</ele>
        <time>2022-07-23T08:43:25Z</time>
      </trkpt>
      <trkpt lat="47.08594" lon="3.96294">
        <ele>449</ele>
        <time>2022-07-23T08:43:34Z</time>
      </trkpt>
      <trkpt lat="47.08567" lon="3.96371">
        <ele>457</ele>
        <time>2022-07-23T08:43:44Z</time>
      </trkpt>
      <trkpt lat="47.08539" lon="3.96444">
        <ele>464</ele>
        <time>2022-07-23T08:43:54Z</time>
      </trkpt>
      <trkpt lat="47.08529" lon="3.96467">
        <ele>465</ele>
        <time>2022-07-23T08:43:58Z</time>
      </trkpt>
      <trkpt lat="47.08499" lon="3.96526">
        <ele>466</ele>
        <time>2022-07-23T08:44:07Z</time>
      </trkpt>
      <trkpt lat="47.08472" lon="3.96635">
        <ele>459</ele>
        <time>2022-07-23T08:44:21Z</time>
      </trkpt>
      <trkpt lat="47.08443" lon="3.96773">
        <ele>465</ele>
        <time>2022-07-23T08:44:38Z</time>
      </trkpt>
      <trkpt lat="47.08435" lon="3.96792">
        <ele>467</ele>
        <time>2022-07-23T08:44:41Z</time>
      </trkpt>
      <trkpt lat="47.08427" lon="3.96804">
        <ele>468</ele>
        <time>2022-07-23T08:44:43Z</time>
      </trkpt>
      <trkpt lat="47.08355" lon="3.96879">
        <ele>474</ele>
        <time>2022-07-23T08:44:59Z</time>
      </trkpt>
      <trkpt lat="47.08331" lon="3.96907">
        <ele>476</ele>
        <time>2022-07-23T08:45:04Z</time>
      </trkpt>
      <trkpt lat="47.08313" lon="3.96936">
        <ele>475</ele>
        <time>2022-07-23T08:45:09Z</time>
      </trkpt>
      <trkpt lat="47.08253" lon="3.97054">
        <ele>470</ele>
        <time>2022-07-23T08:45:27Z</time>
      </trkpt>
      <trkpt lat="47.08242" lon="3.9707">
        <ele>468</ele>
        <time>2022-07-23T08:45:29Z</time>
      </trkpt>
      <trkpt lat="47.08198" lon="3.97105">
        <ele>460</ele>
        <time>2022-07-23T08:45:38Z</time>
      </trkpt>
      <trkpt lat="47.08181" lon="3.97123">
        <ele>457</ele>
        <time>2022-07-23T08:45:42Z</time>
      </trkpt>
      <trkpt lat="47.08163" lon="3.9715">
        <ele>455</ele>
        <time>2022-07-23T08:45:47Z</time>
      </trkpt>
      <trkpt lat="47.08135" lon="3.97198">
        <ele>452</ele>
        <time>2022-07-23T08:45:54Z</time>
      </trkpt>
      <trkpt lat="47.0812" lon="3.97235">
        <ele>452</ele>
        <time>2022-07-23T08:46:00Z</time>
      </trkpt>
      <trkpt lat="47.08117" lon="3.97254">
        <ele>452</ele>
        <time>2022-07-23T08:46:02Z</time>
      </trkpt>
      <trkpt lat="47.08111" lon="3.97338">
        <ele>456</ele>
        <time>2022-07-23T08:46:12Z</time>
      </trkpt>
      <trkpt lat="47.08108" lon="3.97351">
        <ele>457</ele>
        <time>2022-07-23T08:46:14Z</time>
      </trkpt>
      <trkpt lat="47.08101" lon="3.9736">
        <ele>457</ele>
        <time>2022-07-23T08:46:15Z</time>
      </trkpt>
      <trkpt lat="47.08083" lon="3.97375">
        <ele>456</ele>
        <time>2022-07-23T08:46:19Z</time>
      </trkpt>
      <trkpt lat="47.08075" lon="3.97387">
        <ele>457</ele>
        <time>2022-07-23T08:46:21Z</time>
      </trkpt>
      <trkpt lat="47.08068" lon="3.97402">
        <ele>457</ele>
        <time>2022-07-23T08:46:23Z</time>
      </trkpt>
      <trkpt lat="47.08064" lon="3.97419">
        <ele>458</ele>
        <time>2022-07-23T08:46:26Z</time>
      </trkpt>
      <trkpt lat="47.08056" lon="3.97501">
        <ele>466</ele>
        <time>2022-07-23T08:46:36Z</time>
      </trkpt>
      <trkpt lat="47.08053" lon="3.97516">
        <ele>467</ele>
        <time>2022-07-23T08:46:37Z</time>
      </trkpt>
      <trkpt lat="47.08044" lon="3.97529">
        <ele>467</ele>
        <time>2022-07-23T08:46:40Z</time>
      </trkpt>
      <trkpt lat="47.08035" lon="3.97537">
        <ele>466</ele>
        <time>2022-07-23T08:46:42Z</time>
      </trkpt>
      <trkpt lat="47.08018" lon="3.97544">
        <ele>463</ele>
        <time>2022-07-23T08:46:45Z</time>
      </trkpt>
      <trkpt lat="47.07995" lon="3.97565">
        <ele>462</ele>
        <time>2022-07-23T08:46:50Z</time>
      </trkpt>
      <trkpt lat="47.07981" lon="3.9759">
        <ele>463</ele>
        <time>2022-07-23T08:46:53Z</time>
      </trkpt>
      <trkpt lat="47.07972" lon="3.97613">
        <ele>463</ele>
        <time>2022-07-23T08:46:57Z</time>
      </trkpt>
      <trkpt lat="47.07961" lon="3.9765">
        <ele>465</ele>
        <time>2022-07-23T08:47:02Z</time>
      </trkpt>
      <trkpt lat="47.07952" lon="3.97693">
        <ele>467</ele>
        <time>2022-07-23T08:47:07Z</time>
      </trkpt>
      <trkpt lat="47.07931" lon="3.97762">
        <ele>468</ele>
        <time>2022-07-23T08:47:16Z</time>
      </trkpt>
      <trkpt lat="47.07907" lon="3.97821">
        <ele>469</ele>
        <time>2022-07-23T08:47:25Z</time>
      </trkpt>
      <trkpt lat="47.079" lon="3.97848">
        <ele>469</ele>
        <time>2022-07-23T08:47:28Z</time>
      </trkpt>
      <trkpt lat="47.07887" lon="3.9797">
        <ele>474</ele>
        <time>2022-07-23T08:47:43Z</time>
      </trkpt>
      <trkpt lat="47.07888" lon="3.97986">
        <ele>476</ele>
        <time>2022-07-23T08:47:45Z</time>
      </trkpt>
      <trkpt lat="47.07899" lon="3.98025">
        <ele>481</ele>
        <time>2022-07-23T08:47:50Z</time>
      </trkpt>
      <trkpt lat="47.07898" lon="3.98036">
        <ele>482</ele>
        <time>2022-07-23T08:47:51Z</time>
      </trkpt>
      <trkpt lat="47.07895" lon="3.98043">
        <ele>483</ele>
        <time>2022-07-23T08:47:52Z</time>
      </trkpt>
      <trkpt lat="47.07887" lon="3.98053">
        <ele>484</ele>
        <time>2022-07-23T08:47:54Z</time>
      </trkpt>
      <trkpt lat="47.07795" lon="3.98108">
        <ele>487</ele>
        <time>2022-07-23T08:48:12Z</time>
      </trkpt>
      <trkpt lat="47.0778" lon="3.98126">
        <ele>488</ele>
        <time>2022-07-23T08:48:15Z</time>
      </trkpt>
      <trkpt lat="47.07713" lon="3.98233">
        <ele>493</ele>
        <time>2022-07-23T08:48:33Z</time>
      </trkpt>
      <trkpt lat="47.07705" lon="3.98249">
        <ele>494</ele>
        <time>2022-07-23T08:48:35Z</time>
      </trkpt>
      <trkpt lat="47.07703" lon="3.98261">
        <ele>495</ele>
        <time>2022-07-23T08:48:37Z</time>
      </trkpt>
      <trkpt lat="47.07704" lon="3.98269">
        <ele>496</ele>
        <time>2022-07-23T08:48:38Z</time>
      </trkpt>
      <trkpt lat="47.07714" lon="3.98307">
        <ele>501</ele>
        <time>2022-07-23T08:48:43Z</time>
      </trkpt>
      <trkpt lat="47.07714" lon="3.98315">
        <ele>501</ele>
        <time>2022-07-23T08:48:44Z</time>
      </trkpt>
      <trkpt lat="47.07713" lon="3.98322">
        <ele>502</ele>
        <time>2022-07-23T08:48:45Z</time>
      </trkpt>
      <trkpt lat="47.0771" lon="3.98329">
        <ele>502</ele>
        <time>2022-07-23T08:48:46Z</time>
      </trkpt>
      <trkpt lat="47.0769" lon="3.98347">
        <ele>502</ele>
        <time>2022-07-23T08:48:50Z</time>
      </trkpt>
      <trkpt lat="47.0768" lon="3.9836">
        <ele>502</ele>
        <time>2022-07-23T08:48:52Z</time>
      </trkpt>
      <trkpt lat="47.07664" lon="3.98383">
        <ele>502</ele>
        <time>2022-07-23T08:48:56Z</time>
      </trkpt>
      <trkpt lat="47.07657" lon="3.98404">
        <ele>503</ele>
        <time>2022-07-23T08:48:59Z</time>
      </trkpt>
      <trkpt lat="47.07653" lon="3.98426">
        <ele>504</ele>
        <time>2022-07-23T08:49:02Z</time>
      </trkpt>
      <trkpt lat="47.07605" lon="3.98805">
        <ele>527</ele>
        <time>2022-07-23T08:49:48Z</time>
      </trkpt>
      <trkpt lat="47.07606" lon="3.98826">
        <ele>527</ele>
        <time>2022-07-23T08:49:51Z</time>
      </trkpt>
      <trkpt lat="47.0761" lon="3.98842">
        <ele>528</ele>
        <time>2022-07-23T08:49:53Z</time>
      </trkpt>
      <trkpt lat="47.07616" lon="3.98855">
        <ele>528</ele>
        <time>2022-07-23T08:49:55Z</time>
      </trkpt>
      <trkpt lat="47.07631" lon="3.98873">
        <ele>530</ele>
        <time>2022-07-23T08:49:58Z</time>
      </trkpt>
      <trkpt lat="47.07665" lon="3.98903">
        <ele>533</ele>
        <time>2022-07-23T08:50:06Z</time>
      </trkpt>
      <trkpt lat="47.07686" lon="3.98926">
        <ele>535</ele>
        <time>2022-07-23T08:50:10Z</time>
      </trkpt>
      <trkpt lat="47.07719" lon="3.98969">
        <ele>536</ele>
        <time>2022-07-23T08:50:18Z</time>
      </trkpt>
      <trkpt lat="47.07749" lon="3.99006">
        <ele>537</ele>
        <time>2022-07-23T08:50:25Z</time>
      </trkpt>
      <trkpt lat="47.07805" lon="3.99049">
        <ele>543</ele>
        <time>2022-07-23T08:50:36Z</time>
      </trkpt>
      <trkpt lat="47.07849" lon="3.99075">
        <ele>548</ele>
        <time>2022-07-23T08:50:45Z</time>
      </trkpt>
      <trkpt lat="47.07862" lon="3.9908">
        <ele>551</ele>
        <time>2022-07-23T08:50:47Z</time>
      </trkpt>
      <trkpt lat="47.07877" lon="3.99079">
        <ele>554</ele>
        <time>2022-07-23T08:50:50Z</time>
      </trkpt>
      <trkpt lat="47.0788" lon="3.99093">
        <ele>555</ele>
        <time>2022-07-23T08:50:52Z</time>
      </trkpt>
      <trkpt lat="47.0788" lon="3.99102">
        <ele>555</ele>
        <time>2022-07-23T08:50:53Z</time>
      </trkpt>
      <trkpt lat="47.07872" lon="3.99167">
        <ele>556</ele>
        <time>2022-07-23T08:51:01Z</time>
      </trkpt>
      <trkpt lat="47.07874" lon="3.99188">
        <ele>556</ele>
        <time>2022-07-23T08:51:03Z</time>
      </trkpt>
      <trkpt lat="47.07936" lon="3.99279">
        <ele>568</ele>
        <time>2022-07-23T08:51:19Z</time>
      </trkpt>
      <trkpt lat="47.07966" lon="3.99338">
        <ele>571</ele>
        <time>2022-07-23T08:51:28Z</time>
      </trkpt>
      <trkpt lat="47.07993" lon="3.99375">
        <ele>571</ele>
        <time>2022-07-23T08:51:34Z</time>
      </trkpt>
      <trkpt lat="47.08034" lon="3.99407">
        <ele>578</ele>
        <time>2022-07-23T08:51:43Z</time>
      </trkpt>
      <trkpt lat="47.0806" lon="3.99433">
        <ele>583</ele>
        <time>2022-07-23T08:51:48Z</time>
      </trkpt>
      <trkpt lat="47.08073" lon="3.9945">
        <ele>586</ele>
        <time>2022-07-23T08:51:51Z</time>
      </trkpt>
      <trkpt lat="47.08081" lon="3.99467">
        <ele>588</ele>
        <time>2022-07-23T08:51:54Z</time>
      </trkpt>
      <trkpt lat="47.08083" lon="3.99484">
        <ele>587</ele>
        <time>2022-07-23T08:51:56Z</time>
      </trkpt>
      <trkpt lat="47.08081" lon="3.9949">
        <ele>586</ele>
        <time>2022-07-23T08:51:57Z</time>
      </trkpt>
      <trkpt lat="47.08073" lon="3.995">
        <ele>583</ele>
        <time>2022-07-23T08:51:58Z</time>
      </trkpt>
      <trkpt lat="47.08029" lon="3.99512">
        <ele>575</ele>
        <time>2022-07-23T08:52:06Z</time>
      </trkpt>
      <trkpt lat="47.07991" lon="3.99532">
        <ele>570</ele>
        <time>2022-07-23T08:52:14Z</time>
      </trkpt>
      <trkpt lat="47.07969" lon="3.99546">
        <ele>567</ele>
        <time>2022-07-23T08:52:18Z</time>
      </trkpt>
      <trkpt lat="47.07958" lon="3.99561">
        <ele>567</ele>
        <time>2022-07-23T08:52:21Z</time>
      </trkpt>
      <trkpt lat="47.07944" lon="3.99597">
        <ele>569</ele>
        <time>2022-07-23T08:52:26Z</time>
      </trkpt>
      <trkpt lat="47.0793" lon="3.9962">
        <ele>568</ele>
        <time>2022-07-23T08:52:29Z</time>
      </trkpt>
      <trkpt lat="47.0791" lon="3.99662">
        <ele>570</ele>
        <time>2022-07-23T08:52:36Z</time>
      </trkpt>
      <trkpt lat="47.07905" lon="3.997">
        <ele>575</ele>
        <time>2022-07-23T08:52:40Z</time>
      </trkpt>
      <trkpt lat="47.07896" lon="3.99732">
        <ele>578</ele>
        <time>2022-07-23T08:52:44Z</time>
      </trkpt>
      <trkpt lat="47.07885" lon="3.99741">
        <ele>579</ele>
        <time>2022-07-23T08:52:47Z</time>
      </trkpt>
      <trkpt lat="47.07865" lon="3.99744">
        <ele>579</ele>
        <time>2022-07-23T08:52:50Z</time>
      </trkpt>
      <trkpt lat="47.07854" lon="3.99741">
        <ele>578</ele>
        <time>2022-07-23T08:52:52Z</time>
      </trkpt>
      <trkpt lat="47.07844" lon="3.99733">
        <ele>576</ele>
        <time>2022-07-23T08:52:54Z</time>
      </trkpt>
      <trkpt lat="47.07831" lon="3.99714">
        <ele>572</ele>
        <time>2022-07-23T08:52:58Z</time>
      </trkpt>
      <trkpt lat="47.07813" lon="3.99677">
        <ele>566</ele>
        <time>2022-07-23T08:53:03Z</time>
      </trkpt>
      <trkpt lat="47.07802" lon="3.99663">
        <ele>565</ele>
        <time>2022-07-23T08:53:06Z</time>
      </trkpt>
      <trkpt lat="47.07791" lon="3.9966">
        <ele>565</ele>
        <time>2022-07-23T08:53:08Z</time>
      </trkpt>
      <trkpt lat="47.07773" lon="3.99663">
        <ele>566</ele>
        <time>2022-07-23T08:53:11Z</time>
      </trkpt>
      <trkpt lat="47.0776" lon="3.99672">
        <ele>567</ele>
        <time>2022-07-23T08:53:13Z</time>
      </trkpt>
      <trkpt lat="47.07741" lon="3.99688">
        <ele>567</ele>
        <time>2022-07-23T08:53:17Z</time>
      </trkpt>
      <trkpt lat="47.07732" lon="3.99715">
        <ele>568</ele>
        <time>2022-07-23T08:53:21Z</time>
      </trkpt>
      <trkpt lat="47.07715" lon="3.9978">
        <ele>570</ele>
        <time>2022-07-23T08:53:29Z</time>
      </trkpt>
      <trkpt lat="47.07682" lon="3.99872">
        <ele>570</ele>
        <time>2022-07-23T08:53:42Z</time>
      </trkpt>
      <trkpt lat="47.07657" lon="3.99931">
        <ele>569</ele>
        <time>2022-07-23T08:53:50Z</time>
      </trkpt>
      <trkpt lat="47.07644" lon="3.9995">
        <ele>567</ele>
        <time>2022-07-23T08:53:54Z</time>
      </trkpt>
      <trkpt lat="47.07637" lon="3.9997">
        <ele>566</ele>
        <time>2022-07-23T08:53:56Z</time>
      </trkpt>
      <trkpt lat="47.0764" lon="3.99992">
        <ele>565</ele>
        <time>2022-07-23T08:53:59Z</time>
      </trkpt>
      <trkpt lat="47.07661" lon="4.00014">
        <ele>564</ele>
        <time>2022-07-23T08:54:04Z</time>
      </trkpt>
      <trkpt lat="47.07706" lon="4.00039">
        <ele>568</ele>
        <time>2022-07-23T08:54:12Z</time>
      </trkpt>
      <trkpt lat="47.07716" lon="4.00056">
        <ele>568</ele>
        <time>2022-07-23T08:54:15Z</time>
      </trkpt>
      <trkpt lat="47.07722" lon="4.00078">
        <ele>567</ele>
        <time>2022-07-23T08:54:18Z</time>
      </trkpt>
      <trkpt lat="47.07725" lon="4.00112">
        <ele>569</ele>
        <time>2022-07-23T08:54:22Z</time>
      </trkpt>
      <trkpt lat="47.07716" lon="4.0015">
        <ele>570</ele>
        <time>2022-07-23T08:54:27Z</time>
      </trkpt>
      <trkpt lat="47.07696" lon="4.00173">
        <ele>568</ele>
        <time>2022-07-23T08:54:31Z</time>
      </trkpt>
      <trkpt lat="47.07659" lon="4.00201">
        <ele>563</ele>
        <time>2022-07-23T08:54:39Z</time>
      </trkpt>
      <trkpt lat="47.07648" lon="4.00215">
        <ele>562</ele>
        <time>2022-07-23T08:54:41Z</time>
      </trkpt>
      <trkpt lat="47.07641" lon="4.00239">
        <ele>563</ele>
        <time>2022-07-23T08:54:45Z</time>
      </trkpt>
      <trkpt lat="47.0764" lon="4.00275">
        <ele>564</ele>
        <time>2022-07-23T08:54:49Z</time>
      </trkpt>
      <trkpt lat="47.07644" lon="4.00311">
        <ele>565</ele>
        <time>2022-07-23T08:54:53Z</time>
      </trkpt>
      <trkpt lat="47.07668" lon="4.00382">
        <ele>571</ele>
        <time>2022-07-23T08:55:03Z</time>
      </trkpt>
      <trkpt lat="47.07693" lon="4.00494">
        <ele>570</ele>
        <time>2022-07-23T08:55:17Z</time>
      </trkpt>
      <trkpt lat="47.07712" lon="4.00555">
        <ele>572</ele>
        <time>2022-07-23T08:55:25Z</time>
      </trkpt>
      <trkpt lat="47.07726" lon="4.00578">
        <ele>574</ele>
        <time>2022-07-23T08:55:29Z</time>
      </trkpt>
      <trkpt lat="47.07739" lon="4.0059">
        <ele>577</ele>
        <time>2022-07-23T08:55:32Z</time>
      </trkpt>
      <trkpt lat="47.07764" lon="4.00606">
        <ele>584</ele>
        <time>2022-07-23T08:55:37Z</time>
      </trkpt>
      <trkpt lat="47.07774" lon="4.00619">
        <ele>587</ele>
        <time>2022-07-23T08:55:39Z</time>
      </trkpt>
      <trkpt lat="47.07775" lon="4.00631">
        <ele>588</ele>
        <time>2022-07-23T08:55:41Z</time>
      </trkpt>
      <trkpt lat="47.0777" lon="4.00646">
        <ele>587</ele>
        <time>2022-07-23T08:55:43Z</time>
      </trkpt>
      <trkpt lat="47.07747" lon="4.0067">
        <ele>584</ele>
        <time>2022-07-23T08:55:48Z</time>
      </trkpt>
      <trkpt lat="47.07718" lon="4.00691">
        <ele>583</ele>
        <time>2022-07-23T08:55:53Z</time>
      </trkpt>
      <trkpt lat="47.0769" lon="4.00717">
        <ele>581</ele>
        <time>2022-07-23T08:55:59Z</time>
      </trkpt>
      <trkpt lat="47.07632" lon="4.00863">
        <ele>590</ele>
        <time>2022-07-23T08:56:20Z</time>
      </trkpt>
      <trkpt lat="47.0761" lon="4.00939">
        <ele>592</ele>
        <time>2022-07-23T08:56:30Z</time>
      </trkpt>
      <trkpt lat="47.07601" lon="4.00979">
        <ele>592</ele>
        <time>2022-07-23T08:56:35Z</time>
      </trkpt>
      <trkpt lat="47.07602" lon="4.01">
        <ele>594</ele>
        <time>2022-07-23T08:56:37Z</time>
      </trkpt>
      <trkpt lat="47.07606" lon="4.01026">
        <ele>597</ele>
        <time>2022-07-23T08:56:41Z</time>
      </trkpt>
      <trkpt lat="47.07616" lon="4.01045">
        <ele>600</ele>
        <time>2022-07-23T08:56:43Z</time>
      </trkpt>
      <trkpt lat="47.07632" lon="4.01062">
        <ele>604</ele>
        <time>2022-07-23T08:56:47Z</time>
      </trkpt>
      <trkpt lat="47.07644" lon="4.01097">
        <ele>607</ele>
        <time>2022-07-23T08:56:52Z</time>
      </trkpt>
      <trkpt lat="47.07645" lon="4.01126">
        <ele>608</ele>
        <time>2022-07-23T08:56:55Z</time>
      </trkpt>
      <trkpt lat="47.07641" lon="4.01149">
        <ele>608</ele>
        <time>2022-07-23T08:56:58Z</time>
      </trkpt>
      <trkpt lat="47.0763" lon="4.01161">
        <ele>609</ele>
        <time>2022-07-23T08:57:01Z</time>
      </trkpt>
      <trkpt lat="47.07608" lon="4.01161">
        <ele>609</ele>
        <time>2022-07-23T08:57:05Z</time>
      </trkpt>
      <trkpt lat="47.07547" lon="4.0112">
        <ele>611</ele>
        <time>2022-07-23T08:57:16Z</time>
      </trkpt>
      <trkpt lat="47.07464" lon="4.01044">
        <ele>617</ele>
        <time>2022-07-23T08:57:34Z</time>
      </trkpt>
      <trkpt lat="47.07446" lon="4.01025">
        <ele>620</ele>
        <time>2022-07-23T08:57:38Z</time>
      </trkpt>
      <trkpt lat="47.07441" lon="4.00993">
        <ele>618</ele>
        <time>2022-07-23T08:57:42Z</time>
      </trkpt>
      <trkpt lat="47.07439" lon="4.00959">
        <ele>619</ele>
        <time>2022-07-23T08:57:46Z</time>
      </trkpt>
      <trkpt lat="47.07437" lon="4.00881">
        <ele>620</ele>
        <time>2022-07-23T08:57:55Z</time>
      </trkpt>
      <trkpt lat="47.07438" lon="4.00833">
        <ele>620</ele>
        <time>2022-07-23T08:58:01Z</time>
      </trkpt>
      <trkpt lat="47.07434" lon="4.00793">
        <ele>621</ele>
        <time>2022-07-23T08:58:06Z</time>
      </trkpt>
      <trkpt lat="47.07423" lon="4.00762">
        <ele>623</ele>
        <time>2022-07-23T08:58:10Z</time>
      </trkpt>
      <trkpt lat="47.07404" lon="4.00744">
        <ele>624</ele>
        <time>2022-07-23T08:58:14Z</time>
      </trkpt>
      <trkpt lat="47.07383" lon="4.00737">
        <ele>625</ele>
        <time>2022-07-23T08:58:18Z</time>
      </trkpt>
      <trkpt lat="47.07365" lon="4.00738">
        <ele>626</ele>
        <time>2022-07-23T08:58:21Z</time>
      </trkpt>
      <trkpt lat="47.07348" lon="4.00749">
        <ele>628</ele>
        <time>2022-07-23T08:58:25Z</time>
      </trkpt>
      <trkpt lat="47.07226" lon="4.01013">
        <ele>637</ele>
        <time>2022-07-23T08:59:03Z</time>
      </trkpt>
      <trkpt lat="47.0721" lon="4.01066">
        <ele>640</ele>
        <time>2022-07-23T08:59:10Z</time>
      </trkpt>
      <trkpt lat="47.07204" lon="4.01096">
        <ele>642</ele>
        <time>2022-07-23T08:59:14Z</time>
      </trkpt>
      <trkpt lat="47.07192" lon="4.01257">
        <ele>657</ele>
        <time>2022-07-23T08:59:34Z</time>
      </trkpt>
      <trkpt lat="47.07192" lon="4.01306">
        <ele>661</ele>
        <time>2022-07-23T08:59:40Z</time>
      </trkpt>
      <trkpt lat="47.07195" lon="4.01351">
        <ele>664</ele>
        <time>2022-07-23T08:59:45Z</time>
      </trkpt>
      <trkpt lat="47.0721" lon="4.01422">
        <ele>671</ele>
        <time>2022-07-23T08:59:54Z</time>
      </trkpt>
      <trkpt lat="47.07213" lon="4.01471">
        <ele>676</ele>
        <time>2022-07-23T09:00:00Z</time>
      </trkpt>
      <trkpt lat="47.07214" lon="4.0153">
        <ele>681</ele>
        <time>2022-07-23T09:00:07Z</time>
      </trkpt>
      <trkpt lat="47.07208" lon="4.01593">
        <ele>684</ele>
        <time>2022-07-23T09:00:15Z</time>
      </trkpt>
      <trkpt lat="47.07198" lon="4.01646">
        <ele>685</ele>
        <time>2022-07-23T09:00:22Z</time>
      </trkpt>
      <trkpt lat="47.07183" lon="4.0174">
        <ele>686</ele>
        <time>2022-07-23T09:00:33Z</time>
      </trkpt>
      <trkpt lat="47.07185" lon="4.01806">
        <ele>687</ele>
        <time>2022-07-23T09:00:41Z</time>
      </trkpt>
      <trkpt lat="47.07176" lon="4.01834">
        <ele>684</ele>
        <time>2022-07-23T09:00:45Z</time>
      </trkpt>
      <trkpt lat="47.07169" lon="4.01877">
        <ele>683</ele>
        <time>2022-07-23T09:00:51Z</time>
      </trkpt>
      <trkpt lat="47.07151" lon="4.0203">
        <ele>675</ele>
        <time>2022-07-23T09:01:09Z</time>
      </trkpt>
      <trkpt lat="47.07156" lon="4.02087">
        <ele>672</ele>
        <time>2022-07-23T09:01:16Z</time>
      </trkpt>
      <trkpt lat="47.07166" lon="4.02145">
        <ele>671</ele>
        <time>2022-07-23T09:01:24Z</time>
      </trkpt>
      <trkpt lat="47.07166" lon="4.02161">
        <ele>670</ele>
        <time>2022-07-23T09:01:25Z</time>
      </trkpt>
      <trkpt lat="47.07165" lon="4.02177">
        <ele>670</ele>
        <time>2022-07-23T09:01:27Z</time>
      </trkpt>
      <trkpt lat="47.0716" lon="4.02199">
        <ele>670</ele>
        <time>2022-07-23T09:01:30Z</time>
      </trkpt>
      <trkpt lat="47.0711" lon="4.02364">
        <ele>667</ele>
        <time>2022-07-23T09:01:52Z</time>
      </trkpt>
      <trkpt lat="47.07102" lon="4.02406">
        <ele>666</ele>
        <time>2022-07-23T09:01:57Z</time>
      </trkpt>
      <trkpt lat="47.07098" lon="4.0244">
        <ele>667</ele>
        <time>2022-07-23T09:02:02Z</time>
      </trkpt>
      <trkpt lat="47.07096" lon="4.02473">
        <ele>668</ele>
        <time>2022-07-23T09:02:06Z</time>
      </trkpt>
      <trkpt lat="47.0709" lon="4.02623">
        <ele>672</ele>
        <time>2022-07-23T09:02:24Z</time>
      </trkpt>
      <trkpt lat="47.07086" lon="4.02655">
        <ele>672</ele>
        <time>2022-07-23T09:02:28Z</time>
      </trkpt>
      <trkpt lat="47.07079" lon="4.02666">
        <ele>671</ele>
        <time>2022-07-23T09:02:30Z</time>
      </trkpt>
      <trkpt lat="47.07068" lon="4.02676">
        <ele>671</ele>
        <time>2022-07-23T09:02:32Z</time>
      </trkpt>
      <trkpt lat="47.07048" lon="4.02689">
        <ele>670</ele>
        <time>2022-07-23T09:02:36Z</time>
      </trkpt>
      <trkpt lat="47.07019" lon="4.02698">
        <ele>667</ele>
        <time>2022-07-23T09:02:41Z</time>
      </trkpt>
      <trkpt lat="47.06996" lon="4.02704">
        <ele>664</ele>
        <time>2022-07-23T09:02:45Z</time>
      </trkpt>
      <trkpt lat="47.06969" lon="4.02706">
        <ele>662</ele>
        <time>2022-07-23T09:02:50Z</time>
      </trkpt>
      <trkpt lat="47.06947" lon="4.02702">
        <ele>659</ele>
        <time>2022-07-23T09:02:54Z</time>
      </trkpt>
      <trkpt lat="47.06906" lon="4.02686">
        <ele>653</ele>
        <time>2022-07-23T09:03:02Z</time>
      </trkpt>
      <trkpt lat="47.0689" lon="4.02678">
        <ele>651</ele>
        <time>2022-07-23T09:03:05Z</time>
      </trkpt>
      <trkpt lat="47.06674" lon="4.02509">
        <ele>635</ele>
        <time>2022-07-23T09:03:48Z</time>
      </trkpt>
      <trkpt lat="47.0666" lon="4.02501">
        <ele>632</ele>
        <time>2022-07-23T09:03:51Z</time>
      </trkpt>
      <trkpt lat="47.06647" lon="4.02498">
        <ele>630</ele>
        <time>2022-07-23T09:03:53Z</time>
      </trkpt>
      <trkpt lat="47.06633" lon="4.02498">
        <ele>628</ele>
        <time>2022-07-23T09:03:56Z</time>
      </trkpt>
      <trkpt lat="47.0662" lon="4.02503">
        <ele>627</ele>
        <time>2022-07-23T09:03:58Z</time>
      </trkpt>
      <trkpt lat="47.06519" lon="4.02573">
        <ele>623</ele>
        <time>2022-07-23T09:04:18Z</time>
      </trkpt>
      <trkpt lat="47.065" lon="4.02587">
        <ele>622</ele>
        <time>2022-07-23T09:04:22Z</time>
      </trkpt>
      <trkpt lat="47.06487" lon="4.02602">
        <ele>620</ele>
        <time>2022-07-23T09:04:25Z</time>
      </trkpt>
      <trkpt lat="47.06472" lon="4.02629">
        <ele>620</ele>
        <time>2022-07-23T09:04:29Z</time>
      </trkpt>
      <trkpt lat="47.06451" lon="4.02672">
        <ele>619</ele>
        <time>2022-07-23T09:04:35Z</time>
      </trkpt>
      <trkpt lat="47.06434" lon="4.02711">
        <ele>617</ele>
        <time>2022-07-23T09:04:41Z</time>
      </trkpt>
      <trkpt lat="47.06421" lon="4.02746">
        <ele>615</ele>
        <time>2022-07-23T09:04:46Z</time>
      </trkpt>
      <trkpt lat="47.06413" lon="4.02777">
        <ele>615</ele>
        <time>2022-07-23T09:04:50Z</time>
      </trkpt>
      <trkpt lat="47.06397" lon="4.02849">
        <ele>615</ele>
        <time>2022-07-23T09:04:59Z</time>
      </trkpt>
      <trkpt lat="47.06386" lon="4.02879">
        <ele>613</ele>
        <time>2022-07-23T09:05:03Z</time>
      </trkpt>
      <trkpt lat="47.06368" lon="4.02906">
        <ele>610</ele>
        <time>2022-07-23T09:05:08Z</time>
      </trkpt>
      <trkpt lat="47.06347" lon="4.02926">
        <ele>606</ele>
        <time>2022-07-23T09:05:12Z</time>
      </trkpt>
      <trkpt lat="47.0633" lon="4.02933">
        <ele>605</ele>
        <time>2022-07-23T09:05:15Z</time>
      </trkpt>
      <trkpt lat="47.06323" lon="4.02931">
        <ele>607</ele>
        <time>2022-07-23T09:05:16Z</time>
      </trkpt>
      <trkpt lat="47.06311" lon="4.02922">
        <ele>610</ele>
        <time>2022-07-23T09:05:19Z</time>
      </trkpt>
      <trkpt lat="47.06306" lon="4.02913">
        <ele>611</ele>
        <time>2022-07-23T09:05:20Z</time>
      </trkpt>
      <trkpt lat="47.06303" lon="4.02899">
        <ele>613</ele>
        <time>2022-07-23T09:05:22Z</time>
      </trkpt>
      <trkpt lat="47.06303" lon="4.02883">
        <ele>615</ele>
        <time>2022-07-23T09:05:24Z</time>
      </trkpt>
      <trkpt lat="47.06323" lon="4.02793">
        <ele>612</ele>
        <time>2022-07-23T09:05:35Z</time>
      </trkpt>
      <trkpt lat="47.06326" lon="4.02755">
        <ele>612</ele>
        <time>2022-07-23T09:05:40Z</time>
      </trkpt>
      <trkpt lat="47.06327" lon="4.02692">
        <ele>612</ele>
        <time>2022-07-23T09:05:48Z</time>
      </trkpt>
      <trkpt lat="47.06321" lon="4.02611">
        <ele>617</ele>
        <time>2022-07-23T09:05:58Z</time>
      </trkpt>
      <trkpt lat="47.06321" lon="4.02578">
        <ele>619</ele>
        <time>2022-07-23T09:06:02Z</time>
      </trkpt>
      <trkpt lat="47.06333" lon="4.02436">
        <ele>624</ele>
        <time>2022-07-23T09:06:19Z</time>
      </trkpt>
      <trkpt lat="47.06331" lon="4.02419">
        <ele>627</ele>
        <time>2022-07-23T09:06:21Z</time>
      </trkpt>
      <trkpt lat="47.0632" lon="4.02355">
        <ele>634</ele>
        <time>2022-07-23T09:06:29Z</time>
      </trkpt>
      <trkpt lat="47.06317" lon="4.02329">
        <ele>635</ele>
        <time>2022-07-23T09:06:32Z</time>
      </trkpt>
      <trkpt lat="47.06324" lon="4.02242">
        <ele>636</ele>
        <time>2022-07-23T09:06:43Z</time>
      </trkpt>
      <trkpt lat="47.06313" lon="4.02174">
        <ele>638</ele>
        <time>2022-07-23T09:06:51Z</time>
      </trkpt>
      <trkpt lat="47.06298" lon="4.0215">
        <ele>640</ele>
        <time>2022-07-23T09:06:55Z</time>
      </trkpt>
      <trkpt lat="47.06286" lon="4.0214">
        <ele>641</ele>
        <time>2022-07-23T09:06:58Z</time>
      </trkpt>
      <trkpt lat="47.06263" lon="4.0214">
        <ele>643</ele>
        <time>2022-07-23T09:07:02Z</time>
      </trkpt>
      <trkpt lat="47.06221" lon="4.02166">
        <ele>645</ele>
        <time>2022-07-23T09:07:10Z</time>
      </trkpt>
      <trkpt lat="47.06187" lon="4.02175">
        <ele>646</ele>
        <time>2022-07-23T09:07:16Z</time>
      </trkpt>
      <trkpt lat="47.06124" lon="4.02186">
        <ele>652</ele>
        <time>2022-07-23T09:07:27Z</time>
      </trkpt>
      <trkpt lat="47.06019" lon="4.02197">
        <ele>660</ele>
        <time>2022-07-23T09:07:46Z</time>
      </trkpt>
      <trkpt lat="47.05938" lon="4.02203">
        <ele>671</ele>
        <time>2022-07-23T09:08:00Z</time>
      </trkpt>
      <trkpt lat="47.0592" lon="4.02194">
        <ele>674</ele>
        <time>2022-07-23T09:08:04Z</time>
      </trkpt>
      <trkpt lat="47.05884" lon="4.02154">
        <ele>674</ele>
        <time>2022-07-23T09:08:12Z</time>
      </trkpt>
      <trkpt lat="47.05871" lon="4.02147">
        <ele>674</ele>
        <time>2022-07-23T09:08:14Z</time>
      </trkpt>
      <trkpt lat="47.05855" lon="4.02146">
        <ele>674</ele>
        <time>2022-07-23T09:08:17Z</time>
      </trkpt>
      <trkpt lat="47.05839" lon="4.02157">
        <ele>673</ele>
        <time>2022-07-23T09:08:20Z</time>
      </trkpt>
      <trkpt lat="47.05799" lon="4.02207">
        <ele>673</ele>
        <time>2022-07-23T09:08:30Z</time>
      </trkpt>
      <trkpt lat="47.05783" lon="4.02218">
        <ele>673</ele>
        <time>2022-07-23T09:08:33Z</time>
      </trkpt>
      <trkpt lat="47.05767" lon="4.02218">
        <ele>673</ele>
        <time>2022-07-23T09:08:36Z</time>
      </trkpt>
      <trkpt lat="47.05709" lon="4.0219">
        <ele>671</ele>
        <time>2022-07-23T09:08:47Z</time>
      </trkpt>
      <trkpt lat="47.05474" lon="4.02126">
        <ele>647</ele>
        <time>2022-07-23T09:09:29Z</time>
      </trkpt>
      <trkpt lat="47.05426" lon="4.02103">
        <ele>638</ele>
        <time>2022-07-23T09:09:38Z</time>
      </trkpt>
      <trkpt lat="47.0537" lon="4.02088">
        <ele>630</ele>
        <time>2022-07-23T09:09:48Z</time>
      </trkpt>
      <trkpt lat="47.05329" lon="4.02086">
        <ele>626</ele>
        <time>2022-07-23T09:09:55Z</time>
      </trkpt>
      <trkpt lat="47.05157" lon="4.02101">
        <ele>627</ele>
        <time>2022-07-23T09:10:26Z</time>
      </trkpt>
      <trkpt lat="47.05084" lon="4.02114">
        <ele>620</ele>
        <time>2022-07-23T09:10:39Z</time>
      </trkpt>
      <trkpt lat="47.05054" lon="4.02133">
        <ele>616</ele>
        <time>2022-07-23T09:10:45Z</time>
      </trkpt>
      <trkpt lat="47.04996" lon="4.02182">
        <ele>609</ele>
        <time>2022-07-23T09:10:57Z</time>
      </trkpt>
      <trkpt lat="47.04868" lon="4.02295">
        <ele>617</ele>
        <time>2022-07-23T09:11:24Z</time>
      </trkpt>
      <trkpt lat="47.04859" lon="4.02301">
        <ele>619</ele>
        <time>2022-07-23T09:11:25Z</time>
      </trkpt>
      <trkpt lat="47.04848" lon="4.02301">
        <ele>622</ele>
        <time>2022-07-23T09:11:27Z</time>
      </trkpt>
      <trkpt lat="47.04837" lon="4.02297">
        <ele>624</ele>
        <time>2022-07-23T09:11:29Z</time>
      </trkpt>
      <trkpt lat="47.04818" lon="4.02274">
        <ele>628</ele>
        <time>2022-07-23T09:11:34Z</time>
      </trkpt>
      <trkpt lat="47.04807" lon="4.02242">
        <ele>631</ele>
        <time>2022-07-23T09:11:38Z</time>
      </trkpt>
      <trkpt lat="47.04804" lon="4.02222">
        <ele>632</ele>
        <time>2022-07-23T09:11:40Z</time>
      </trkpt>
      <trkpt lat="47.04804" lon="4.0217">
        <ele>634</ele>
        <time>2022-07-23T09:11:47Z</time>
      </trkpt>
      <trkpt lat="47.04799" lon="4.02149">
        <ele>636</ele>
        <time>2022-07-23T09:11:49Z</time>
      </trkpt>
      <trkpt lat="47.04789" lon="4.02124">
        <ele>639</ele>
        <time>2022-07-23T09:11:53Z</time>
      </trkpt>
      <trkpt lat="47.04758" lon="4.02077">
        <ele>643</ele>
        <time>2022-07-23T09:12:01Z</time>
      </trkpt>
      <trkpt lat="47.04748" lon="4.02068">
        <ele>644</ele>
        <time>2022-07-23T09:12:03Z</time>
      </trkpt>
      <trkpt lat="47.04709" lon="4.02056">
        <ele>644</ele>
        <time>2022-07-23T09:12:10Z</time>
      </trkpt>
      <trkpt lat="47.04644" lon="4.02035">
        <ele>643</ele>
        <time>2022-07-23T09:12:22Z</time>
      </trkpt>
      <trkpt lat="47.04633" lon="4.02033">
        <ele>642</ele>
        <time>2022-07-23T09:12:24Z</time>
      </trkpt>
      <trkpt lat="47.04595" lon="4.02038">
        <ele>639</ele>
        <time>2022-07-23T09:12:31Z</time>
      </trkpt>
      <trkpt lat="47.04572" lon="4.02045">
        <ele>638</ele>
        <time>2022-07-23T09:12:35Z</time>
      </trkpt>
      <trkpt lat="47.04548" lon="4.02039">
        <ele>637</ele>
        <time>2022-07-23T09:12:39Z</time>
      </trkpt>
      <trkpt lat="47.04502" lon="4.02035">
        <ele>635</ele>
        <time>2022-07-23T09:12:47Z</time>
      </trkpt>
      <trkpt lat="47.04472" lon="4.02036">
        <ele>632</ele>
        <time>2022-07-23T09:12:53Z</time>
      </trkpt>
      <trkpt lat="47.04457" lon="4.02039">
        <ele>630</ele>
        <time>2022-07-23T09:12:55Z</time>
      </trkpt>
      <trkpt lat="47.04452" lon="4.02043">
        <ele>629</ele>
        <time>2022-07-23T09:12:56Z</time>
      </trkpt>
      <trkpt lat="47.04427" lon="4.02094">
        <ele>623</ele>
        <time>2022-07-23T09:13:04Z</time>
      </trkpt>
      <trkpt lat="47.0441" lon="4.02117">
        <ele>622</ele>
        <time>2022-07-23T09:13:08Z</time>
      </trkpt>
      <trkpt lat="47.04408" lon="4.0212">
        <ele>622</ele>
        <time>2022-07-23T09:13:09Z</time>
      </trkpt>
      <trkpt lat="47.04402" lon="4.02095">
        <ele>621</ele>
        <time>2022-07-23T09:13:12Z</time>
      </trkpt>
      <trkpt lat="47.04388" lon="4.02068">
        <ele>621</ele>
        <time>2022-07-23T09:13:16Z</time>
      </trkpt>
      <trkpt lat="47.04332" lon="4.02004">
        <ele>621</ele>
        <time>2022-07-23T09:13:29Z</time>
      </trkpt>
      <trkpt lat="47.04327" lon="4.01996">
        <ele>621</ele>
        <time>2022-07-23T09:13:30Z</time>
      </trkpt>
      <trkpt lat="47.04322" lon="4.01983">
        <ele>621</ele>
        <time>2022-07-23T09:13:32Z</time>
      </trkpt>
      <trkpt lat="47.04322" lon="4.0197">
        <ele>622</ele>
        <time>2022-07-23T09:13:33Z</time>
      </trkpt>
      <trkpt lat="47.04324" lon="4.01966">
        <ele>623</ele>
        <time>2022-07-23T09:13:34Z</time>
      </trkpt>
      <trkpt lat="47.04319" lon="4.01955">
        <ele>623</ele>
        <time>2022-07-23T09:13:36Z</time>
      </trkpt>
      <trkpt lat="47.04293" lon="4.01845">
        <ele>623</ele>
        <time>2022-07-23T09:13:50Z</time>
      </trkpt>
      <trkpt lat="47.04278" lon="4.01788">
        <ele>622</ele>
        <time>2022-07-23T09:13:57Z</time>
      </trkpt>
      <trkpt lat="47.0427" lon="4.01744">
        <ele>622</ele>
        <time>2022-07-23T09:14:03Z</time>
      </trkpt>
      <trkpt lat="47.04268" lon="4.01703">
        <ele>622</ele>
        <time>2022-07-23T09:14:08Z</time>
      </trkpt>
      <trkpt lat="47.0427" lon="4.01675">
        <ele>622</ele>
        <time>2022-07-23T09:14:11Z</time>
      </trkpt>
      <trkpt lat="47.04203" lon="4.01452">
        <ele>626.1</ele>
      </trkpt>
      <trkpt lat="47.04124" lon="4.01426">
        <ele>626</ele>
      </trkpt>
      <trkpt lat="47.03735" lon="4.01447">
        <ele>620.3</ele>
      </trkpt>
      <trkpt lat="47.03645" lon="4.0143">
        <ele>613</ele>
      </trkpt>
      <trkpt lat="47.0358" lon="4.01293">
        <ele>611.1</ele>
      </trkpt>
      <trkpt lat="47.03487" lon="4.01207">
        <ele>602.9</ele>
      </trkpt>
      <trkpt lat="47.03379" lon="4.01164">
        <ele>602.2</ele>
      </trkpt>
      <trkpt lat="47.03303" lon="4.00997">
        <ele>601.4</ele>
      </trkpt>
      <trkpt lat="47.03253" lon="4.00881">
        <ele>590.5</ele>
      </trkpt>
      <trkpt lat="47.03224" lon="4.00709">
        <ele>590.7</ele>
      </trkpt>
      <trkpt lat="47.03171" lon="4.00628">
        <ele>586</ele>
      </trkpt>
      <trkpt lat="47.03147" lon="4.00568">
        <ele>583.2</ele>
      </trkpt>
      <trkpt lat="47.03174" lon="4.0043">
        <ele>587.2</ele>
      </trkpt>
      <trkpt lat="47.032" lon="4.00336">
        <ele>591.8</ele>
      </trkpt>
      <trkpt lat="47.03194" lon="4.00216">
        <ele>591</ele>
      </trkpt>
      <trkpt lat="47.03136" lon="4.001">
        <ele>584.4</ele>
      </trkpt>
      <trkpt lat="47.03066" lon="3.99864">
        <ele>572.4</ele>
      </trkpt>
      <trkpt lat="47.02975" lon="3.99589">
        <ele>570.9</ele>
      </trkpt>
      <trkpt lat="47.02586" lon="3.99838">
        <ele>561.2</ele>
      </trkpt>
      <trkpt lat="47.02478" lon="3.99859">
        <ele>566.6</ele>
      </trkpt>
      <trkpt lat="47.0239" lon="3.99774">
        <ele>561.3</ele>
      </trkpt>
      <trkpt lat="47.02308" lon="3.99692">
        <ele>556.6</ele>
      </trkpt>
      <trkpt lat="47.02285" lon="3.99593">
        <ele>553.4</ele>
      </trkpt>
      <trkpt lat="47.02311" lon="3.99478">
        <ele>550.5</ele>
      </trkpt>
      <trkpt lat="47.02334" lon="3.99383">
        <ele>545.6</ele>
      </trkpt>
      <trkpt lat="47.0229" lon="3.99314">
        <ele>541.9</ele>
      </trkpt>
      <trkpt lat="47.02132" lon="3.99241">
        <ele>532.8</ele>
      </trkpt>
      <trkpt lat="47.0205" lon="3.99272">
        <ele>532.1</ele>
      </trkpt>
      <trkpt lat="47.0196" lon="3.99289">
        <ele>524.1</ele>
      </trkpt>
      <trkpt lat="47.01881" lon="3.99289">
        <ele>525.1</ele>
      </trkpt>
      <trkpt lat="47.01775" lon="3.99169">
        <ele>511.5</ele>
      </trkpt>
      <trkpt lat="47.01632" lon="3.99113">
        <ele>502.9</ele>
      </trkpt>
      <trkpt lat="47.01547" lon="3.98881">
        <ele>501.7</ele>
      </trkpt>
      <trkpt lat="47.01522" lon="3.98838">
        <ele>502</ele>
      </trkpt>
      <trkpt lat="47.01488" lon="3.98849">
        <ele>506.6</ele>
      </trkpt>
      <trkpt lat="47.01468" lon="3.98825">
        <ele>508.1</ele>
      </trkpt>
      <trkpt lat="47.01428" lon="3.98696">
        <ele>510.1</ele>
      </trkpt>
      <trkpt lat="47.01384" lon="3.98645">
        <ele>515.6</ele>
      </trkpt>
      <trkpt lat="47.01308" lon="3.98576">
        <ele>521.1</ele>
      </trkpt>
      <trkpt lat="47.01212" lon="3.98583">
        <ele>529.7</ele>
      </trkpt>
      <trkpt lat="47.01187" lon="3.98578">
        <ele>531.7</ele>
      </trkpt>
      <trkpt lat="47.01165" lon="3.98553">
        <ele>534.3</ele>
      </trkpt>
      <trkpt lat="47.01121" lon="3.98478">
        <ele>540.9</ele>
      </trkpt>
      <trkpt lat="47.01096" lon="3.98445">
        <ele>542.4</ele>
      </trkpt>
      <trkpt lat="47.01064" lon="3.98452">
        <ele>541.8</ele>
      </trkpt>
      <trkpt lat="47.00698" lon="3.98705">
        <ele>561.6</ele>
      </trkpt>
      <trkpt lat="47.0064" lon="3.98739">
        <ele>563.4</ele>
      </trkpt>
      <trkpt lat="47.00133" lon="3.98877">
        <ele>578</ele>
      </trkpt>
      <trkpt lat="46.99895" lon="3.99051">
        <ele>579.1</ele>
      </trkpt>
      <trkpt lat="46.99751" lon="3.99205">
        <ele>577.8</ele>
      </trkpt>
      <trkpt lat="46.99677" lon="3.99312">
        <ele>576.6</ele>
      </trkpt>
      <trkpt lat="46.99643" lon="3.99525">
        <ele>582.7</ele>
      </trkpt>
      <trkpt lat="46.99593" lon="3.99604">
        <ele>585</ele>
      </trkpt>
      <trkpt lat="46.99542" lon="3.99613">
        <ele>589.5</ele>
      </trkpt>
      <trkpt lat="46.99465" lon="3.99581">
        <ele>593</ele>
      </trkpt>
      <trkpt lat="46.99268" lon="3.99497">
        <ele>590.4</ele>
      </trkpt>
      <trkpt lat="46.99198" lon="3.99435">
        <ele>585.7</ele>
      </trkpt>
      <trkpt lat="46.99144" lon="3.99437">
        <ele>586.6</ele>
      </trkpt>
      <trkpt lat="46.99107" lon="3.99473">
        <ele>587.6</ele>
      </trkpt>
      <trkpt lat="46.99051" lon="3.99662">
        <ele>589.6</ele>
      </trkpt>
      <trkpt lat="46.98989" lon="3.99653">
        <ele>595.2</ele>
      </trkpt>
      <trkpt lat="46.98799" lon="3.99688">
        <ele>594.2</ele>
      </trkpt>
      <trkpt lat="46.98644" lon="3.99718">
        <ele>594.1</ele>
      </trkpt>
      <trkpt lat="46.98568" lon="3.99632">
        <ele>592.3</ele>
      </trkpt>
      <trkpt lat="46.98509" lon="3.99632">
        <ele>594</ele>
      </trkpt>
      <trkpt lat="46.98459" lon="3.99692">
        <ele>595.8</ele>
      </trkpt>
      <trkpt lat="46.9841" lon="3.99744">
        <ele>591.6</ele>
      </trkpt>
      <trkpt lat="46.98363" lon="3.99714">
        <ele>597.8</ele>
      </trkpt>
      <trkpt lat="46.98345" lon="3.99619">
        <ele>596.3</ele>
      </trkpt>
      <trkpt lat="46.9826" lon="3.99641">
        <ele>599.1</ele>
      </trkpt>
      <trkpt lat="46.98193" lon="3.99679">
        <ele>603.2</ele>
      </trkpt>
      <trkpt lat="46.9812" lon="3.99653">
        <ele>605.8</ele>
      </trkpt>
      <trkpt lat="46.98047" lon="3.99606">
        <ele>607.9</ele>
      </trkpt>
      <trkpt lat="46.97959" lon="3.99576">
        <ele>610.9</ele>
      </trkpt>
      <trkpt lat="46.97909" lon="3.99499">
        <ele>611.5</ele>
      </trkpt>
      <trkpt lat="46.97883" lon="3.99456">
        <ele>610.1</ele>
      </trkpt>
      <trkpt lat="46.97786" lon="3.9949">
        <ele>613.5</ele>
      </trkpt>
      <trkpt lat="46.97719" lon="3.99555">
        <ele>611.2</ele>
      </trkpt>
      <trkpt lat="46.97695" lon="3.99619">
        <ele>614.6</ele>
      </trkpt>
      <trkpt lat="46.97582" lon="3.99559">
        <ele>610.7</ele>
      </trkpt>
      <trkpt lat="46.97524" lon="3.99553">
        <ele>611.7</ele>
      </trkpt>
      <trkpt lat="46.97471" lon="3.99553">
        <ele>614.4</ele>
      </trkpt>
      <trkpt lat="46.97436" lon="3.99574">
        <ele>616.9</ele>
      </trkpt>
      <trkpt lat="46.97377" lon="3.99587">
        <ele>623.3</ele>
      </trkpt>
      <trkpt lat="46.97338" lon="3.99585">
        <ele>626.4</ele>
      </trkpt>
      <trkpt lat="46.97295" lon="3.99568">
        <ele>628.1</ele>
      </trkpt>
      <trkpt lat="46.97264" lon="3.99608">
        <ele>625.9</ele>
      </trkpt>
      <trkpt lat="46.97275" lon="3.99641">
        <ele>629.4</ele>
      </trkpt>
      <trkpt lat="46.97307" lon="3.99666">
        <ele>629.5</ele>
      </trkpt>
      <trkpt lat="46.97342" lon="3.99699">
        <ele>629.3</ele>
      </trkpt>
      <trkpt lat="46.97354" lon="3.99741">
        <ele>631.4</ele>
      </trkpt>
      <trkpt lat="46.97364" lon="3.99791">
        <ele>632.9</ele>
      </trkpt>
      <trkpt lat="46.97368" lon="3.99877">
        <ele>634.5</ele>
      </trkpt>
      <trkpt lat="46.97361" lon="3.99962">
        <ele>641.7</ele>
      </trkpt>
      <trkpt lat="46.97367" lon="4.0004">
        <ele>642.6</ele>
      </trkpt>
      <trkpt lat="46.97354" lon="4.00123">
        <ele>647.8</ele>
      </trkpt>
      <trkpt lat="46.97332" lon="4.00244">
        <ele>655.9</ele>
      </trkpt>
      <trkpt lat="46.97324" lon="4.00329">
        <ele>657.1</ele>
      </trkpt>
      <trkpt lat="46.97305" lon="4.00379">
        <ele>661.4</ele>
      </trkpt>
      <trkpt lat="46.97267" lon="4.00458">
        <ele>662.8</ele>
      </trkpt>
      <trkpt lat="46.97242" lon="4.00499">
        <ele>667.8</ele>
      </trkpt>
      <trkpt lat="46.97219" lon="4.00563">
        <ele>671.8</ele>
      </trkpt>
      <trkpt lat="46.97191" lon="4.00595">
        <ele>674.8</ele>
      </trkpt>
      <trkpt lat="46.97032" lon="4.00574">
        <ele>686.6</ele>
      </trkpt>
      <trkpt lat="46.96926" lon="4.0055">
        <ele>683.9</ele>
      </trkpt>
      <trkpt lat="46.969" lon="4.00557">
        <ele>684.4</ele>
      </trkpt>
      <trkpt lat="46.96888" lon="4.00593">
        <ele>685.2</ele>
      </trkpt>
      <trkpt lat="46.96863" lon="4.00735">
        <ele>686.2</ele>
      </trkpt>
      <trkpt lat="46.9684" lon="4.00759">
        <ele>687.1</ele>
      </trkpt>
      <trkpt lat="46.96715" lon="4.00973">
        <ele>686.1</ele>
      </trkpt>
      <trkpt lat="46.96667" lon="4.01007">
        <ele>684.8</ele>
      </trkpt>
      <trkpt lat="46.96642" lon="4.00992">
        <ele>684.5</ele>
      </trkpt>
      <trkpt lat="46.96601" lon="4.0096">
        <ele>687</ele>
      </trkpt>
      <trkpt lat="46.96564" lon="4.00937">
        <ele>689.2</ele>
      </trkpt>
      <trkpt lat="46.96526" lon="4.00937">
        <ele>688.6</ele>
      </trkpt>
      <trkpt lat="46.96506" lon="4.00952">
        <ele>688.3</ele>
      </trkpt>
      <trkpt lat="46.96481" lon="4.00997">
        <ele>690.3</ele>
      </trkpt>
      <trkpt lat="46.96456" lon="4.01044">
        <ele>696.8</ele>
      </trkpt>
      <trkpt lat="46.96427" lon="4.01053">
        <ele>698.3</ele>
      </trkpt>
      <trkpt lat="46.96398" lon="4.0105">
        <ele>697.3</ele>
      </trkpt>
      <trkpt lat="46.96277" lon="4.01304">
        <ele>712.9</ele>
      </trkpt>
      <trkpt lat="46.96269" lon="4.01362">
        <ele>717.4</ele>
      </trkpt>
      <trkpt lat="46.96258" lon="4.01419">
        <ele>719.9</ele>
      </trkpt>
      <trkpt lat="46.96232" lon="4.01484">
        <ele>724.5</ele>
      </trkpt>
      <trkpt lat="46.96207" lon="4.01548">
        <ele>729.5</ele>
      </trkpt>
      <trkpt lat="46.96184" lon="4.0161">
        <ele>734.5</ele>
      </trkpt>
      <trkpt lat="46.96169" lon="4.01681">
        <ele>736.6</ele>
      </trkpt>
      <trkpt lat="46.96169" lon="4.01765">
        <ele>737</ele>
      </trkpt>
      <trkpt lat="46.96168" lon="4.0184">
        <ele>736.9</ele>
      </trkpt>
      <trkpt lat="46.96152" lon="4.02327">
        <ele>727.9</ele>
      </trkpt>
      <trkpt lat="46.9615" lon="4.02426">
        <ele>723.7</ele>
      </trkpt>
      <trkpt lat="46.96119" lon="4.0249">
        <ele>722.5</ele>
      </trkpt>
      <trkpt lat="46.96091" lon="4.02576">
        <ele>716.9</ele>
      </trkpt>
      <trkpt lat="46.96042" lon="4.02647">
        <ele>714.6</ele>
      </trkpt>
      <trkpt lat="46.95964" lon="4.02761">
        <ele>711.7</ele>
      </trkpt>
      <trkpt lat="46.95929" lon="4.02836">
        <ele>708.3</ele>
      </trkpt>
      <trkpt lat="46.9591" lon="4.02868">
        <ele>704.8</ele>
      </trkpt>
      <trkpt lat="46.95905" lon="4.02943">
        <ele>699.5</ele>
      </trkpt>
      <trkpt lat="46.9591" lon="4.03005">
        <ele>696.8</ele>
      </trkpt>
      <trkpt lat="46.95908" lon="4.03089">
        <ele>692.6</ele>
      </trkpt>
      <trkpt lat="46.95897" lon="4.03121">
        <ele>689.6</ele>
      </trkpt>
      <trkpt lat="46.95821" lon="4.03009">
        <ele>683.9</ele>
      </trkpt>
      <trkpt lat="46.95736" lon="4.02988">
        <ele>674.2</ele>
      </trkpt>
      <trkpt lat="46.95686" lon="4.03035">
        <ele>669.1</ele>
      </trkpt>
      <trkpt lat="46.95636" lon="4.03082">
        <ele>664.8</ele>
      </trkpt>
      <trkpt lat="46.95611" lon="4.03125">
        <ele>663</ele>
      </trkpt>
      <trkpt lat="46.95577" lon="4.0317">
        <ele>660.1</ele>
      </trkpt>
      <trkpt lat="46.95558" lon="4.03171">
        <ele>657.4</ele>
      </trkpt>
      <trkpt lat="46.95565" lon="4.03206">
        <ele>657.6</ele>
      </trkpt>
      <trkpt lat="46.95585" lon="4.03265">
        <ele>654.5</ele>
      </trkpt>
      <trkpt lat="46.95596" lon="4.03281">
        <ele>653.4</ele>
      </trkpt>
      <trkpt lat="46.95621" lon="4.03289">
        <ele>652.4</ele>
      </trkpt>
      <trkpt lat="46.95664" lon="4.03291">
        <ele>650.3</ele>
      </trkpt>
      <trkpt lat="46.95706" lon="4.033">
        <ele>647</ele>
      </trkpt>
      <trkpt lat="46.95738" lon="4.03322">
        <ele>645.9</ele>
      </trkpt>
      <trkpt lat="46.95737" lon="4.03341">
        <ele>644.2</ele>
      </trkpt>
      <trkpt lat="46.95738" lon="4.03364">
        <ele>643.1</ele>
      </trkpt>
      <trkpt lat="46.95726" lon="4.03411">
        <ele>640.5</ele>
      </trkpt>
      <trkpt lat="46.95707" lon="4.03483">
        <ele>637.3</ele>
      </trkpt>
      <trkpt lat="46.95693" lon="4.03511">
        <ele>635.1</ele>
      </trkpt>
      <trkpt lat="46.95675" lon="4.0358">
        <ele>634.3</ele>
      </trkpt>
      <trkpt lat="46.95578" lon="4.03615">
        <ele>622.8</ele>
      </trkpt>
      <trkpt lat="46.95516" lon="4.03679">
        <ele>621</ele>
      </trkpt>
      <trkpt lat="46.95431" lon="4.03752">
        <ele>613.8</ele>
      </trkpt>
      <trkpt lat="46.95288" lon="4.03833">
        <ele>602.4</ele>
      </trkpt>
      <trkpt lat="46.9515" lon="4.03906">
        <ele>591.8</ele>
      </trkpt>
      <trkpt lat="46.95068" lon="4.03932">
        <ele>584.4</ele>
      </trkpt>
      <trkpt lat="46.95021" lon="4.03954">
        <ele>578.8</ele>
      </trkpt>
      <trkpt lat="46.95004" lon="4.04031">
        <ele>582.9</ele>
      </trkpt>
      <trkpt lat="46.94954" lon="4.04138">
        <ele>576.7</ele>
      </trkpt>
      <trkpt lat="46.94904" lon="4.04314">
        <ele>568.3</ele>
      </trkpt>
      <trkpt lat="46.94834" lon="4.04537">
        <ele>558.1</ele>
      </trkpt>
      <trkpt lat="46.94778" lon="4.04606">
        <ele>548</ele>
      </trkpt>
      <trkpt lat="46.94766" lon="4.0473">
        <ele>542.4</ele>
      </trkpt>
      <trkpt lat="46.94778" lon="4.0482">
        <ele>540</ele>
      </trkpt>
      <trkpt lat="46.94746" lon="4.04941">
        <ele>536.3</ele>
      </trkpt>
      <trkpt lat="46.9469" lon="4.04949">
        <ele>529.7</ele>
      </trkpt>
      <trkpt lat="46.9469" lon="4.04853">
        <ele>527.9</ele>
      </trkpt>
      <trkpt lat="46.9468" lon="4.04822">
        <ele>525.9</ele>
      </trkpt>
      <trkpt lat="46.94663" lon="4.04779">
        <ele>524.5</ele>
      </trkpt>
      <trkpt lat="46.94645" lon="4.04602">
        <ele>522.7</ele>
      </trkpt>
      <trkpt lat="46.94643" lon="4.04508">
        <ele>518.4</ele>
      </trkpt>
      <trkpt lat="46.9466" lon="4.04416">
        <ele>513.7</ele>
      </trkpt>
      <trkpt lat="46.94671" lon="4.04331">
        <ele>509.7</ele>
      </trkpt>
      <trkpt lat="46.94671" lon="4.04279">
        <ele>508.7</ele>
      </trkpt>
      <trkpt lat="46.9465" lon="4.04098">
        <ele>511.8</ele>
      </trkpt>
      <trkpt lat="46.94624" lon="4.03876">
        <ele>504.4</ele>
      </trkpt>
      <trkpt lat="46.94613" lon="4.03836">
        <ele>505.9</ele>
      </trkpt>
      <trkpt lat="46.94592" lon="4.0383">
        <ele>505.6</ele>
      </trkpt>
      <trkpt lat="46.94555" lon="4.03833">
        <ele>511.2</ele>
      </trkpt>
      <trkpt lat="46.94517" lon="4.0385">
        <ele>518</ele>
      </trkpt>
      <trkpt lat="46.94457" lon="4.03906">
        <ele>520.2</ele>
      </trkpt>
      <trkpt lat="46.94433" lon="4.03933">
        <ele>519.6</ele>
      </trkpt>
      <trkpt lat="46.94402" lon="4.03933">
        <ele>522.2</ele>
      </trkpt>
      <trkpt lat="46.94317" lon="4.03913">
        <ele>531.3</ele>
      </trkpt>
      <trkpt lat="46.94278" lon="4.03897">
        <ele>535</ele>
      </trkpt>
      <trkpt lat="46.94206" lon="4.03828">
        <ele>542</ele>
      </trkpt>
      <trkpt lat="46.94154" lon="4.03768">
        <ele>544.6</ele>
      </trkpt>
      <trkpt lat="46.94124" lon="4.03718">
        <ele>545.6</ele>
      </trkpt>
      <trkpt lat="46.94097" lon="4.03609">
        <ele>547.6</ele>
      </trkpt>
      <trkpt lat="46.94072" lon="4.03494">
        <ele>550.3</ele>
      </trkpt>
      <trkpt lat="46.94063" lon="4.03432">
        <ele>550.9</ele>
      </trkpt>
      <trkpt lat="46.9396" lon="4.03413">
        <ele>549.9</ele>
      </trkpt>
      <trkpt lat="46.93952" lon="4.03408">
        <ele>547</ele>
        <time>2022-07-23T10:54:17Z</time>
      </trkpt>
      <trkpt lat="46.93791" lon="4.03619">
        <ele>554</ele>
        <time>2022-07-23T10:54:55Z</time>
      </trkpt>
      <trkpt lat="46.93773" lon="4.03635">
        <ele>555</ele>
        <time>2022-07-23T10:54:59Z</time>
      </trkpt>
      <trkpt lat="46.93748" lon="4.03652">
        <ele>558</ele>
        <time>2022-07-23T10:55:04Z</time>
      </trkpt>
      <trkpt lat="46.93732" lon="4.03667">
        <ele>562</ele>
        <time>2022-07-23T10:55:07Z</time>
      </trkpt>
      <trkpt lat="46.93718" lon="4.03684">
        <ele>567</ele>
        <time>2022-07-23T10:55:10Z</time>
      </trkpt>
      <trkpt lat="46.93702" lon="4.03715">
        <ele>571</ele>
        <time>2022-07-23T10:55:15Z</time>
      </trkpt>
      <trkpt lat="46.93683" lon="4.03761">
        <ele>574</ele>
        <time>2022-07-23T10:55:22Z</time>
      </trkpt>
      <trkpt lat="46.93659" lon="4.03844">
        <ele>578</ele>
        <time>2022-07-23T10:55:33Z</time>
      </trkpt>
      <trkpt lat="46.93648" lon="4.04065">
        <ele>579</ele>
        <time>2022-07-23T10:55:59Z</time>
      </trkpt>
      <trkpt lat="46.93625" lon="4.04225">
        <ele>588</ele>
        <time>2022-07-23T10:56:19Z</time>
      </trkpt>
      <trkpt lat="46.93609" lon="4.04291">
        <ele>594</ele>
        <time>2022-07-23T10:56:28Z</time>
      </trkpt>
      <trkpt lat="46.93592" lon="4.04354">
        <ele>596</ele>
        <time>2022-07-23T10:56:36Z</time>
      </trkpt>
      <trkpt lat="46.93571" lon="4.04397">
        <ele>598</ele>
        <time>2022-07-23T10:56:42Z</time>
      </trkpt>
      <trkpt lat="46.93548" lon="4.0444">
        <ele>598</ele>
        <time>2022-07-23T10:56:49Z</time>
      </trkpt>
      <trkpt lat="46.9353" lon="4.04463">
        <ele>598</ele>
        <time>2022-07-23T10:56:53Z</time>
      </trkpt>
      <trkpt lat="46.93518" lon="4.04476">
        <ele>598</ele>
        <time>2022-07-23T10:56:56Z</time>
      </trkpt>
      <trkpt lat="46.9348" lon="4.04493">
        <ele>603</ele>
        <time>2022-07-23T10:57:03Z</time>
      </trkpt>
      <trkpt lat="46.93442" lon="4.04504">
        <ele>609</ele>
        <time>2022-07-23T10:57:10Z</time>
      </trkpt>
      <trkpt lat="46.93433" lon="4.04509">
        <ele>610</ele>
        <time>2022-07-23T10:57:12Z</time>
      </trkpt>
      <trkpt lat="46.93416" lon="4.04531">
        <ele>609</ele>
        <time>2022-07-23T10:57:16Z</time>
      </trkpt>
      <trkpt lat="46.93362" lon="4.04645">
        <ele>605</ele>
        <time>2022-07-23T10:57:33Z</time>
      </trkpt>
      <trkpt lat="46.93346" lon="4.04684">
        <ele>603</ele>
        <time>2022-07-23T10:57:38Z</time>
      </trkpt>
      <trkpt lat="46.93337" lon="4.04722">
        <ele>603</ele>
        <time>2022-07-23T10:57:43Z</time>
      </trkpt>
      <trkpt lat="46.93334" lon="4.04742">
        <ele>602</ele>
        <time>2022-07-23T10:57:45Z</time>
      </trkpt>
      <trkpt lat="46.93336" lon="4.04867">
        <ele>607</ele>
        <time>2022-07-23T10:58:01Z</time>
      </trkpt>
      <trkpt lat="46.93333" lon="4.04885">
        <ele>608</ele>
        <time>2022-07-23T10:58:03Z</time>
      </trkpt>
      <trkpt lat="46.93323" lon="4.04914">
        <ele>611</ele>
        <time>2022-07-23T10:58:07Z</time>
      </trkpt>
      <trkpt lat="46.93319" lon="4.04923">
        <ele>612</ele>
        <time>2022-07-23T10:58:08Z</time>
      </trkpt>
      <trkpt lat="46.93311" lon="4.04935">
        <ele>615</ele>
        <time>2022-07-23T10:58:10Z</time>
      </trkpt>
      <trkpt lat="46.93298" lon="4.04948">
        <ele>617</ele>
        <time>2022-07-23T10:58:13Z</time>
      </trkpt>
      <trkpt lat="46.93286" lon="4.04955">
        <ele>618</ele>
        <time>2022-07-23T10:58:15Z</time>
      </trkpt>
      <trkpt lat="46.93263" lon="4.04959">
        <ele>619</ele>
        <time>2022-07-23T10:58:19Z</time>
      </trkpt>
      <trkpt lat="46.93252" lon="4.04958">
        <ele>618</ele>
        <time>2022-07-23T10:58:21Z</time>
      </trkpt>
      <trkpt lat="46.93228" lon="4.04948">
        <ele>617</ele>
        <time>2022-07-23T10:58:26Z</time>
      </trkpt>
      <trkpt lat="46.93162" lon="4.04911">
        <ele>613</ele>
        <time>2022-07-23T10:58:38Z</time>
      </trkpt>
      <trkpt lat="46.93204" lon="4.04838">
        <ele>613</ele>
        <time>2022-07-23T10:58:50Z</time>
      </trkpt>
      <trkpt lat="46.93192" lon="4.04821">
        <ele>615</ele>
        <time>2022-07-23T10:58:53Z</time>
      </trkpt>
      <trkpt lat="46.93178" lon="4.04795">
        <ele>621</ele>
        <time>2022-07-23T10:58:57Z</time>
      </trkpt>
      <trkpt lat="46.93171" lon="4.04767">
        <ele>626</ele>
        <time>2022-07-23T10:59:01Z</time>
      </trkpt>
      <trkpt lat="46.93177" lon="4.0472">
        <ele>635</ele>
        <time>2022-07-23T10:59:06Z</time>
      </trkpt>
      <trkpt lat="46.93193" lon="4.04666">
        <ele>645</ele>
        <time>2022-07-23T10:59:14Z</time>
      </trkpt>
      <trkpt lat="46.93206" lon="4.04634">
        <ele>649</ele>
        <time>2022-07-23T10:59:18Z</time>
      </trkpt>
      <trkpt lat="46.93234" lon="4.04605">
        <ele>650</ele>
        <time>2022-07-23T10:59:24Z</time>
      </trkpt>
      <trkpt lat="46.93254" lon="4.04562">
        <ele>655</ele>
        <time>2022-07-23T10:59:31Z</time>
      </trkpt>
      <trkpt lat="46.93265" lon="4.04527">
        <ele>658</ele>
        <time>2022-07-23T10:59:35Z</time>
      </trkpt>
      <trkpt lat="46.93269" lon="4.04445">
        <ele>668</ele>
        <time>2022-07-23T10:59:45Z</time>
      </trkpt>
      <trkpt lat="46.93264" lon="4.04434">
        <ele>671</ele>
        <time>2022-07-23T10:59:47Z</time>
      </trkpt>
      <trkpt lat="46.93253" lon="4.04446">
        <ele>673</ele>
        <time>2022-07-23T10:59:49Z</time>
      </trkpt>
      <trkpt lat="46.93243" lon="4.04474">
        <ele>672</ele>
        <time>2022-07-23T10:59:53Z</time>
      </trkpt>
      <trkpt lat="46.93225" lon="4.04504">
        <ele>671</ele>
        <time>2022-07-23T10:59:58Z</time>
      </trkpt>
      <trkpt lat="46.93207" lon="4.04523">
        <ele>672</ele>
        <time>2022-07-23T11:00:02Z</time>
      </trkpt>
      <trkpt lat="46.93191" lon="4.04531">
        <ele>673</ele>
        <time>2022-07-23T11:00:05Z</time>
      </trkpt>
      <trkpt lat="46.9317" lon="4.04537">
        <ele>677</ele>
        <time>2022-07-23T11:00:09Z</time>
      </trkpt>
      <trkpt lat="46.93162" lon="4.04538">
        <ele>677</ele>
        <time>2022-07-23T11:00:10Z</time>
      </trkpt>
      <trkpt lat="46.93156" lon="4.04532">
        <ele>677</ele>
        <time>2022-07-23T11:00:11Z</time>
      </trkpt>
      <trkpt lat="46.93157" lon="4.04508">
        <ele>682</ele>
        <time>2022-07-23T11:00:14Z</time>
      </trkpt>
      <trkpt lat="46.9316" lon="4.04492">
        <ele>684</ele>
        <time>2022-07-23T11:00:16Z</time>
      </trkpt>
      <trkpt lat="46.93159" lon="4.04477">
        <ele>686</ele>
        <time>2022-07-23T11:00:18Z</time>
      </trkpt>
      <trkpt lat="46.93137" lon="4.04432">
        <ele>690</ele>
        <time>2022-07-23T11:00:25Z</time>
      </trkpt>
      <trkpt lat="46.93109" lon="4.04367">
        <ele>697</ele>
        <time>2022-07-23T11:00:34Z</time>
      </trkpt>
      <trkpt lat="46.93088" lon="4.04299">
        <ele>704</ele>
        <time>2022-07-23T11:00:43Z</time>
      </trkpt>
      <trkpt lat="46.93055" lon="4.04181">
        <ele>712</ele>
        <time>2022-07-23T11:00:59Z</time>
      </trkpt>
      <trkpt lat="46.93052" lon="4.04167">
        <ele>713</ele>
        <time>2022-07-23T11:01:01Z</time>
      </trkpt>
      <trkpt lat="46.93047" lon="4.04154">
        <ele>715</ele>
        <time>2022-07-23T11:01:02Z</time>
      </trkpt>
      <trkpt lat="46.93027" lon="4.04119">
        <ele>720</ele>
        <time>2022-07-23T11:01:08Z</time>
      </trkpt>
      <trkpt lat="46.92999" lon="4.03997">
        <ele>732</ele>
        <time>2022-07-23T11:01:24Z</time>
      </trkpt>
      <trkpt lat="46.92981" lon="4.03951">
        <ele>738</ele>
        <time>2022-07-23T11:01:30Z</time>
      </trkpt>
      <trkpt lat="46.92938" lon="4.03884">
        <ele>745</ele>
        <time>2022-07-23T11:01:41Z</time>
      </trkpt>
      <trkpt lat="46.92892" lon="4.03833">
        <ele>749</ele>
        <time>2022-07-23T11:01:51Z</time>
      </trkpt>
      <trkpt lat="46.92877" lon="4.03813">
        <ele>749</ele>
        <time>2022-07-23T11:01:55Z</time>
      </trkpt>
      <trkpt lat="46.92853" lon="4.03768">
        <ele>752</ele>
        <time>2022-07-23T11:02:02Z</time>
      </trkpt>
      <trkpt lat="46.92817" lon="4.03706">
        <ele>756</ele>
        <time>2022-07-23T11:02:12Z</time>
      </trkpt>
      <trkpt lat="46.92762" lon="4.03624">
        <ele>763</ele>
        <time>2022-07-23T11:02:26Z</time>
      </trkpt>
      <trkpt lat="46.92749" lon="4.03612">
        <ele>765</ele>
        <time>2022-07-23T11:02:29Z</time>
      </trkpt>
      <trkpt lat="46.92739" lon="4.03604">
        <ele>768</ele>
        <time>2022-07-23T11:02:31Z</time>
      </trkpt>
      <trkpt lat="46.92725" lon="4.036">
        <ele>770</ele>
        <time>2022-07-23T11:02:33Z</time>
      </trkpt>
      <trkpt lat="46.92683" lon="4.03596">
        <ele>775</ele>
        <time>2022-07-23T11:02:41Z</time>
      </trkpt>
      <trkpt lat="46.92595" lon="4.03607">
        <ele>786</ele>
        <time>2022-07-23T11:02:56Z</time>
      </trkpt>
      <trkpt lat="46.92352" lon="4.03636">
        <ele>812</ele>
        <time>2022-07-23T11:03:40Z</time>
      </trkpt>
      <trkpt lat="46.92352" lon="4.03634">
        <ele>812</ele>
        <time>2022-07-23T11:03:40Z</time>
      </trkpt>
      <trkpt lat="46.92355" lon="4.03603">
        <ele>809</ele>
        <time>2022-07-23T11:03:44Z</time>
      </trkpt>
      <trkpt lat="46.92354" lon="4.03572">
        <ele>807</ele>
        <time>2022-07-23T11:03:48Z</time>
      </trkpt>
      <trkpt lat="46.92348" lon="4.0355">
        <ele>806</ele>
        <time>2022-07-23T11:03:50Z</time>
      </trkpt>
      <trkpt lat="46.92341" lon="4.03541">
        <ele>806</ele>
        <time>2022-07-23T11:03:52Z</time>
      </trkpt>
      <trkpt lat="46.92292" lon="4.03518">
        <ele>806</ele>
        <time>2022-07-23T11:04:01Z</time>
      </trkpt>
      <trkpt lat="46.92243" lon="4.03484">
        <ele>806</ele>
        <time>2022-07-23T11:04:11Z</time>
      </trkpt>
      <trkpt lat="46.92231" lon="4.03473">
        <ele>806</ele>
        <time>2022-07-23T11:04:13Z</time>
      </trkpt>
      <trkpt lat="46.92208" lon="4.03446">
        <ele>805</ele>
        <time>2022-07-23T11:04:19Z</time>
      </trkpt>
      <trkpt lat="46.92169" lon="4.03374">
        <ele>802</ele>
        <time>2022-07-23T11:04:30Z</time>
      </trkpt>
      <trkpt lat="46.92147" lon="4.03312">
        <ele>799</ele>
        <time>2022-07-23T11:04:38Z</time>
      </trkpt>
      <trkpt lat="46.92119" lon="4.03275">
        <ele>798</ele>
        <time>2022-07-23T11:04:45Z</time>
      </trkpt>
      <trkpt lat="46.92089" lon="4.03241">
        <ele>798</ele>
        <time>2022-07-23T11:04:52Z</time>
      </trkpt>
      <trkpt lat="46.9206" lon="4.03227">
        <ele>796</ele>
        <time>2022-07-23T11:04:57Z</time>
      </trkpt>
      <trkpt lat="46.92036" lon="4.03237">
        <ele>795</ele>
        <time>2022-07-23T11:05:02Z</time>
      </trkpt>
      <trkpt lat="46.91959" lon="4.0331">
        <ele>785</ele>
        <time>2022-07-23T11:05:18Z</time>
      </trkpt>
      <trkpt lat="46.91929" lon="4.03358">
        <ele>780</ele>
        <time>2022-07-23T11:05:26Z</time>
      </trkpt>
      <trkpt lat="46.91893" lon="4.03424">
        <ele>771</ele>
        <time>2022-07-23T11:05:36Z</time>
      </trkpt>
      <trkpt lat="46.91879" lon="4.0347">
        <ele>768</ele>
        <time>2022-07-23T11:05:42Z</time>
      </trkpt>
      <trkpt lat="46.91872" lon="4.03503">
        <ele>767</ele>
        <time>2022-07-23T11:05:46Z</time>
      </trkpt>
      <trkpt lat="46.91867" lon="4.03536">
        <ele>766</ele>
        <time>2022-07-23T11:05:51Z</time>
      </trkpt>
      <trkpt lat="46.91858" lon="4.03568">
        <ele>764</ele>
        <time>2022-07-23T11:05:55Z</time>
      </trkpt>
      <trkpt lat="46.91851" lon="4.03599">
        <ele>762</ele>
        <time>2022-07-23T11:05:59Z</time>
      </trkpt>
      <trkpt lat="46.91791" lon="4.03812">
        <ele>748</ele>
        <time>2022-07-23T11:06:27Z</time>
      </trkpt>
      <trkpt lat="46.91768" lon="4.03866">
        <ele>742</ele>
        <time>2022-07-23T11:06:35Z</time>
      </trkpt>
      <trkpt lat="46.9174" lon="4.03902">
        <ele>736</ele>
        <time>2022-07-23T11:06:41Z</time>
      </trkpt>
      <trkpt lat="46.91699" lon="4.03913">
        <ele>732</ele>
        <time>2022-07-23T11:06:49Z</time>
      </trkpt>
      <trkpt lat="46.9166" lon="4.03912">
        <ele>729</ele>
        <time>2022-07-23T11:06:56Z</time>
      </trkpt>
      <trkpt lat="46.9161" lon="4.03885">
        <ele>726</ele>
        <time>2022-07-23T11:07:05Z</time>
      </trkpt>
      <trkpt lat="46.91582" lon="4.03882">
        <ele>722</ele>
        <time>2022-07-23T11:07:10Z</time>
      </trkpt>
      <trkpt lat="46.91539" lon="4.03887">
        <ele>718</ele>
        <time>2022-07-23T11:07:18Z</time>
      </trkpt>
      <trkpt lat="46.91488" lon="4.03904">
        <ele>712</ele>
        <time>2022-07-23T11:07:27Z</time>
      </trkpt>
      <trkpt lat="46.91393" lon="4.03944">
        <ele>695</ele>
        <time>2022-07-23T11:07:45Z</time>
      </trkpt>
      <trkpt lat="46.91342" lon="4.03956">
        <ele>687</ele>
        <time>2022-07-23T11:07:54Z</time>
      </trkpt>
      <trkpt lat="46.91324" lon="4.03962">
        <ele>683</ele>
        <time>2022-07-23T11:07:57Z</time>
      </trkpt>
      <trkpt lat="46.91301" lon="4.03966">
        <ele>677</ele>
        <time>2022-07-23T11:08:01Z</time>
      </trkpt>
      <trkpt lat="46.91281" lon="4.03955">
        <ele>675</ele>
        <time>2022-07-23T11:08:05Z</time>
      </trkpt>
      <trkpt lat="46.91269" lon="4.03942">
        <ele>675</ele>
        <time>2022-07-23T11:08:08Z</time>
      </trkpt>
      <trkpt lat="46.91255" lon="4.0392">
        <ele>676</ele>
        <time>2022-07-23T11:08:11Z</time>
      </trkpt>
      <trkpt lat="46.91248" lon="4.03915">
        <ele>675</ele>
        <time>2022-07-23T11:08:13Z</time>
      </trkpt>
      <trkpt lat="46.91235" lon="4.03915">
        <ele>670</ele>
        <time>2022-07-23T11:08:15Z</time>
      </trkpt>
      <trkpt lat="46.91229" lon="4.03928">
        <ele>666</ele>
        <time>2022-07-23T11:08:17Z</time>
      </trkpt>
      <trkpt lat="46.91232" lon="4.03943">
        <ele>665</ele>
        <time>2022-07-23T11:08:19Z</time>
      </trkpt>
      <trkpt lat="46.91241" lon="4.03968">
        <ele>664</ele>
        <time>2022-07-23T11:08:22Z</time>
      </trkpt>
      <trkpt lat="46.91303" lon="4.04046">
        <ele>666</ele>
        <time>2022-07-23T11:08:37Z</time>
      </trkpt>
      <trkpt lat="46.9138" lon="4.04113">
        <ele>667</ele>
        <time>2022-07-23T11:08:53Z</time>
      </trkpt>
      <trkpt lat="46.91466" lon="4.04136">
        <ele>665</ele>
        <time>2022-07-23T11:09:08Z</time>
      </trkpt>
      <trkpt lat="46.91554" lon="4.04167">
        <ele>660</ele>
        <time>2022-07-23T11:09:24Z</time>
      </trkpt>
      <trkpt lat="46.91628" lon="4.04195">
        <ele>661</ele>
        <time>2022-07-23T11:09:38Z</time>
      </trkpt>
      <trkpt lat="46.91649" lon="4.04217">
        <ele>659</ele>
        <time>2022-07-23T11:09:43Z</time>
      </trkpt>
      <trkpt lat="46.91659" lon="4.04241">
        <ele>656</ele>
        <time>2022-07-23T11:09:46Z</time>
      </trkpt>
      <trkpt lat="46.91656" lon="4.04264">
        <ele>655</ele>
        <time>2022-07-23T11:09:49Z</time>
      </trkpt>
      <trkpt lat="46.91617" lon="4.04301">
        <ele>650</ele>
        <time>2022-07-23T11:09:57Z</time>
      </trkpt>
      <trkpt lat="46.91581" lon="4.04363">
        <ele>643</ele>
        <time>2022-07-23T11:10:07Z</time>
      </trkpt>
      <trkpt lat="46.91571" lon="4.04408">
        <ele>640</ele>
        <time>2022-07-23T11:10:13Z</time>
      </trkpt>
      <trkpt lat="46.91571" lon="4.04459">
        <ele>636</ele>
        <time>2022-07-23T11:10:19Z</time>
      </trkpt>
      <trkpt lat="46.91577" lon="4.04573">
        <ele>626</ele>
        <time>2022-07-23T11:10:33Z</time>
      </trkpt>
      <trkpt lat="46.91586" lon="4.04686">
        <ele>621</ele>
        <time>2022-07-23T11:10:47Z</time>
      </trkpt>
      <trkpt lat="46.91589" lon="4.04763">
        <ele>620</ele>
        <time>2022-07-23T11:10:56Z</time>
      </trkpt>
      <trkpt lat="46.91587" lon="4.04796">
        <ele>618</ele>
        <time>2022-07-23T11:11:00Z</time>
      </trkpt>
      <trkpt lat="46.9158" lon="4.04838">
        <ele>615</ele>
        <time>2022-07-23T11:11:05Z</time>
      </trkpt>
      <trkpt lat="46.9158" lon="4.04886">
        <ele>613</ele>
        <time>2022-07-23T11:11:11Z</time>
      </trkpt>
      <trkpt lat="46.91586" lon="4.04934">
        <ele>610</ele>
        <time>2022-07-23T11:11:17Z</time>
      </trkpt>
      <trkpt lat="46.91617" lon="4.05007">
        <ele>603</ele>
        <time>2022-07-23T11:11:27Z</time>
      </trkpt>
      <trkpt lat="46.91652" lon="4.0504">
        <ele>598</ele>
        <time>2022-07-23T11:11:35Z</time>
      </trkpt>
      <trkpt lat="46.91676" lon="4.05057">
        <ele>596</ele>
        <time>2022-07-23T11:11:40Z</time>
      </trkpt>
      <trkpt lat="46.91743" lon="4.05092">
        <ele>593</ele>
        <time>2022-07-23T11:11:52Z</time>
      </trkpt>
      <trkpt lat="46.9176" lon="4.05105">
        <ele>591</ele>
        <time>2022-07-23T11:11:56Z</time>
      </trkpt>
      <trkpt lat="46.91777" lon="4.05127">
        <ele>587</ele>
        <time>2022-07-23T11:12:00Z</time>
      </trkpt>
      <trkpt lat="46.91795" lon="4.0516">
        <ele>581</ele>
        <time>2022-07-23T11:12:05Z</time>
      </trkpt>
      <trkpt lat="46.91806" lon="4.05193">
        <ele>577</ele>
        <time>2022-07-23T11:12:09Z</time>
      </trkpt>
      <trkpt lat="46.91807" lon="4.0521">
        <ele>575</ele>
        <time>2022-07-23T11:12:11Z</time>
      </trkpt>
      <trkpt lat="46.91794" lon="4.05258">
        <ele>571</ele>
        <time>2022-07-23T11:12:18Z</time>
      </trkpt>
      <trkpt lat="46.91784" lon="4.05288">
        <ele>569</ele>
        <time>2022-07-23T11:12:22Z</time>
      </trkpt>
      <trkpt lat="46.91757" lon="4.05327">
        <ele>566</ele>
        <time>2022-07-23T11:12:29Z</time>
      </trkpt>
      <trkpt lat="46.91738" lon="4.05361">
        <ele>562</ele>
        <time>2022-07-23T11:12:34Z</time>
      </trkpt>
      <trkpt lat="46.9172" lon="4.05413">
        <ele>558</ele>
        <time>2022-07-23T11:12:41Z</time>
      </trkpt>
      <trkpt lat="46.91705" lon="4.05463">
        <ele>555</ele>
        <time>2022-07-23T11:12:48Z</time>
      </trkpt>
      <trkpt lat="46.91693" lon="4.05516">
        <ele>553</ele>
        <time>2022-07-23T11:12:54Z</time>
      </trkpt>
      <trkpt lat="46.9167" lon="4.05562">
        <ele>549</ele>
        <time>2022-07-23T11:13:01Z</time>
      </trkpt>
      <trkpt lat="46.91617" lon="4.05648">
        <ele>539</ele>
        <time>2022-07-23T11:13:15Z</time>
      </trkpt>
      <trkpt lat="46.91606" lon="4.05679">
        <ele>538</ele>
        <time>2022-07-23T11:13:20Z</time>
      </trkpt>
      <trkpt lat="46.91599" lon="4.05735">
        <ele>536</ele>
        <time>2022-07-23T11:13:27Z</time>
      </trkpt>
      <trkpt lat="46.91597" lon="4.05777">
        <ele>536</ele>
        <time>2022-07-23T11:13:32Z</time>
      </trkpt>
      <trkpt lat="46.91602" lon="4.05802">
        <ele>535</ele>
        <time>2022-07-23T11:13:35Z</time>
      </trkpt>
      <trkpt lat="46.91607" lon="4.05822">
        <ele>535</ele>
        <time>2022-07-23T11:13:37Z</time>
      </trkpt>
      <trkpt lat="46.91608" lon="4.05839">
        <ele>534</ele>
        <time>2022-07-23T11:13:39Z</time>
      </trkpt>
      <trkpt lat="46.91606" lon="4.0585">
        <ele>532</ele>
        <time>2022-07-23T11:13:41Z</time>
      </trkpt>
      <trkpt lat="46.91601" lon="4.05863">
        <ele>532</ele>
        <time>2022-07-23T11:13:43Z</time>
      </trkpt>
      <trkpt lat="46.91593" lon="4.05894">
        <ele>529</ele>
        <time>2022-07-23T11:13:47Z</time>
      </trkpt>
      <trkpt lat="46.91596" lon="4.05907">
        <ele>528</ele>
        <time>2022-07-23T11:13:48Z</time>
      </trkpt>
      <trkpt lat="46.91601" lon="4.05939">
        <ele>526</ele>
        <time>2022-07-23T11:13:52Z</time>
      </trkpt>
      <trkpt lat="46.91613" lon="4.05981">
        <ele>524</ele>
        <time>2022-07-23T11:13:58Z</time>
      </trkpt>
      <trkpt lat="46.91623" lon="4.06007">
        <ele>522</ele>
        <time>2022-07-23T11:14:02Z</time>
      </trkpt>
      <trkpt lat="46.91653" lon="4.06066">
        <ele>518</ele>
        <time>2022-07-23T11:14:10Z</time>
      </trkpt>
      <trkpt lat="46.91675" lon="4.061">
        <ele>517</ele>
        <time>2022-07-23T11:14:16Z</time>
      </trkpt>
      <trkpt lat="46.91719" lon="4.06156">
        <ele>516</ele>
        <time>2022-07-23T11:14:27Z</time>
      </trkpt>
      <trkpt lat="46.91737" lon="4.06175">
        <ele>515</ele>
        <time>2022-07-23T11:14:30Z</time>
      </trkpt>
      <trkpt lat="46.91753" lon="4.06184">
        <ele>513</ele>
        <time>2022-07-23T11:14:34Z</time>
      </trkpt>
      <trkpt lat="46.91766" lon="4.06186">
        <ele>511</ele>
        <time>2022-07-23T11:14:36Z</time>
      </trkpt>
      <trkpt lat="46.91779" lon="4.06186">
        <ele>509</ele>
        <time>2022-07-23T11:14:38Z</time>
      </trkpt>
      <trkpt lat="46.91812" lon="4.06168">
        <ele>503</ele>
        <time>2022-07-23T11:14:44Z</time>
      </trkpt>
      <trkpt lat="46.91829" lon="4.06156">
        <ele>500</ele>
        <time>2022-07-23T11:14:48Z</time>
      </trkpt>
      <trkpt lat="46.91857" lon="4.06153">
        <ele>498</ele>
        <time>2022-07-23T11:14:53Z</time>
      </trkpt>
      <trkpt lat="46.9185" lon="4.06168">
        <ele>499</ele>
        <time>2022-07-23T11:14:55Z</time>
      </trkpt>
      <trkpt lat="46.91846" lon="4.06189">
        <ele>499</ele>
        <time>2022-07-23T11:14:58Z</time>
      </trkpt>
      <trkpt lat="46.91835" lon="4.06327">
        <ele>495</ele>
        <time>2022-07-23T11:15:15Z</time>
      </trkpt>
      <trkpt lat="46.91831" lon="4.06362">
        <ele>493</ele>
        <time>2022-07-23T11:15:19Z</time>
      </trkpt>
      <trkpt lat="46.91827" lon="4.06386">
        <ele>492</ele>
        <time>2022-07-23T11:15:22Z</time>
      </trkpt>
      <trkpt lat="46.91817" lon="4.06423">
        <ele>491</ele>
        <time>2022-07-23T11:15:27Z</time>
      </trkpt>
      <trkpt lat="46.91763" lon="4.06588">
        <ele>493</ele>
        <time>2022-07-23T11:15:49Z</time>
      </trkpt>
      <trkpt lat="46.91752" lon="4.06629">
        <ele>492</ele>
        <time>2022-07-23T11:15:54Z</time>
      </trkpt>
      <trkpt lat="46.91752" lon="4.06654">
        <ele>490</ele>
        <time>2022-07-23T11:15:57Z</time>
      </trkpt>
      <trkpt lat="46.91757" lon="4.06668">
        <ele>490</ele>
        <time>2022-07-23T11:15:59Z</time>
      </trkpt>
      <trkpt lat="46.91767" lon="4.06687">
        <ele>490</ele>
        <time>2022-07-23T11:16:02Z</time>
      </trkpt>
      <trkpt lat="46.91781" lon="4.06698">
        <ele>490</ele>
        <time>2022-07-23T11:16:05Z</time>
      </trkpt>
      <trkpt lat="46.91919" lon="4.06778">
        <ele>488</ele>
        <time>2022-07-23T11:16:31Z</time>
      </trkpt>
      <trkpt lat="46.91941" lon="4.06803">
        <ele>488</ele>
        <time>2022-07-23T11:16:36Z</time>
      </trkpt>
      <trkpt lat="46.91966" lon="4.0685">
        <ele>489</ele>
        <time>2022-07-23T11:16:44Z</time>
      </trkpt>
      <trkpt lat="46.92021" lon="4.07021">
        <ele>486</ele>
        <time>2022-07-23T11:17:07Z</time>
      </trkpt>
      <trkpt lat="46.92028" lon="4.07052">
        <ele>485</ele>
        <time>2022-07-23T11:17:10Z</time>
      </trkpt>
      <trkpt lat="46.92031" lon="4.07078">
        <ele>484</ele>
        <time>2022-07-23T11:17:14Z</time>
      </trkpt>
      <trkpt lat="46.92033" lon="4.07121">
        <ele>482</ele>
        <time>2022-07-23T11:17:19Z</time>
      </trkpt>
      <trkpt lat="46.92027" lon="4.07161">
        <ele>481</ele>
        <time>2022-07-23T11:17:24Z</time>
      </trkpt>
      <trkpt lat="46.9199" lon="4.07323">
        <ele>472</ele>
        <time>2022-07-23T11:17:45Z</time>
      </trkpt>
      <trkpt lat="46.91989" lon="4.07359">
        <ele>470</ele>
        <time>2022-07-23T11:17:49Z</time>
      </trkpt>
      <trkpt lat="46.91997" lon="4.07396">
        <ele>467</ele>
        <time>2022-07-23T11:17:54Z</time>
      </trkpt>
      <trkpt lat="46.92024" lon="4.07463">
        <ele>463</ele>
        <time>2022-07-23T11:18:03Z</time>
      </trkpt>
      <trkpt lat="46.92049" lon="4.075">
        <ele>461</ele>
        <time>2022-07-23T11:18:10Z</time>
      </trkpt>
      <trkpt lat="46.9212" lon="4.07576">
        <ele>456</ele>
        <time>2022-07-23T11:18:25Z</time>
      </trkpt>
      <trkpt lat="46.92162" lon="4.07627">
        <ele>454</ele>
        <time>2022-07-23T11:18:35Z</time>
      </trkpt>
      <trkpt lat="46.92177" lon="4.07648">
        <ele>453</ele>
        <time>2022-07-23T11:18:39Z</time>
      </trkpt>
      <trkpt lat="46.92183" lon="4.07662">
        <ele>452</ele>
        <time>2022-07-23T11:18:41Z</time>
      </trkpt>
      <trkpt lat="46.92187" lon="4.07677">
        <ele>451</ele>
        <time>2022-07-23T11:18:43Z</time>
      </trkpt>
      <trkpt lat="46.92188" lon="4.07692">
        <ele>451</ele>
        <time>2022-07-23T11:18:44Z</time>
      </trkpt>
      <trkpt lat="46.92187" lon="4.07708">
        <ele>451</ele>
        <time>2022-07-23T11:18:46Z</time>
      </trkpt>
      <trkpt lat="46.92183" lon="4.07723">
        <ele>451</ele>
        <time>2022-07-23T11:18:48Z</time>
      </trkpt>
      <trkpt lat="46.92171" lon="4.07749">
        <ele>450</ele>
        <time>2022-07-23T11:18:52Z</time>
      </trkpt>
      <trkpt lat="46.921" lon="4.07815">
        <ele>448</ele>
        <time>2022-07-23T11:19:07Z</time>
      </trkpt>
      <trkpt lat="46.92056" lon="4.07865">
        <ele>446</ele>
        <time>2022-07-23T11:19:17Z</time>
      </trkpt>
      <trkpt lat="46.92021" lon="4.0791">
        <ele>444</ele>
        <time>2022-07-23T11:19:25Z</time>
      </trkpt>
      <trkpt lat="46.91988" lon="4.07956">
        <ele>443</ele>
        <time>2022-07-23T11:19:33Z</time>
      </trkpt>
      <trkpt lat="46.9196" lon="4.08003">
        <ele>443</ele>
        <time>2022-07-23T11:19:41Z</time>
      </trkpt>
      <trkpt lat="46.91915" lon="4.08091">
        <ele>440</ele>
        <time>2022-07-23T11:19:54Z</time>
      </trkpt>
      <trkpt lat="46.91905" lon="4.08118">
        <ele>439</ele>
        <time>2022-07-23T11:19:58Z</time>
      </trkpt>
      <trkpt lat="46.91902" lon="4.08144">
        <ele>439</ele>
        <time>2022-07-23T11:20:01Z</time>
      </trkpt>
      <trkpt lat="46.9191" lon="4.08204">
        <ele>442</ele>
        <time>2022-07-23T11:20:09Z</time>
      </trkpt>
      <trkpt lat="46.91918" lon="4.08235">
        <ele>444</ele>
        <time>2022-07-23T11:20:13Z</time>
      </trkpt>
      <trkpt lat="46.91925" lon="4.08245">
        <ele>445</ele>
        <time>2022-07-23T11:20:14Z</time>
      </trkpt>
      <trkpt lat="46.91949" lon="4.0827">
        <ele>447</ele>
        <time>2022-07-23T11:20:20Z</time>
      </trkpt>
      <trkpt lat="46.91962" lon="4.08286">
        <ele>447</ele>
        <time>2022-07-23T11:20:23Z</time>
      </trkpt>
      <trkpt lat="46.91968" lon="4.08301">
        <ele>446</ele>
        <time>2022-07-23T11:20:25Z</time>
      </trkpt>
      <trkpt lat="46.91973" lon="4.08317">
        <ele>445</ele>
        <time>2022-07-23T11:20:27Z</time>
      </trkpt>
      <trkpt lat="46.91981" lon="4.08355">
        <ele>442</ele>
        <time>2022-07-23T11:20:32Z</time>
      </trkpt>
      <trkpt lat="46.91982" lon="4.08386">
        <ele>440</ele>
        <time>2022-07-23T11:20:36Z</time>
      </trkpt>
      <trkpt lat="46.91977" lon="4.08414">
        <ele>439</ele>
        <time>2022-07-23T11:20:39Z</time>
      </trkpt>
      <trkpt lat="46.91971" lon="4.08428">
        <ele>439</ele>
        <time>2022-07-23T11:20:41Z</time>
      </trkpt>
      <trkpt lat="46.91965" lon="4.08443">
        <ele>440</ele>
        <time>2022-07-23T11:20:43Z</time>
      </trkpt>
      <trkpt lat="46.91944" lon="4.08479">
        <ele>440</ele>
        <time>2022-07-23T11:20:49Z</time>
      </trkpt>
      <trkpt lat="46.9194" lon="4.08489">
        <ele>440</ele>
        <time>2022-07-23T11:20:50Z</time>
      </trkpt>
      <trkpt lat="46.91931" lon="4.08542">
        <ele>442</ele>
        <time>2022-07-23T11:20:57Z</time>
      </trkpt>
      <trkpt lat="46.9192" lon="4.08583">
        <ele>444</ele>
        <time>2022-07-23T11:21:02Z</time>
      </trkpt>
      <trkpt lat="46.91909" lon="4.08606">
        <ele>445</ele>
        <time>2022-07-23T11:21:06Z</time>
      </trkpt>
      <trkpt lat="46.91865" lon="4.08684">
        <ele>447</ele>
        <time>2022-07-23T11:21:18Z</time>
      </trkpt>
      <trkpt lat="46.91858" lon="4.08712">
        <ele>449</ele>
        <time>2022-07-23T11:21:22Z</time>
      </trkpt>
      <trkpt lat="46.91856" lon="4.08725">
        <ele>450</ele>
        <time>2022-07-23T11:21:23Z</time>
      </trkpt>
      <trkpt lat="46.91856" lon="4.0876">
        <ele>452</ele>
        <time>2022-07-23T11:21:28Z</time>
      </trkpt>
      <trkpt lat="46.91861" lon="4.08794">
        <ele>453</ele>
        <time>2022-07-23T11:21:32Z</time>
      </trkpt>
      <trkpt lat="46.91869" lon="4.08819">
        <ele>454</ele>
        <time>2022-07-23T11:21:35Z</time>
      </trkpt>
      <trkpt lat="46.91883" lon="4.08851">
        <ele>454</ele>
        <time>2022-07-23T11:21:40Z</time>
      </trkpt>
      <trkpt lat="46.91892" lon="4.08884">
        <ele>452</ele>
        <time>2022-07-23T11:21:44Z</time>
      </trkpt>
      <trkpt lat="46.919" lon="4.08973">
        <ele>445</ele>
        <time>2022-07-23T11:21:55Z</time>
      </trkpt>
      <trkpt lat="46.91912" lon="4.0904">
        <ele>441</ele>
        <time>2022-07-23T11:22:03Z</time>
      </trkpt>
      <trkpt lat="46.91921" lon="4.09072">
        <ele>441</ele>
        <time>2022-07-23T11:22:08Z</time>
      </trkpt>
      <trkpt lat="46.9193" lon="4.09094">
        <ele>441</ele>
        <time>2022-07-23T11:22:11Z</time>
      </trkpt>
      <trkpt lat="46.91957" lon="4.09142">
        <ele>442</ele>
        <time>2022-07-23T11:22:18Z</time>
      </trkpt>
      <trkpt lat="46.91982" lon="4.09178">
        <ele>442</ele>
        <time>2022-07-23T11:22:25Z</time>
      </trkpt>
      <trkpt lat="46.91992" lon="4.09188">
        <ele>442</ele>
        <time>2022-07-23T11:22:27Z</time>
      </trkpt>
      <trkpt lat="46.92025" lon="4.09208">
        <ele>445</ele>
        <time>2022-07-23T11:22:33Z</time>
      </trkpt>
      <trkpt lat="46.92044" lon="4.09227">
        <ele>445</ele>
        <time>2022-07-23T11:22:37Z</time>
      </trkpt>
      <trkpt lat="46.92059" lon="4.09255">
        <ele>442</ele>
        <time>2022-07-23T11:22:41Z</time>
      </trkpt>
      <trkpt lat="46.92066" lon="4.09272">
        <ele>442</ele>
        <time>2022-07-23T11:22:44Z</time>
      </trkpt>
      <trkpt lat="46.92071" lon="4.09289">
        <ele>441</ele>
        <time>2022-07-23T11:22:46Z</time>
      </trkpt>
      <trkpt lat="46.92074" lon="4.09308">
        <ele>439</ele>
        <time>2022-07-23T11:22:48Z</time>
      </trkpt>
      <trkpt lat="46.92075" lon="4.09336">
        <ele>437</ele>
        <time>2022-07-23T11:22:52Z</time>
      </trkpt>
      <trkpt lat="46.92074" lon="4.09536">
        <ele>433</ele>
        <time>2022-07-23T11:23:16Z</time>
      </trkpt>
      <trkpt lat="46.92079" lon="4.09574">
        <ele>432</ele>
        <time>2022-07-23T11:23:21Z</time>
      </trkpt>
      <trkpt lat="46.92085" lon="4.09593">
        <ele>432</ele>
        <time>2022-07-23T11:23:23Z</time>
      </trkpt>
      <trkpt lat="46.92095" lon="4.09619">
        <ele>431</ele>
        <time>2022-07-23T11:23:27Z</time>
      </trkpt>
      <trkpt lat="46.92193" lon="4.09807">
        <ele>431</ele>
        <time>2022-07-23T11:23:56Z</time>
      </trkpt>
      <trkpt lat="46.922" lon="4.09824">
        <ele>431</ele>
        <time>2022-07-23T11:23:58Z</time>
      </trkpt>
      <trkpt lat="46.92218" lon="4.09886">
        <ele>431</ele>
        <time>2022-07-23T11:24:06Z</time>
      </trkpt>
      <trkpt lat="46.92227" lon="4.09912">
        <ele>431</ele>
        <time>2022-07-23T11:24:10Z</time>
      </trkpt>
      <trkpt lat="46.92271" lon="4.10008">
        <ele>431</ele>
        <time>2022-07-23T11:24:24Z</time>
      </trkpt>
      <trkpt lat="46.92278" lon="4.10123">
        <ele>431</ele>
        <time>2022-07-23T11:24:38Z</time>
      </trkpt>
      <trkpt lat="46.92279" lon="4.10129">
        <ele>431</ele>
        <time>2022-07-23T11:24:39Z</time>
      </trkpt>
      <trkpt lat="46.92313" lon="4.101">
        <ele>430</ele>
        <time>2022-07-23T11:24:46Z</time>
      </trkpt>
      <trkpt lat="46.92353" lon="4.10073">
        <ele>430</ele>
        <time>2022-07-23T11:24:54Z</time>
      </trkpt>
      <trkpt lat="46.92389" lon="4.10083">
        <ele>429</ele>
        <time>2022-07-23T11:25:00Z</time>
      </trkpt>
      <trkpt lat="46.92391" lon="4.10087">
        <ele>429</ele>
        <time>2022-07-23T11:25:01Z</time>
      </trkpt>
      <trkpt lat="46.92395" lon="4.10088">
        <ele>429</ele>
        <time>2022-07-23T11:25:01Z</time>
      </trkpt>
      <trkpt lat="46.92397" lon="4.10082">
        <ele>429</ele>
        <time>2022-07-23T11:25:02Z</time>
      </trkpt>
      <trkpt lat="46.92395" lon="4.10077">
        <ele>429</ele>
        <time>2022-07-23T11:25:03Z</time>
      </trkpt>
      <trkpt lat="46.92436" lon="4.10057">
        <ele>428</ele>
        <time>2022-07-23T11:25:11Z</time>
      </trkpt>
      <trkpt lat="46.92438" lon="4.10051">
        <ele>428</ele>
        <time>2022-07-23T11:25:11Z</time>
      </trkpt>
      <trkpt lat="46.92445" lon="4.10043">
        <ele>428</ele>
        <time>2022-07-23T11:25:13Z</time>
      </trkpt>
      <trkpt lat="46.92505" lon="4.09995">
        <ele>424</ele>
        <time>2022-07-23T11:25:25Z</time>
      </trkpt>
      <trkpt lat="46.92526" lon="4.09988">
        <ele>423</ele>
        <time>2022-07-23T11:25:29Z</time>
      </trkpt>
      <trkpt lat="46.92676" lon="4.09952">
        <ele>413</ele>
        <time>2022-07-23T11:25:56Z</time>
      </trkpt>
      <trkpt lat="46.92696" lon="4.09943">
        <ele>411</ele>
        <time>2022-07-23T11:26:00Z</time>
      </trkpt>
      <trkpt lat="46.92728" lon="4.0992">
        <ele>408</ele>
        <time>2022-07-23T11:26:06Z</time>
      </trkpt>
      <trkpt lat="46.92745" lon="4.09916">
        <ele>406</ele>
        <time>2022-07-23T11:26:09Z</time>
      </trkpt>
      <trkpt lat="46.92864" lon="4.09929">
        <ele>398</ele>
        <time>2022-07-23T11:26:30Z</time>
      </trkpt>
      <trkpt lat="46.92946" lon="4.09953">
        <ele>392</ele>
        <time>2022-07-23T11:26:45Z</time>
      </trkpt>
      <trkpt lat="46.92963" lon="4.09956">
        <ele>391</ele>
        <time>2022-07-23T11:26:48Z</time>
      </trkpt>
      <trkpt lat="46.92979" lon="4.09955">
        <ele>390</ele>
        <time>2022-07-23T11:26:51Z</time>
      </trkpt>
      <trkpt lat="46.92998" lon="4.0995">
        <ele>388</ele>
        <time>2022-07-23T11:26:55Z</time>
      </trkpt>
      <trkpt lat="46.93011" lon="4.09946">
        <ele>388</ele>
        <time>2022-07-23T11:26:57Z</time>
      </trkpt>
      <trkpt lat="46.93037" lon="4.09934">
        <ele>387</ele>
        <time>2022-07-23T11:27:02Z</time>
      </trkpt>
      <trkpt lat="46.9306" lon="4.09915">
        <ele>387</ele>
        <time>2022-07-23T11:27:07Z</time>
      </trkpt>
      <trkpt lat="46.93078" lon="4.09889">
        <ele>389</ele>
        <time>2022-07-23T11:27:11Z</time>
      </trkpt>
      <trkpt lat="46.931" lon="4.09854">
        <ele>392</ele>
        <time>2022-07-23T11:27:17Z</time>
      </trkpt>
      <trkpt lat="46.93115" lon="4.09846">
        <ele>393</ele>
        <time>2022-07-23T11:27:20Z</time>
      </trkpt>
      <trkpt lat="46.93124" lon="4.09844">
        <ele>393</ele>
        <time>2022-07-23T11:27:21Z</time>
      </trkpt>
      <trkpt lat="46.93151" lon="4.09848">
        <ele>392</ele>
        <time>2022-07-23T11:27:26Z</time>
      </trkpt>
      <trkpt lat="46.93166" lon="4.09847">
        <ele>392</ele>
        <time>2022-07-23T11:27:29Z</time>
      </trkpt>
      <trkpt lat="46.93184" lon="4.09839">
        <ele>392</ele>
        <time>2022-07-23T11:27:32Z</time>
      </trkpt>
      <trkpt lat="46.93192" lon="4.09827">
        <ele>392</ele>
        <time>2022-07-23T11:27:34Z</time>
      </trkpt>
      <trkpt lat="46.93198" lon="4.09806">
        <ele>393</ele>
        <time>2022-07-23T11:27:37Z</time>
      </trkpt>
      <trkpt lat="46.93209" lon="4.09745">
        <ele>395</ele>
        <time>2022-07-23T11:27:45Z</time>
      </trkpt>
      <trkpt lat="46.93213" lon="4.09732">
        <ele>396</ele>
        <time>2022-07-23T11:27:46Z</time>
      </trkpt>
      <trkpt lat="46.93228" lon="4.09707">
        <ele>397</ele>
        <time>2022-07-23T11:27:50Z</time>
      </trkpt>
      <trkpt lat="46.93244" lon="4.09692">
        <ele>397</ele>
        <time>2022-07-23T11:27:54Z</time>
      </trkpt>
      <trkpt lat="46.93286" lon="4.09683">
        <ele>392</ele>
        <time>2022-07-23T11:28:01Z</time>
      </trkpt>
      <trkpt lat="46.93295" lon="4.09677">
        <ele>392</ele>
        <time>2022-07-23T11:28:03Z</time>
      </trkpt>
      <trkpt lat="46.93304" lon="4.09667">
        <ele>391</ele>
        <time>2022-07-23T11:28:05Z</time>
      </trkpt>
      <trkpt lat="46.93313" lon="4.09648">
        <ele>390</ele>
        <time>2022-07-23T11:28:08Z</time>
      </trkpt>
      <trkpt lat="46.93332" lon="4.09535">
        <ele>390</ele>
        <time>2022-07-23T11:28:22Z</time>
      </trkpt>
      <trkpt lat="46.9334" lon="4.09527">
        <ele>389</ele>
        <time>2022-07-23T11:28:24Z</time>
      </trkpt>
      <trkpt lat="46.93403" lon="4.09427">
        <ele>381</ele>
        <time>2022-07-23T11:28:40Z</time>
      </trkpt>
      <trkpt lat="46.93425" lon="4.09396">
        <ele>380</ele>
        <time>2022-07-23T11:28:46Z</time>
      </trkpt>
      <trkpt lat="46.93444" lon="4.09378">
        <ele>381</ele>
        <time>2022-07-23T11:28:50Z</time>
      </trkpt>
      <trkpt lat="46.93459" lon="4.09367">
        <ele>382</ele>
        <time>2022-07-23T11:28:53Z</time>
      </trkpt>
      <trkpt lat="46.93487" lon="4.09351">
        <ele>384</ele>
        <time>2022-07-23T11:28:58Z</time>
      </trkpt>
      <trkpt lat="46.93495" lon="4.09341">
        <ele>385</ele>
        <time>2022-07-23T11:29:00Z</time>
      </trkpt>
      <trkpt lat="46.93501" lon="4.09313">
        <ele>385</ele>
        <time>2022-07-23T11:29:04Z</time>
      </trkpt>
      <trkpt lat="46.93501" lon="4.0927">
        <ele>385</ele>
        <time>2022-07-23T11:29:09Z</time>
      </trkpt>
      <trkpt lat="46.93505" lon="4.09237">
        <ele>386</ele>
        <time>2022-07-23T11:29:13Z</time>
      </trkpt>
      <trkpt lat="46.93512" lon="4.09218">
        <ele>386</ele>
        <time>2022-07-23T11:29:15Z</time>
      </trkpt>
      <trkpt lat="46.93522" lon="4.09197">
        <ele>387</ele>
        <time>2022-07-23T11:29:19Z</time>
      </trkpt>
      <trkpt lat="46.93581" lon="4.09133">
        <ele>391</ele>
        <time>2022-07-23T11:29:32Z</time>
      </trkpt>
      <trkpt lat="46.93642" lon="4.09073">
        <ele>395</ele>
        <time>2022-07-23T11:29:45Z</time>
      </trkpt>
      <trkpt lat="46.93721" lon="4.09015">
        <ele>396</ele>
        <time>2022-07-23T11:30:00Z</time>
      </trkpt>
      <trkpt lat="46.93767" lon="4.08969">
        <ele>394</ele>
        <time>2022-07-23T11:30:10Z</time>
      </trkpt>
      <trkpt lat="46.93788" lon="4.08951">
        <ele>395</ele>
        <time>2022-07-23T11:30:15Z</time>
      </trkpt>
      <trkpt lat="46.93796" lon="4.08947">
        <ele>395</ele>
        <time>2022-07-23T11:30:16Z</time>
      </trkpt>
      <trkpt lat="46.93851" lon="4.08936">
        <ele>399</ele>
        <time>2022-07-23T11:30:26Z</time>
      </trkpt>
      <trkpt lat="46.93862" lon="4.08929">
        <ele>399</ele>
        <time>2022-07-23T11:30:28Z</time>
      </trkpt>
      <trkpt lat="46.93883" lon="4.08903">
        <ele>399</ele>
        <time>2022-07-23T11:30:33Z</time>
      </trkpt>
      <trkpt lat="46.93913" lon="4.08857">
        <ele>397</ele>
        <time>2022-07-23T11:30:41Z</time>
      </trkpt>
      <trkpt lat="46.93953" lon="4.08814">
        <ele>398</ele>
        <time>2022-07-23T11:30:50Z</time>
      </trkpt>
      <trkpt lat="46.93976" lon="4.08782">
        <ele>399</ele>
        <time>2022-07-23T11:30:55Z</time>
      </trkpt>
      <trkpt lat="46.94025" lon="4.08704">
        <ele>400</ele>
        <time>2022-07-23T11:31:08Z</time>
      </trkpt>
      <trkpt lat="46.94044" lon="4.08684">
        <ele>401</ele>
        <time>2022-07-23T11:31:12Z</time>
      </trkpt>
      <trkpt lat="46.94111" lon="4.08623">
        <ele>402</ele>
        <time>2022-07-23T11:31:26Z</time>
      </trkpt>
      <trkpt lat="46.94188" lon="4.08531">
        <ele>403</ele>
        <time>2022-07-23T11:31:44Z</time>
      </trkpt>
      <trkpt lat="46.9421" lon="4.08514">
        <ele>403</ele>
        <time>2022-07-23T11:31:48Z</time>
      </trkpt>
      <trkpt lat="46.94221" lon="4.08511">
        <ele>403</ele>
        <time>2022-07-23T11:31:50Z</time>
      </trkpt>
      <trkpt lat="46.94233" lon="4.08511">
        <ele>403</ele>
        <time>2022-07-23T11:31:53Z</time>
      </trkpt>
      <trkpt lat="46.94269" lon="4.08524">
        <ele>406</ele>
        <time>2022-07-23T11:31:59Z</time>
      </trkpt>
      <trkpt lat="46.94281" lon="4.08525">
        <ele>407</ele>
        <time>2022-07-23T11:32:01Z</time>
      </trkpt>
      <trkpt lat="46.94295" lon="4.08523">
        <ele>407</ele>
        <time>2022-07-23T11:32:04Z</time>
      </trkpt>
      <trkpt lat="46.94352" lon="4.08503">
        <ele>403</ele>
        <time>2022-07-23T11:32:14Z</time>
      </trkpt>
      <trkpt lat="46.9437" lon="4.085">
        <ele>403</ele>
        <time>2022-07-23T11:32:18Z</time>
      </trkpt>
      <trkpt lat="46.94388" lon="4.08502">
        <ele>403</ele>
        <time>2022-07-23T11:32:21Z</time>
      </trkpt>
      <trkpt lat="46.94453" lon="4.08532">
        <ele>406</ele>
        <time>2022-07-23T11:32:33Z</time>
      </trkpt>
      <trkpt lat="46.9447" lon="4.08532">
        <ele>407</ele>
        <time>2022-07-23T11:32:36Z</time>
      </trkpt>
      <trkpt lat="46.94493" lon="4.08524">
        <ele>407</ele>
        <time>2022-07-23T11:32:40Z</time>
      </trkpt>
      <trkpt lat="46.94531" lon="4.08504">
        <ele>411</ele>
        <time>2022-07-23T11:32:47Z</time>
      </trkpt>
      <trkpt lat="46.94543" lon="4.08495">
        <ele>412</ele>
        <time>2022-07-23T11:32:50Z</time>
      </trkpt>
      <trkpt lat="46.94564" lon="4.08468">
        <ele>413</ele>
        <time>2022-07-23T11:32:55Z</time>
      </trkpt>
      <trkpt lat="46.94607" lon="4.08397">
        <ele>408</ele>
        <time>2022-07-23T11:33:06Z</time>
      </trkpt>
      <trkpt lat="46.94626" lon="4.08339">
        <ele>405</ele>
        <time>2022-07-23T11:33:14Z</time>
      </trkpt>
      <trkpt lat="46.94655" lon="4.08283">
        <ele>406</ele>
        <time>2022-07-23T11:33:23Z</time>
      </trkpt>
      <trkpt lat="46.94664" lon="4.08253">
        <ele>404</ele>
        <time>2022-07-23T11:33:26Z</time>
      </trkpt>
      <trkpt lat="46.94671" lon="4.08207">
        <ele>406</ele>
        <time>2022-07-23T11:33:32Z</time>
      </trkpt>
      <trkpt lat="46.94681" lon="4.08155">
        <ele>408</ele>
        <time>2022-07-23T11:33:39Z</time>
      </trkpt>
      <trkpt lat="46.94685" lon="4.0814">
        <ele>409</ele>
        <time>2022-07-23T11:33:41Z</time>
      </trkpt>
      <trkpt lat="46.9469" lon="4.08128">
        <ele>410</ele>
        <time>2022-07-23T11:33:42Z</time>
      </trkpt>
      <trkpt lat="46.94749" lon="4.0807">
        <ele>413</ele>
        <time>2022-07-23T11:33:55Z</time>
      </trkpt>
      <trkpt lat="46.94771" lon="4.08042">
        <ele>416</ele>
        <time>2022-07-23T11:34:00Z</time>
      </trkpt>
      <trkpt lat="46.94843" lon="4.07922">
        <ele>415</ele>
        <time>2022-07-23T11:34:20Z</time>
      </trkpt>
      <trkpt lat="46.94902" lon="4.07833">
        <ele>413</ele>
        <time>2022-07-23T11:34:35Z</time>
      </trkpt>
      <trkpt lat="46.94913" lon="4.07807">
        <ele>413</ele>
        <time>2022-07-23T11:34:38Z</time>
      </trkpt>
      <trkpt lat="46.94925" lon="4.07743">
        <ele>417</ele>
        <time>2022-07-23T11:34:47Z</time>
      </trkpt>
      <trkpt lat="46.94944" lon="4.07606">
        <ele>425</ele>
        <time>2022-07-23T11:35:04Z</time>
      </trkpt>
      <trkpt lat="46.9495" lon="4.07582">
        <ele>425</ele>
        <time>2022-07-23T11:35:07Z</time>
      </trkpt>
      <trkpt lat="46.94958" lon="4.07561">
        <ele>424</ele>
        <time>2022-07-23T11:35:10Z</time>
      </trkpt>
      <trkpt lat="46.94973" lon="4.0754">
        <ele>420</ele>
        <time>2022-07-23T11:35:13Z</time>
      </trkpt>
      <trkpt lat="46.9499" lon="4.07522">
        <ele>415</ele>
        <time>2022-07-23T11:35:17Z</time>
      </trkpt>
      <trkpt lat="46.95015" lon="4.07498">
        <ele>412</ele>
        <time>2022-07-23T11:35:22Z</time>
      </trkpt>
      <trkpt lat="46.95035" lon="4.07486">
        <ele>411</ele>
        <time>2022-07-23T11:35:26Z</time>
      </trkpt>
      <trkpt lat="46.95048" lon="4.0748">
        <ele>411</ele>
        <time>2022-07-23T11:35:29Z</time>
      </trkpt>
      <trkpt lat="46.95061" lon="4.07477">
        <ele>411</ele>
        <time>2022-07-23T11:35:31Z</time>
      </trkpt>
      <trkpt lat="46.9515" lon="4.07477">
        <ele>414</ele>
        <time>2022-07-23T11:35:47Z</time>
      </trkpt>
      <trkpt lat="46.95186" lon="4.07475">
        <ele>416</ele>
        <time>2022-07-23T11:35:53Z</time>
      </trkpt>
      <trkpt lat="46.95218" lon="4.07466">
        <ele>419</ele>
        <time>2022-07-23T11:35:59Z</time>
      </trkpt>
      <trkpt lat="46.95233" lon="4.07456">
        <ele>421</ele>
        <time>2022-07-23T11:36:02Z</time>
      </trkpt>
      <trkpt lat="46.9526" lon="4.07432">
        <ele>425</ele>
        <time>2022-07-23T11:36:07Z</time>
      </trkpt>
      <trkpt lat="46.95278" lon="4.0742">
        <ele>427</ele>
        <time>2022-07-23T11:36:11Z</time>
      </trkpt>
      <trkpt lat="46.95297" lon="4.07416">
        <ele>429</ele>
        <time>2022-07-23T11:36:14Z</time>
      </trkpt>
      <trkpt lat="46.95309" lon="4.07418">
        <ele>430</ele>
        <time>2022-07-23T11:36:17Z</time>
      </trkpt>
      <trkpt lat="46.95316" lon="4.07423">
        <ele>430</ele>
        <time>2022-07-23T11:36:18Z</time>
      </trkpt>
      <trkpt lat="46.95347" lon="4.07452">
        <ele>430</ele>
        <time>2022-07-23T11:36:24Z</time>
      </trkpt>
      <trkpt lat="46.95364" lon="4.07464">
        <ele>430</ele>
        <time>2022-07-23T11:36:28Z</time>
      </trkpt>
      <trkpt lat="46.95373" lon="4.07466">
        <ele>430</ele>
        <time>2022-07-23T11:36:29Z</time>
      </trkpt>
      <trkpt lat="46.95395" lon="4.07464">
        <ele>431</ele>
        <time>2022-07-23T11:36:33Z</time>
      </trkpt>
      <trkpt lat="46.95405" lon="4.07457">
        <ele>432</ele>
        <time>2022-07-23T11:36:35Z</time>
      </trkpt>
      <trkpt lat="46.95413" lon="4.07447">
        <ele>433</ele>
        <time>2022-07-23T11:36:37Z</time>
      </trkpt>
      <trkpt lat="46.95455" lon="4.07369">
        <ele>442</ele>
        <time>2022-07-23T11:36:49Z</time>
      </trkpt>
      <trkpt lat="46.95465" lon="4.07346">
        <ele>444</ele>
        <time>2022-07-23T11:36:53Z</time>
      </trkpt>
      <trkpt lat="46.95482" lon="4.07276">
        <ele>448</ele>
        <time>2022-07-23T11:37:02Z</time>
      </trkpt>
      <trkpt lat="46.95483" lon="4.07274">
        <ele>448</ele>
        <time>2022-07-23T11:37:02Z</time>
      </trkpt>
      <trkpt lat="46.95491" lon="4.07271">
        <ele>449</ele>
        <time>2022-07-23T11:37:03Z</time>
      </trkpt>
      <trkpt lat="46.95498" lon="4.07271">
        <ele>449</ele>
        <time>2022-07-23T11:37:05Z</time>
      </trkpt>
      <trkpt lat="46.95586" lon="4.07317">
        <ele>450</ele>
        <time>2022-07-23T11:37:21Z</time>
      </trkpt>
      <trkpt lat="46.95656" lon="4.07319">
        <ele>452</ele>
        <time>2022-07-23T11:37:34Z</time>
      </trkpt>
      <trkpt lat="46.95668" lon="4.07322">
        <ele>452</ele>
        <time>2022-07-23T11:37:36Z</time>
      </trkpt>
      <trkpt lat="46.95677" lon="4.0733">
        <ele>453</ele>
        <time>2022-07-23T11:37:38Z</time>
      </trkpt>
      <trkpt lat="46.95702" lon="4.0736">
        <ele>451</ele>
        <time>2022-07-23T11:37:44Z</time>
      </trkpt>
      <trkpt lat="46.95718" lon="4.07369">
        <ele>451</ele>
        <time>2022-07-23T11:37:47Z</time>
      </trkpt>
      <trkpt lat="46.95785" lon="4.07364">
        <ele>455</ele>
        <time>2022-07-23T11:37:59Z</time>
      </trkpt>
      <trkpt lat="46.95837" lon="4.07367">
        <ele>457</ele>
        <time>2022-07-23T11:38:08Z</time>
      </trkpt>
      <trkpt lat="46.95856" lon="4.07362">
        <ele>459</ele>
        <time>2022-07-23T11:38:11Z</time>
      </trkpt>
      <trkpt lat="46.95868" lon="4.07351">
        <ele>462</ele>
        <time>2022-07-23T11:38:14Z</time>
      </trkpt>
      <trkpt lat="46.95891" lon="4.07323">
        <ele>470</ele>
        <time>2022-07-23T11:38:19Z</time>
      </trkpt>
      <trkpt lat="46.95906" lon="4.07309">
        <ele>475</ele>
        <time>2022-07-23T11:38:22Z</time>
      </trkpt>
      <trkpt lat="46.95924" lon="4.07301">
        <ele>478</ele>
        <time>2022-07-23T11:38:26Z</time>
      </trkpt>
      <trkpt lat="46.95988" lon="4.07284">
        <ele>481</ele>
        <time>2022-07-23T11:38:37Z</time>
      </trkpt>
      <trkpt lat="46.96001" lon="4.07279">
        <ele>482</ele>
        <time>2022-07-23T11:38:40Z</time>
      </trkpt>
      <trkpt lat="46.96015" lon="4.07279">
        <ele>482</ele>
        <time>2022-07-23T11:38:42Z</time>
      </trkpt>
      <trkpt lat="46.96041" lon="4.07283">
        <ele>483</ele>
        <time>2022-07-23T11:38:47Z</time>
      </trkpt>
      <trkpt lat="46.96104" lon="4.07302">
        <ele>482</ele>
        <time>2022-07-23T11:38:58Z</time>
      </trkpt>
      <trkpt lat="46.96125" lon="4.07301">
        <ele>484</ele>
        <time>2022-07-23T11:39:02Z</time>
      </trkpt>
      <trkpt lat="46.96149" lon="4.07292">
        <ele>488</ele>
        <time>2022-07-23T11:39:06Z</time>
      </trkpt>
      <trkpt lat="46.96175" lon="4.07284">
        <ele>490</ele>
        <time>2022-07-23T11:39:11Z</time>
      </trkpt>
      <trkpt lat="46.96204" lon="4.07284">
        <ele>488</ele>
        <time>2022-07-23T11:39:16Z</time>
      </trkpt>
      <trkpt lat="46.96221" lon="4.07282">
        <ele>487</ele>
        <time>2022-07-23T11:39:19Z</time>
      </trkpt>
      <trkpt lat="46.96253" lon="4.07266">
        <ele>487</ele>
        <time>2022-07-23T11:39:25Z</time>
      </trkpt>
      <trkpt lat="46.96285" lon="4.07239">
        <ele>489</ele>
        <time>2022-07-23T11:39:32Z</time>
      </trkpt>
      <trkpt lat="46.9631" lon="4.07206">
        <ele>490</ele>
        <time>2022-07-23T11:39:38Z</time>
      </trkpt>
      <trkpt lat="46.96338" lon="4.07163">
        <ele>491</ele>
        <time>2022-07-23T11:39:45Z</time>
      </trkpt>
      <trkpt lat="46.9635" lon="4.0714">
        <ele>493</ele>
        <time>2022-07-23T11:39:48Z</time>
      </trkpt>
      <trkpt lat="46.96382" lon="4.07062">
        <ele>500</ele>
        <time>2022-07-23T11:40:00Z</time>
      </trkpt>
      <trkpt lat="46.96397" lon="4.0703">
        <ele>502</ele>
        <time>2022-07-23T11:40:04Z</time>
      </trkpt>
      <trkpt lat="46.96407" lon="4.07014">
        <ele>503</ele>
        <time>2022-07-23T11:40:07Z</time>
      </trkpt>
      <trkpt lat="46.96415" lon="4.07008">
        <ele>503</ele>
        <time>2022-07-23T11:40:08Z</time>
      </trkpt>
      <trkpt lat="46.96423" lon="4.07005">
        <ele>504</ele>
        <time>2022-07-23T11:40:10Z</time>
      </trkpt>
      <trkpt lat="46.96433" lon="4.07005">
        <ele>504</ele>
        <time>2022-07-23T11:40:12Z</time>
      </trkpt>
      <trkpt lat="46.96524" lon="4.07028">
        <ele>507</ele>
        <time>2022-07-23T11:40:28Z</time>
      </trkpt>
      <trkpt lat="46.96556" lon="4.07032">
        <ele>509</ele>
        <time>2022-07-23T11:40:34Z</time>
      </trkpt>
      <trkpt lat="46.96567" lon="4.07028">
        <ele>512</ele>
        <time>2022-07-23T11:40:36Z</time>
      </trkpt>
      <trkpt lat="46.96603" lon="4.06997">
        <ele>521</ele>
        <time>2022-07-23T11:40:43Z</time>
      </trkpt>
      <trkpt lat="46.96615" lon="4.06996">
        <ele>522</ele>
        <time>2022-07-23T11:40:45Z</time>
      </trkpt>
      <trkpt lat="46.96622" lon="4.07">
        <ele>522</ele>
        <time>2022-07-23T11:40:47Z</time>
      </trkpt>
      <trkpt lat="46.96625" lon="4.07005">
        <ele>522</ele>
        <time>2022-07-23T11:40:48Z</time>
      </trkpt>
      <trkpt lat="46.96629" lon="4.07023">
        <ele>521</ele>
        <time>2022-07-23T11:40:50Z</time>
      </trkpt>
      <trkpt lat="46.96626" lon="4.07101">
        <ele>516</ele>
        <time>2022-07-23T11:40:59Z</time>
      </trkpt>
      <trkpt lat="46.9663" lon="4.07149">
        <ele>518</ele>
        <time>2022-07-23T11:41:05Z</time>
      </trkpt>
      <trkpt lat="46.96656" lon="4.07301">
        <ele>517</ele>
        <time>2022-07-23T11:41:24Z</time>
      </trkpt>
      <trkpt lat="46.96662" lon="4.07326">
        <ele>517</ele>
        <time>2022-07-23T11:41:28Z</time>
      </trkpt>
      <trkpt lat="46.96689" lon="4.074">
        <ele>521</ele>
        <time>2022-07-23T11:41:38Z</time>
      </trkpt>
      <trkpt lat="46.96703" lon="4.07433">
        <ele>523</ele>
        <time>2022-07-23T11:41:42Z</time>
      </trkpt>
      <trkpt lat="46.96749" lon="4.07514">
        <ele>527</ele>
        <time>2022-07-23T11:41:55Z</time>
      </trkpt>
      <trkpt lat="46.96768" lon="4.07541">
        <ele>527</ele>
        <time>2022-07-23T11:42:00Z</time>
      </trkpt>
      <trkpt lat="46.96785" lon="4.07551">
        <ele>527</ele>
        <time>2022-07-23T11:42:03Z</time>
      </trkpt>
      <trkpt lat="46.96871" lon="4.0757">
        <ele>533</ele>
        <time>2022-07-23T11:42:19Z</time>
      </trkpt>
      <trkpt lat="46.96887" lon="4.07571">
        <ele>534</ele>
        <time>2022-07-23T11:42:21Z</time>
      </trkpt>
      <trkpt lat="46.96902" lon="4.07568">
        <ele>535</ele>
        <time>2022-07-23T11:42:24Z</time>
      </trkpt>
      <trkpt lat="46.96953" lon="4.07551">
        <ele>545</ele>
        <time>2022-07-23T11:42:33Z</time>
      </trkpt>
      <trkpt lat="46.96969" lon="4.07549">
        <ele>548</ele>
        <time>2022-07-23T11:42:36Z</time>
      </trkpt>
      <trkpt lat="46.96986" lon="4.0755">
        <ele>550</ele>
        <time>2022-07-23T11:42:39Z</time>
      </trkpt>
      <trkpt lat="46.97009" lon="4.07562">
        <ele>550</ele>
        <time>2022-07-23T11:42:44Z</time>
      </trkpt>
      <trkpt lat="46.97023" lon="4.07575">
        <ele>548</ele>
        <time>2022-07-23T11:42:47Z</time>
      </trkpt>
      <trkpt lat="46.9709" lon="4.07655">
        <ele>543</ele>
        <time>2022-07-23T11:43:02Z</time>
      </trkpt>
      <trkpt lat="46.97105" lon="4.07671">
        <ele>543</ele>
        <time>2022-07-23T11:43:05Z</time>
      </trkpt>
      <trkpt lat="46.97118" lon="4.07681">
        <ele>543</ele>
        <time>2022-07-23T11:43:08Z</time>
      </trkpt>
      <trkpt lat="46.97143" lon="4.07696">
        <ele>544</ele>
        <time>2022-07-23T11:43:13Z</time>
      </trkpt>
      <trkpt lat="46.97181" lon="4.07714">
        <ele>545</ele>
        <time>2022-07-23T11:43:20Z</time>
      </trkpt>
      <trkpt lat="46.97208" lon="4.07738">
        <ele>544</ele>
        <time>2022-07-23T11:43:25Z</time>
      </trkpt>
      <trkpt lat="46.97244" lon="4.07786">
        <ele>542</ele>
        <time>2022-07-23T11:43:34Z</time>
      </trkpt>
      <trkpt lat="46.97256" lon="4.07797">
        <ele>542</ele>
        <time>2022-07-23T11:43:37Z</time>
      </trkpt>
      <trkpt lat="46.97269" lon="4.07804">
        <ele>543</ele>
        <time>2022-07-23T11:43:39Z</time>
      </trkpt>
      <trkpt lat="46.97284" lon="4.07806">
        <ele>544</ele>
        <time>2022-07-23T11:43:42Z</time>
      </trkpt>
      <trkpt lat="46.97361" lon="4.07791">
        <ele>551</ele>
        <time>2022-07-23T11:43:56Z</time>
      </trkpt>
      <trkpt lat="46.97389" lon="4.07796">
        <ele>551</ele>
        <time>2022-07-23T11:44:01Z</time>
      </trkpt>
      <trkpt lat="46.97419" lon="4.07811">
        <ele>551</ele>
        <time>2022-07-23T11:44:06Z</time>
      </trkpt>
      <trkpt lat="46.97439" lon="4.07826">
        <ele>552</ele>
        <time>2022-07-23T11:44:10Z</time>
      </trkpt>
      <trkpt lat="46.9754" lon="4.07917">
        <ele>562</ele>
        <time>2022-07-23T11:44:31Z</time>
      </trkpt>
      <trkpt lat="46.97592" lon="4.07953">
        <ele>564</ele>
        <time>2022-07-23T11:44:42Z</time>
      </trkpt>
      <trkpt lat="46.97613" lon="4.07965">
        <ele>565</ele>
        <time>2022-07-23T11:44:46Z</time>
      </trkpt>
      <trkpt lat="46.97683" lon="4.07993">
        <ele>568</ele>
        <time>2022-07-23T11:44:59Z</time>
      </trkpt>
      <trkpt lat="46.97744" lon="4.08045">
        <ele>568</ele>
        <time>2022-07-23T11:45:11Z</time>
      </trkpt>
      <trkpt lat="46.9776" lon="4.08048">
        <ele>569</ele>
        <time>2022-07-23T11:45:14Z</time>
      </trkpt>
      <trkpt lat="46.97777" lon="4.08045">
        <ele>568</ele>
        <time>2022-07-23T11:45:17Z</time>
      </trkpt>
      <trkpt lat="46.97792" lon="4.08035">
        <ele>569</ele>
        <time>2022-07-23T11:45:20Z</time>
      </trkpt>
      <trkpt lat="46.97804" lon="4.08022">
        <ele>569</ele>
        <time>2022-07-23T11:45:23Z</time>
      </trkpt>
      <trkpt lat="46.97812" lon="4.08003">
        <ele>569</ele>
        <time>2022-07-23T11:45:25Z</time>
      </trkpt>
      <trkpt lat="46.97868" lon="4.07778">
        <ele>584</ele>
        <time>2022-07-23T11:45:54Z</time>
      </trkpt>
      <trkpt lat="46.97875" lon="4.07766">
        <ele>584</ele>
        <time>2022-07-23T11:45:56Z</time>
      </trkpt>
      <trkpt lat="46.97881" lon="4.0776">
        <ele>583</ele>
        <time>2022-07-23T11:45:58Z</time>
      </trkpt>
      <trkpt lat="46.97891" lon="4.07756">
        <ele>582</ele>
        <time>2022-07-23T11:45:59Z</time>
      </trkpt>
      <trkpt lat="46.97903" lon="4.07756">
        <ele>581</ele>
        <time>2022-07-23T11:46:02Z</time>
      </trkpt>
      <trkpt lat="46.97938" lon="4.07769">
        <ele>578</ele>
        <time>2022-07-23T11:46:08Z</time>
      </trkpt>
      <trkpt lat="46.98028" lon="4.07814">
        <ele>573</ele>
        <time>2022-07-23T11:46:25Z</time>
      </trkpt>
      <trkpt lat="46.98045" lon="4.07818">
        <ele>574</ele>
        <time>2022-07-23T11:46:28Z</time>
      </trkpt>
      <trkpt lat="46.98074" lon="4.0782">
        <ele>577</ele>
        <time>2022-07-23T11:46:33Z</time>
      </trkpt>
      <trkpt lat="46.98134" lon="4.07807">
        <ele>583</ele>
        <time>2022-07-23T11:46:44Z</time>
      </trkpt>
      <trkpt lat="46.98157" lon="4.07794">
        <ele>587</ele>
        <time>2022-07-23T11:46:48Z</time>
      </trkpt>
      <trkpt lat="46.98171" lon="4.07795">
        <ele>588</ele>
        <time>2022-07-23T11:46:51Z</time>
      </trkpt>
      <trkpt lat="46.98193" lon="4.07817">
        <ele>589</ele>
        <time>2022-07-23T11:46:56Z</time>
      </trkpt>
      <trkpt lat="46.98207" lon="4.07839">
        <ele>589</ele>
        <time>2022-07-23T11:46:59Z</time>
      </trkpt>
      <trkpt lat="46.98217" lon="4.07871">
        <ele>586</ele>
        <time>2022-07-23T11:47:03Z</time>
      </trkpt>
      <trkpt lat="46.9823" lon="4.07904">
        <ele>584</ele>
        <time>2022-07-23T11:47:08Z</time>
      </trkpt>
      <trkpt lat="46.98237" lon="4.07916">
        <ele>584</ele>
        <time>2022-07-23T11:47:10Z</time>
      </trkpt>
      <trkpt lat="46.98266" lon="4.07938">
        <ele>585</ele>
        <time>2022-07-23T11:47:16Z</time>
      </trkpt>
      <trkpt lat="46.98277" lon="4.0794">
        <ele>586</ele>
        <time>2022-07-23T11:47:18Z</time>
      </trkpt>
      <trkpt lat="46.983" lon="4.07937">
        <ele>589</ele>
        <time>2022-07-23T11:47:22Z</time>
      </trkpt>
      <trkpt lat="46.98315" lon="4.07939">
        <ele>591</ele>
        <time>2022-07-23T11:47:25Z</time>
      </trkpt>
      <trkpt lat="46.9834" lon="4.0796">
        <ele>590</ele>
        <time>2022-07-23T11:47:30Z</time>
      </trkpt>
      <trkpt lat="46.98353" lon="4.07967">
        <ele>589</ele>
        <time>2022-07-23T11:47:32Z</time>
      </trkpt>
      <trkpt lat="46.98367" lon="4.0797">
        <ele>589</ele>
        <time>2022-07-23T11:47:35Z</time>
      </trkpt>
      <trkpt lat="46.9838" lon="4.07967">
        <ele>590</ele>
        <time>2022-07-23T11:47:37Z</time>
      </trkpt>
      <trkpt lat="46.98427" lon="4.07939">
        <ele>597</ele>
        <time>2022-07-23T11:47:46Z</time>
      </trkpt>
      <trkpt lat="46.98434" lon="4.07937">
        <ele>597</ele>
        <time>2022-07-23T11:47:47Z</time>
      </trkpt>
      <trkpt lat="46.9846" lon="4.07948">
        <ele>593</ele>
        <time>2022-07-23T11:47:52Z</time>
      </trkpt>
      <trkpt lat="46.98471" lon="4.07947">
        <ele>593</ele>
        <time>2022-07-23T11:47:54Z</time>
      </trkpt>
      <trkpt lat="46.98525" lon="4.07922">
        <ele>598</ele>
        <time>2022-07-23T11:48:04Z</time>
      </trkpt>
      <trkpt lat="46.98538" lon="4.07917">
        <ele>599</ele>
        <time>2022-07-23T11:48:07Z</time>
      </trkpt>
      <trkpt lat="46.98563" lon="4.07913">
        <ele>601</ele>
        <time>2022-07-23T11:48:11Z</time>
      </trkpt>
      <trkpt lat="46.98594" lon="4.07913">
        <ele>602</ele>
        <time>2022-07-23T11:48:17Z</time>
      </trkpt>
      <trkpt lat="46.986" lon="4.07915">
        <ele>602</ele>
        <time>2022-07-23T11:48:18Z</time>
      </trkpt>
      <trkpt lat="46.98608" lon="4.07927">
        <ele>602</ele>
        <time>2022-07-23T11:48:20Z</time>
      </trkpt>
      <trkpt lat="46.98608" lon="4.07933">
        <ele>601</ele>
        <time>2022-07-23T11:48:20Z</time>
      </trkpt>
      <trkpt lat="46.98599" lon="4.07971">
        <ele>596</ele>
        <time>2022-07-23T11:48:25Z</time>
      </trkpt>
      <trkpt lat="46.98596" lon="4.07994">
        <ele>593</ele>
        <time>2022-07-23T11:48:28Z</time>
      </trkpt>
      <trkpt lat="46.98597" lon="4.08018">
        <ele>591</ele>
        <time>2022-07-23T11:48:31Z</time>
      </trkpt>
      <trkpt lat="46.98601" lon="4.08039">
        <ele>590</ele>
        <time>2022-07-23T11:48:34Z</time>
      </trkpt>
      <trkpt lat="46.98609" lon="4.08057">
        <ele>590</ele>
        <time>2022-07-23T11:48:36Z</time>
      </trkpt>
      <trkpt lat="46.98619" lon="4.08069">
        <ele>591</ele>
        <time>2022-07-23T11:48:39Z</time>
      </trkpt>
      <trkpt lat="46.98635" lon="4.0808">
        <ele>593</ele>
        <time>2022-07-23T11:48:42Z</time>
      </trkpt>
      <trkpt lat="46.98653" lon="4.08086">
        <ele>596</ele>
        <time>2022-07-23T11:48:45Z</time>
      </trkpt>
      <trkpt lat="46.98692" lon="4.08091">
        <ele>602</ele>
        <time>2022-07-23T11:48:52Z</time>
      </trkpt>
      <trkpt lat="46.98702" lon="4.081">
        <ele>602</ele>
        <time>2022-07-23T11:48:54Z</time>
      </trkpt>
      <trkpt lat="46.98713" lon="4.08115">
        <ele>603</ele>
        <time>2022-07-23T11:48:57Z</time>
      </trkpt>
      <trkpt lat="46.9873" lon="4.08147">
        <ele>602</ele>
        <time>2022-07-23T11:49:02Z</time>
      </trkpt>
      <trkpt lat="46.98757" lon="4.08233">
        <ele>598</ele>
        <time>2022-07-23T11:49:13Z</time>
      </trkpt>
      <trkpt lat="46.98773" lon="4.08254">
        <ele>598</ele>
        <time>2022-07-23T11:49:17Z</time>
      </trkpt>
      <trkpt lat="46.98803" lon="4.08255">
        <ele>601</ele>
        <time>2022-07-23T11:49:22Z</time>
      </trkpt>
      <trkpt lat="46.98819" lon="4.0826">
        <ele>602</ele>
        <time>2022-07-23T11:49:25Z</time>
      </trkpt>
      <trkpt lat="46.9883" lon="4.08267">
        <ele>602</ele>
        <time>2022-07-23T11:49:27Z</time>
      </trkpt>
      <trkpt lat="46.98849" lon="4.08273">
        <ele>602</ele>
        <time>2022-07-23T11:49:31Z</time>
      </trkpt>
      <trkpt lat="46.98859" lon="4.08272">
        <ele>602</ele>
        <time>2022-07-23T11:49:33Z</time>
      </trkpt>
      <trkpt lat="46.98888" lon="4.08241">
        <ele>608</ele>
        <time>2022-07-23T11:49:39Z</time>
      </trkpt>
      <trkpt lat="46.98905" lon="4.08236">
        <ele>609</ele>
        <time>2022-07-23T11:49:42Z</time>
      </trkpt>
      <trkpt lat="46.98914" lon="4.08235">
        <ele>610</ele>
        <time>2022-07-23T11:49:44Z</time>
      </trkpt>
      <trkpt lat="46.98939" lon="4.08252">
        <ele>612</ele>
        <time>2022-07-23T11:49:49Z</time>
      </trkpt>
      <trkpt lat="46.98971" lon="4.08297">
        <ele>611</ele>
        <time>2022-07-23T11:49:57Z</time>
      </trkpt>
      <trkpt lat="46.98992" lon="4.08314">
        <ele>611</ele>
        <time>2022-07-23T11:50:01Z</time>
      </trkpt>
      <trkpt lat="46.99009" lon="4.0832">
        <ele>612</ele>
        <time>2022-07-23T11:50:04Z</time>
      </trkpt>
      <trkpt lat="46.99027" lon="4.08324">
        <ele>613</ele>
        <time>2022-07-23T11:50:07Z</time>
      </trkpt>
      <trkpt lat="46.99068" lon="4.08319">
        <ele>619</ele>
        <time>2022-07-23T11:50:14Z</time>
      </trkpt>
      <trkpt lat="46.99098" lon="4.08323">
        <ele>621</ele>
        <time>2022-07-23T11:50:20Z</time>
      </trkpt>
      <trkpt lat="46.99135" lon="4.08347">
        <ele>621</ele>
        <time>2022-07-23T11:50:27Z</time>
      </trkpt>
      <trkpt lat="46.99176" lon="4.08381">
        <ele>619</ele>
        <time>2022-07-23T11:50:35Z</time>
      </trkpt>
      <trkpt lat="46.99204" lon="4.0839">
        <ele>620</ele>
        <time>2022-07-23T11:50:40Z</time>
      </trkpt>
      <trkpt lat="46.99223" lon="4.08401">
        <ele>621</ele>
        <time>2022-07-23T11:50:44Z</time>
      </trkpt>
      <trkpt lat="46.9924" lon="4.08421">
        <ele>620</ele>
        <time>2022-07-23T11:50:48Z</time>
      </trkpt>
      <trkpt lat="46.99259" lon="4.0843">
        <ele>622</ele>
        <time>2022-07-23T11:50:52Z</time>
      </trkpt>
      <trkpt lat="46.9929" lon="4.08429">
        <ele>624</ele>
        <time>2022-07-23T11:50:57Z</time>
      </trkpt>
      <trkpt lat="46.99302" lon="4.08438">
        <ele>625</ele>
        <time>2022-07-23T11:50:59Z</time>
      </trkpt>
      <trkpt lat="46.99314" lon="4.08459">
        <ele>625</ele>
        <time>2022-07-23T11:51:03Z</time>
      </trkpt>
      <trkpt lat="46.99338" lon="4.08527">
        <ele>626</ele>
        <time>2022-07-23T11:51:12Z</time>
      </trkpt>
      <trkpt lat="46.99352" lon="4.08553">
        <ele>627</ele>
        <time>2022-07-23T11:51:16Z</time>
      </trkpt>
      <trkpt lat="46.99361" lon="4.08559">
        <ele>626</ele>
        <time>2022-07-23T11:51:18Z</time>
      </trkpt>
      <trkpt lat="46.9937" lon="4.08562">
        <ele>626</ele>
        <time>2022-07-23T11:51:20Z</time>
      </trkpt>
      <trkpt lat="46.99411" lon="4.0857">
        <ele>624</ele>
        <time>2022-07-23T11:51:27Z</time>
      </trkpt>
      <trkpt lat="46.99426" lon="4.08579">
        <ele>622</ele>
        <time>2022-07-23T11:51:30Z</time>
      </trkpt>
      <trkpt lat="46.99489" lon="4.08664">
        <ele>623</ele>
        <time>2022-07-23T11:51:45Z</time>
      </trkpt>
      <trkpt lat="46.99536" lon="4.08708">
        <ele>624</ele>
        <time>2022-07-23T11:51:55Z</time>
      </trkpt>
      <trkpt lat="46.99582" lon="4.08759">
        <ele>624</ele>
        <time>2022-07-23T11:52:05Z</time>
      </trkpt>
      <trkpt lat="46.99618" lon="4.08793">
        <ele>623</ele>
        <time>2022-07-23T11:52:13Z</time>
      </trkpt>
      <trkpt lat="46.99671" lon="4.0882">
        <ele>618</ele>
        <time>2022-07-23T11:52:23Z</time>
      </trkpt>
      <trkpt lat="46.99701" lon="4.08849">
        <ele>617</ele>
        <time>2022-07-23T11:52:29Z</time>
      </trkpt>
      <trkpt lat="46.9977" lon="4.08946">
        <ele>617</ele>
        <time>2022-07-23T11:52:46Z</time>
      </trkpt>
      <trkpt lat="46.99789" lon="4.08977">
        <ele>619</ele>
        <time>2022-07-23T11:52:51Z</time>
      </trkpt>
      <trkpt lat="46.99803" lon="4.09005">
        <ele>620</ele>
        <time>2022-07-23T11:52:55Z</time>
      </trkpt>
      <trkpt lat="46.99815" lon="4.09026">
        <ele>622</ele>
        <time>2022-07-23T11:52:59Z</time>
      </trkpt>
      <trkpt lat="46.99832" lon="4.09037">
        <ele>622</ele>
        <time>2022-07-23T11:53:02Z</time>
      </trkpt>
      <trkpt lat="46.99849" lon="4.0903">
        <ele>619</ele>
        <time>2022-07-23T11:53:05Z</time>
      </trkpt>
      <trkpt lat="46.9986" lon="4.0902">
        <ele>617</ele>
        <time>2022-07-23T11:53:08Z</time>
      </trkpt>
      <trkpt lat="46.9987" lon="4.09014">
        <ele>615</ele>
        <time>2022-07-23T11:53:09Z</time>
      </trkpt>
      <trkpt lat="46.99881" lon="4.0901">
        <ele>613</ele>
        <time>2022-07-23T11:53:11Z</time>
      </trkpt>
      <trkpt lat="46.99887" lon="4.09011">
        <ele>613</ele>
        <time>2022-07-23T11:53:13Z</time>
      </trkpt>
      <trkpt lat="46.99906" lon="4.09022">
        <ele>613</ele>
        <time>2022-07-23T11:53:16Z</time>
      </trkpt>
      <trkpt lat="47.00082" lon="4.0911">
        <ele>603</ele>
        <time>2022-07-23T11:53:49Z</time>
      </trkpt>
      <trkpt lat="47.00103" lon="4.09124">
        <ele>602</ele>
        <time>2022-07-23T11:53:53Z</time>
      </trkpt>
      <trkpt lat="47.0011" lon="4.09133">
        <ele>602</ele>
        <time>2022-07-23T11:53:55Z</time>
      </trkpt>
      <trkpt lat="47.00121" lon="4.09153">
        <ele>602</ele>
        <time>2022-07-23T11:53:58Z</time>
      </trkpt>
      <trkpt lat="47.00177" lon="4.09309">
        <ele>604</ele>
        <time>2022-07-23T11:54:20Z</time>
      </trkpt>
      <trkpt lat="47.00225" lon="4.09466">
        <ele>597</ele>
        <time>2022-07-23T11:54:40Z</time>
      </trkpt>
      <trkpt lat="47.00227" lon="4.09496">
        <ele>597</ele>
        <time>2022-07-23T11:54:44Z</time>
      </trkpt>
      <trkpt lat="47.00226" lon="4.09539">
        <ele>597</ele>
        <time>2022-07-23T11:54:49Z</time>
      </trkpt>
      <trkpt lat="47.00215" lon="4.09608">
        <ele>599</ele>
        <time>2022-07-23T11:54:58Z</time>
      </trkpt>
      <trkpt lat="47.00213" lon="4.09635">
        <ele>599</ele>
        <time>2022-07-23T11:55:01Z</time>
      </trkpt>
      <trkpt lat="47.00218" lon="4.09669">
        <ele>597</ele>
        <time>2022-07-23T11:55:05Z</time>
      </trkpt>
      <trkpt lat="47.00238" lon="4.09721">
        <ele>592</ele>
        <time>2022-07-23T11:55:13Z</time>
      </trkpt>
      <trkpt lat="47.00243" lon="4.0975">
        <ele>591</ele>
        <time>2022-07-23T11:55:16Z</time>
      </trkpt>
      <trkpt lat="47.00248" lon="4.09784">
        <ele>589</ele>
        <time>2022-07-23T11:55:20Z</time>
      </trkpt>
      <trkpt lat="47.00248" lon="4.09813">
        <ele>588</ele>
        <time>2022-07-23T11:55:24Z</time>
      </trkpt>
      <trkpt lat="47.00245" lon="4.09837">
        <ele>588</ele>
        <time>2022-07-23T11:55:27Z</time>
      </trkpt>
      <trkpt lat="47.00243" lon="4.09856">
        <ele>589</ele>
        <time>2022-07-23T11:55:29Z</time>
      </trkpt>
      <trkpt lat="47.00244" lon="4.09869">
        <ele>589</ele>
        <time>2022-07-23T11:55:31Z</time>
      </trkpt>
      <trkpt lat="47.00248" lon="4.09882">
        <ele>589</ele>
        <time>2022-07-23T11:55:33Z</time>
      </trkpt>
      <trkpt lat="47.00258" lon="4.09892">
        <ele>587</ele>
        <time>2022-07-23T11:55:35Z</time>
      </trkpt>
      <trkpt lat="47.00285" lon="4.09907">
        <ele>585</ele>
        <time>2022-07-23T11:55:40Z</time>
      </trkpt>
      <trkpt lat="47.00453" lon="4.10061">
        <ele>582</ele>
        <time>2022-07-23T11:56:15Z</time>
      </trkpt>
      <trkpt lat="47.00495" lon="4.10113">
        <ele>580</ele>
        <time>2022-07-23T11:56:25Z</time>
      </trkpt>
      <trkpt lat="47.00499" lon="4.10129">
        <ele>580</ele>
        <time>2022-07-23T11:56:27Z</time>
      </trkpt>
      <trkpt lat="47.00501" lon="4.10147">
        <ele>581</ele>
        <time>2022-07-23T11:56:29Z</time>
      </trkpt>
      <trkpt lat="47.00498" lon="4.10171">
        <ele>581</ele>
        <time>2022-07-23T11:56:32Z</time>
      </trkpt>
      <trkpt lat="47.00479" lon="4.10219">
        <ele>583</ele>
        <time>2022-07-23T11:56:39Z</time>
      </trkpt>
      <trkpt lat="47.00462" lon="4.10303">
        <ele>586</ele>
        <time>2022-07-23T11:56:50Z</time>
      </trkpt>
      <trkpt lat="47.00464" lon="4.10325">
        <ele>586</ele>
        <time>2022-07-23T11:56:52Z</time>
      </trkpt>
      <trkpt lat="47.00482" lon="4.10395">
        <ele>585</ele>
        <time>2022-07-23T11:57:01Z</time>
      </trkpt>
      <trkpt lat="47.00514" lon="4.10449">
        <ele>585</ele>
        <time>2022-07-23T11:57:10Z</time>
      </trkpt>
      <trkpt lat="47.00539" lon="4.10485">
        <ele>588</ele>
        <time>2022-07-23T11:57:16Z</time>
      </trkpt>
      <trkpt lat="47.00557" lon="4.10504">
        <ele>587</ele>
        <time>2022-07-23T11:57:20Z</time>
      </trkpt>
      <trkpt lat="47.00571" lon="4.10508">
        <ele>586</ele>
        <time>2022-07-23T11:57:23Z</time>
      </trkpt>
      <trkpt lat="47.00618" lon="4.10498">
        <ele>583</ele>
        <time>2022-07-23T11:57:31Z</time>
      </trkpt>
      <trkpt lat="47.00638" lon="4.1049">
        <ele>582</ele>
        <time>2022-07-23T11:57:35Z</time>
      </trkpt>
      <trkpt lat="47.00666" lon="4.10467">
        <ele>578</ele>
        <time>2022-07-23T11:57:41Z</time>
      </trkpt>
      <trkpt lat="47.00691" lon="4.10436">
        <ele>574</ele>
        <time>2022-07-23T11:57:46Z</time>
      </trkpt>
      <trkpt lat="47.00717" lon="4.10412">
        <ele>572</ele>
        <time>2022-07-23T11:57:52Z</time>
      </trkpt>
      <trkpt lat="47.00722" lon="4.10404">
        <ele>572</ele>
        <time>2022-07-23T11:57:53Z</time>
      </trkpt>
      <trkpt lat="47.00727" lon="4.10393">
        <ele>572</ele>
        <time>2022-07-23T11:57:55Z</time>
      </trkpt>
      <trkpt lat="47.00743" lon="4.10377">
        <ele>571</ele>
        <time>2022-07-23T11:57:58Z</time>
      </trkpt>
      <trkpt lat="47.00767" lon="4.10365">
        <ele>570</ele>
        <time>2022-07-23T11:58:03Z</time>
      </trkpt>
      <trkpt lat="47.0078" lon="4.10362">
        <ele>571</ele>
        <time>2022-07-23T11:58:05Z</time>
      </trkpt>
      <trkpt lat="47.00838" lon="4.10361">
        <ele>574</ele>
        <time>2022-07-23T11:58:15Z</time>
      </trkpt>
      <trkpt lat="47.0086" lon="4.10372">
        <ele>575</ele>
        <time>2022-07-23T11:58:20Z</time>
      </trkpt>
      <trkpt lat="47.00882" lon="4.10388">
        <ele>575</ele>
        <time>2022-07-23T11:58:24Z</time>
      </trkpt>
      <trkpt lat="47.00896" lon="4.10408">
        <ele>573</ele>
        <time>2022-07-23T11:58:27Z</time>
      </trkpt>
      <trkpt lat="47.00904" lon="4.1044">
        <ele>571</ele>
        <time>2022-07-23T11:58:32Z</time>
      </trkpt>
      <trkpt lat="47.00911" lon="4.10474">
        <ele>569</ele>
        <time>2022-07-23T11:58:36Z</time>
      </trkpt>
      <trkpt lat="47.00915" lon="4.10514">
        <ele>568</ele>
        <time>2022-07-23T11:58:41Z</time>
      </trkpt>
      <trkpt lat="47.00917" lon="4.10528">
        <ele>569</ele>
        <time>2022-07-23T11:58:42Z</time>
      </trkpt>
      <trkpt lat="47.00921" lon="4.1054">
        <ele>570</ele>
        <time>2022-07-23T11:58:44Z</time>
      </trkpt>
      <trkpt lat="47.00926" lon="4.10545">
        <ele>570</ele>
        <time>2022-07-23T11:58:45Z</time>
      </trkpt>
      <trkpt lat="47.00945" lon="4.10548">
        <ele>570</ele>
        <time>2022-07-23T11:58:49Z</time>
      </trkpt>
      <trkpt lat="47.01013" lon="4.10503">
        <ele>565</ele>
        <time>2022-07-23T11:59:02Z</time>
      </trkpt>
      <trkpt lat="47.01026" lon="4.10499">
        <ele>565</ele>
        <time>2022-07-23T11:59:04Z</time>
      </trkpt>
      <trkpt lat="47.0106" lon="4.10513">
        <ele>564</ele>
        <time>2022-07-23T11:59:10Z</time>
      </trkpt>
      <trkpt lat="47.01078" lon="4.10513">
        <ele>563</ele>
        <time>2022-07-23T11:59:14Z</time>
      </trkpt>
      <trkpt lat="47.01202" lon="4.10443">
        <ele>568</ele>
        <time>2022-07-23T11:59:37Z</time>
      </trkpt>
      <trkpt lat="47.01251" lon="4.10419">
        <ele>567</ele>
        <time>2022-07-23T11:59:47Z</time>
      </trkpt>
      <trkpt lat="47.01269" lon="4.10416">
        <ele>568</ele>
        <time>2022-07-23T11:59:50Z</time>
      </trkpt>
      <trkpt lat="47.01296" lon="4.1042">
        <ele>567</ele>
        <time>2022-07-23T11:59:55Z</time>
      </trkpt>
      <trkpt lat="47.01377" lon="4.10471">
        <ele>564</ele>
        <time>2022-07-23T12:00:10Z</time>
      </trkpt>
      <trkpt lat="47.01401" lon="4.10495">
        <ele>563</ele>
        <time>2022-07-23T12:00:15Z</time>
      </trkpt>
      <trkpt lat="47.01407" lon="4.10505">
        <ele>562</ele>
        <time>2022-07-23T12:00:17Z</time>
      </trkpt>
      <trkpt lat="47.01423" lon="4.1058">
        <ele>552</ele>
        <time>2022-07-23T12:00:27Z</time>
      </trkpt>
      <trkpt lat="47.01427" lon="4.10593">
        <ele>551</ele>
        <time>2022-07-23T12:00:28Z</time>
      </trkpt>
      <trkpt lat="47.01441" lon="4.10616">
        <ele>552</ele>
        <time>2022-07-23T12:00:32Z</time>
      </trkpt>
      <trkpt lat="47.01459" lon="4.10631">
        <ele>555</ele>
        <time>2022-07-23T12:00:36Z</time>
      </trkpt>
      <trkpt lat="47.01465" lon="4.10642">
        <ele>554</ele>
        <time>2022-07-23T12:00:37Z</time>
      </trkpt>
      <trkpt lat="47.01478" lon="4.10694">
        <ele>546</ele>
        <time>2022-07-23T12:00:44Z</time>
      </trkpt>
      <trkpt lat="47.01543" lon="4.10753">
        <ele>549</ele>
        <time>2022-07-23T12:00:58Z</time>
      </trkpt>
      <trkpt lat="47.01591" lon="4.10834">
        <ele>543</ele>
        <time>2022-07-23T12:01:11Z</time>
      </trkpt>
      <trkpt lat="47.0162" lon="4.1089">
        <ele>540</ele>
        <time>2022-07-23T12:01:19Z</time>
      </trkpt>
      <trkpt lat="47.01637" lon="4.10918">
        <ele>539</ele>
        <time>2022-07-23T12:01:24Z</time>
      </trkpt>
      <trkpt lat="47.01654" lon="4.10925">
        <ele>543</ele>
        <time>2022-07-23T12:01:27Z</time>
      </trkpt>
      <trkpt lat="47.01666" lon="4.10922">
        <ele>547</ele>
        <time>2022-07-23T12:01:29Z</time>
      </trkpt>
      <trkpt lat="47.01701" lon="4.10891">
        <ele>551</ele>
        <time>2022-07-23T12:01:36Z</time>
      </trkpt>
      <trkpt lat="47.01733" lon="4.10856">
        <ele>555</ele>
        <time>2022-07-23T12:01:44Z</time>
      </trkpt>
      <trkpt lat="47.01804" lon="4.10817">
        <ele>554</ele>
        <time>2022-07-23T12:01:57Z</time>
      </trkpt>
      <trkpt lat="47.01836" lon="4.1081">
        <ele>552</ele>
        <time>2022-07-23T12:02:03Z</time>
      </trkpt>
      <trkpt lat="47.01898" lon="4.10808">
        <ele>549</ele>
        <time>2022-07-23T12:02:14Z</time>
      </trkpt>
      <trkpt lat="47.01915" lon="4.10801">
        <ele>548</ele>
        <time>2022-07-23T12:02:17Z</time>
      </trkpt>
      <trkpt lat="47.0193" lon="4.10784">
        <ele>546</ele>
        <time>2022-07-23T12:02:20Z</time>
      </trkpt>
      <trkpt lat="47.01943" lon="4.10764">
        <ele>545</ele>
        <time>2022-07-23T12:02:24Z</time>
      </trkpt>
      <trkpt lat="47.02014" lon="4.10574">
        <ele>537</ele>
        <time>2022-07-23T12:02:50Z</time>
      </trkpt>
      <trkpt lat="47.02102" lon="4.10444">
        <ele>531</ele>
        <time>2022-07-23T12:03:12Z</time>
      </trkpt>
      <trkpt lat="47.02109" lon="4.10439">
        <ele>531</ele>
        <time>2022-07-23T12:03:14Z</time>
      </trkpt>
      <trkpt lat="47.02119" lon="4.10436">
        <ele>530</ele>
        <time>2022-07-23T12:03:15Z</time>
      </trkpt>
      <trkpt lat="47.02127" lon="4.10441">
        <ele>530</ele>
        <time>2022-07-23T12:03:17Z</time>
      </trkpt>
      <trkpt lat="47.02135" lon="4.10449">
        <ele>529</ele>
        <time>2022-07-23T12:03:19Z</time>
      </trkpt>
      <trkpt lat="47.0214" lon="4.10461">
        <ele>529</ele>
        <time>2022-07-23T12:03:20Z</time>
      </trkpt>
      <trkpt lat="47.02143" lon="4.10476">
        <ele>528</ele>
        <time>2022-07-23T12:03:22Z</time>
      </trkpt>
      <trkpt lat="47.02141" lon="4.10505">
        <ele>526.4</ele>
      </trkpt>
      <trkpt lat="47.02128" lon="4.10554">
        <ele>526</ele>
      </trkpt>
      <trkpt lat="47.02137" lon="4.10581">
        <ele>528.5</ele>
      </trkpt>
      <trkpt lat="47.02183" lon="4.10464">
        <ele>531.4</ele>
      </trkpt>
      <trkpt lat="47.02193" lon="4.10457">
        <ele>533.7</ele>
      </trkpt>
      <trkpt lat="47.02196" lon="4.10484">
        <ele>534.6</ele>
      </trkpt>
      <trkpt lat="47.0219" lon="4.10513">
        <ele>534.9</ele>
      </trkpt>
      <trkpt lat="47.02147" lon="4.10596">
        <ele>532.3</ele>
      </trkpt>
      <trkpt lat="47.02126" lon="4.10655">
        <ele>531.9</ele>
      </trkpt>
      <trkpt lat="47.02104" lon="4.10711">
        <ele>530.8</ele>
      </trkpt>
      <trkpt lat="47.02099" lon="4.10762">
        <ele>531.6</ele>
      </trkpt>
      <trkpt lat="47.02099" lon="4.1084">
        <ele>530.9</ele>
      </trkpt>
      <trkpt lat="47.02108" lon="4.10892">
        <ele>530.9</ele>
      </trkpt>
      <trkpt lat="47.02127" lon="4.10969">
        <ele>531.6</ele>
      </trkpt>
      <trkpt lat="47.02146" lon="4.11029">
        <ele>529.9</ele>
      </trkpt>
      <trkpt lat="47.02168" lon="4.11057">
        <ele>529.9</ele>
      </trkpt>
      <trkpt lat="47.02203" lon="4.11093">
        <ele>530.1</ele>
      </trkpt>
      <trkpt lat="47.0222" lon="4.11142">
        <ele>530.6</ele>
      </trkpt>
      <trkpt lat="47.0227" lon="4.11211">
        <ele>537.4</ele>
      </trkpt>
      <trkpt lat="47.02305" lon="4.11335">
        <ele>541.8</ele>
      </trkpt>
      <trkpt lat="47.02349" lon="4.11532">
        <ele>538.9</ele>
      </trkpt>
      <trkpt lat="47.02407" lon="4.11657">
        <ele>531.9</ele>
      </trkpt>
      <trkpt lat="47.02463" lon="4.11696">
        <ele>530.2</ele>
      </trkpt>
      <trkpt lat="47.02542" lon="4.11751">
        <ele>533</ele>
      </trkpt>
      <trkpt lat="47.026" lon="4.11816">
        <ele>536.6</ele>
      </trkpt>
      <trkpt lat="47.02893" lon="4.12189">
        <ele>512.3</ele>
      </trkpt>
      <trkpt lat="47.02984" lon="4.12108">
        <ele>499.7</ele>
      </trkpt>
      <trkpt lat="47.03074" lon="4.12116">
        <ele>497.2</ele>
      </trkpt>
      <trkpt lat="47.03197" lon="4.12133">
        <ele>490.4</ele>
      </trkpt>
      <trkpt lat="47.03229" lon="4.12193">
        <ele>491.3</ele>
      </trkpt>
      <trkpt lat="47.03232" lon="4.12318">
        <ele>498.3</ele>
      </trkpt>
      <trkpt lat="47.03226" lon="4.12429">
        <ele>499.1</ele>
      </trkpt>
      <trkpt lat="47.03218" lon="4.12502">
        <ele>499.2</ele>
      </trkpt>
      <trkpt lat="47.03211" lon="4.12573">
        <ele>503.8</ele>
      </trkpt>
      <trkpt lat="47.03212" lon="4.12617">
        <ele>507.4</ele>
      </trkpt>
      <trkpt lat="47.03332" lon="4.1283">
        <ele>519.7</ele>
      </trkpt>
      <trkpt lat="47.03586" lon="4.1264">
        <ele>527.6</ele>
      </trkpt>
      <trkpt lat="47.03602" lon="4.12625">
        <ele>530.1</ele>
      </trkpt>
      <trkpt lat="47.03638" lon="4.1253">
        <ele>532.9</ele>
      </trkpt>
      <trkpt lat="47.03638" lon="4.12496">
        <ele>535.6</ele>
      </trkpt>
      <trkpt lat="47.03611" lon="4.12481">
        <ele>536.4</ele>
      </trkpt>
      <trkpt lat="47.03565" lon="4.1244">
        <ele>539.1</ele>
      </trkpt>
      <trkpt lat="47.03542" lon="4.12412">
        <ele>540.2</ele>
      </trkpt>
      <trkpt lat="47.03533" lon="4.12369">
        <ele>543.8</ele>
      </trkpt>
      <trkpt lat="47.0353" lon="4.12305">
        <ele>545.3</ele>
      </trkpt>
      <trkpt lat="47.03532" lon="4.12258">
        <ele>544.7</ele>
      </trkpt>
      <trkpt lat="47.037" lon="4.12146">
        <ele>552.6</ele>
      </trkpt>
      <trkpt lat="47.0376" lon="4.12131">
        <ele>557.9</ele>
      </trkpt>
      <trkpt lat="47.03783" lon="4.12112">
        <ele>560.8</ele>
      </trkpt>
      <trkpt lat="47.03829" lon="4.12144">
        <ele>567.3</ele>
      </trkpt>
      <trkpt lat="47.03858" lon="4.12146">
        <ele>570.9</ele>
      </trkpt>
      <trkpt lat="47.0395" lon="4.12144">
        <ele>579.2</ele>
      </trkpt>
      <trkpt lat="47.03963" lon="4.11972">
        <ele>585.3</ele>
      </trkpt>
      <trkpt lat="47.0395" lon="4.11906">
        <ele>589.2</ele>
      </trkpt>
      <trkpt lat="47.03902" lon="4.1179">
        <ele>596.3</ele>
      </trkpt>
      <trkpt lat="47.03886" lon="4.11661">
        <ele>597.7</ele>
      </trkpt>
      <trkpt lat="47.03884" lon="4.11528">
        <ele>603.5</ele>
      </trkpt>
      <trkpt lat="47.03903" lon="4.11466">
        <ele>604.8</ele>
      </trkpt>
      <trkpt lat="47.04013" lon="4.11215">
        <ele>605.1</ele>
      </trkpt>
      <trkpt lat="47.04035" lon="4.11108">
        <ele>607.3</ele>
      </trkpt>
      <trkpt lat="47.03985" lon="4.10842">
        <ele>608.2</ele>
      </trkpt>
      <trkpt lat="47.03962" lon="4.10769">
        <ele>608.6</ele>
      </trkpt>
      <trkpt lat="47.03818" lon="4.10693">
        <ele>609.6</ele>
      </trkpt>
      <trkpt lat="47.0364" lon="4.10537">
        <ele>617.5</ele>
      </trkpt>
      <trkpt lat="47.03612" lon="4.1049">
        <ele>616.3</ele>
      </trkpt>
      <trkpt lat="47.03603" lon="4.10415">
        <ele>619.7</ele>
      </trkpt>
      <trkpt lat="47.03605" lon="4.10352">
        <ele>621.1</ele>
      </trkpt>
      <trkpt lat="47.03634" lon="4.10299">
        <ele>624</ele>
      </trkpt>
      <trkpt lat="47.03653" lon="4.10247">
        <ele>624</ele>
      </trkpt>
      <trkpt lat="47.0365" lon="4.10183">
        <ele>624.8</ele>
      </trkpt>
      <trkpt lat="47.03617" lon="4.10129">
        <ele>627</ele>
      </trkpt>
      <trkpt lat="47.03581" lon="4.10106">
        <ele>627.7</ele>
      </trkpt>
      <trkpt lat="47.03543" lon="4.10088">
        <ele>629.6</ele>
      </trkpt>
      <trkpt lat="47.03508" lon="4.10086">
        <ele>631.9</ele>
      </trkpt>
      <trkpt lat="47.03486" lon="4.10097">
        <ele>631.8</ele>
      </trkpt>
      <trkpt lat="47.03469" lon="4.10106">
        <ele>632.3</ele>
      </trkpt>
      <trkpt lat="47.03451" lon="4.10121">
        <ele>632.9</ele>
      </trkpt>
      <trkpt lat="47.03423" lon="4.10142">
        <ele>634.8</ele>
      </trkpt>
      <trkpt lat="47.03374" lon="4.10193">
        <ele>638.7</ele>
      </trkpt>
      <trkpt lat="47.03331" lon="4.10191">
        <ele>643.1</ele>
      </trkpt>
      <trkpt lat="47.03302" lon="4.10159">
        <ele>644</ele>
      </trkpt>
      <trkpt lat="47.03277" lon="4.1011">
        <ele>644</ele>
      </trkpt>
      <trkpt lat="47.03249" lon="4.10013">
        <ele>641.4</ele>
      </trkpt>
      <trkpt lat="47.03236" lon="4.09904">
        <ele>636.8</ele>
      </trkpt>
      <trkpt lat="47.03213" lon="4.09749">
        <ele>633</ele>
      </trkpt>
      <trkpt lat="47.03185" lon="4.09556">
        <ele>627.3</ele>
      </trkpt>
      <trkpt lat="47.03182" lon="4.09387">
        <ele>623.5</ele>
      </trkpt>
      <trkpt lat="47.03194" lon="4.09206">
        <ele>615.8</ele>
      </trkpt>
      <trkpt lat="47.03198" lon="4.09063">
        <ele>611.1</ele>
      </trkpt>
      <trkpt lat="47.03157" lon="4.08908">
        <ele>608.7</ele>
      </trkpt>
      <trkpt lat="47.0314" lon="4.08831">
        <ele>609.1</ele>
      </trkpt>
      <trkpt lat="47.03127" lon="4.08804">
        <ele>608</ele>
        <time>2022-07-23T12:08:42Z</time>
      </trkpt>
      <trkpt lat="47.03135" lon="4.08803">
        <ele>607</ele>
        <time>2022-07-23T12:08:43Z</time>
      </trkpt>
      <trkpt lat="47.03321" lon="4.08707">
        <ele>598</ele>
        <time>2022-07-23T12:09:19Z</time>
      </trkpt>
      <trkpt lat="47.03333" lon="4.08703">
        <ele>598</ele>
        <time>2022-07-23T12:09:21Z</time>
      </trkpt>
      <trkpt lat="47.03347" lon="4.08703">
        <ele>597</ele>
        <time>2022-07-23T12:09:23Z</time>
      </trkpt>
      <trkpt lat="47.0336" lon="4.08711">
        <ele>596</ele>
        <time>2022-07-23T12:09:26Z</time>
      </trkpt>
      <trkpt lat="47.03426" lon="4.08781">
        <ele>592</ele>
        <time>2022-07-23T12:09:40Z</time>
      </trkpt>
      <trkpt lat="47.03458" lon="4.0882">
        <ele>588</ele>
        <time>2022-07-23T12:09:48Z</time>
      </trkpt>
      <trkpt lat="47.03469" lon="4.08827">
        <ele>587</ele>
        <time>2022-07-23T12:09:50Z</time>
      </trkpt>
      <trkpt lat="47.03482" lon="4.08829">
        <ele>585</ele>
        <time>2022-07-23T12:09:52Z</time>
      </trkpt>
      <trkpt lat="47.03495" lon="4.08818">
        <ele>583</ele>
        <time>2022-07-23T12:09:55Z</time>
      </trkpt>
      <trkpt lat="47.03507" lon="4.08795">
        <ele>582</ele>
        <time>2022-07-23T12:09:58Z</time>
      </trkpt>
      <trkpt lat="47.03526" lon="4.08724">
        <ele>579</ele>
        <time>2022-07-23T12:10:08Z</time>
      </trkpt>
      <trkpt lat="47.03531" lon="4.08677">
        <ele>578</ele>
        <time>2022-07-23T12:10:13Z</time>
      </trkpt>
      <trkpt lat="47.03532" lon="4.08657">
        <ele>577</ele>
        <time>2022-07-23T12:10:16Z</time>
      </trkpt>
      <trkpt lat="47.03524" lon="4.08542">
        <ele>570</ele>
        <time>2022-07-23T12:10:30Z</time>
      </trkpt>
      <trkpt lat="47.03525" lon="4.08384">
        <ele>565</ele>
        <time>2022-07-23T12:10:49Z</time>
      </trkpt>
      <trkpt lat="47.03518" lon="4.08325">
        <ele>564</ele>
        <time>2022-07-23T12:10:56Z</time>
      </trkpt>
      <trkpt lat="47.03503" lon="4.08278">
        <ele>562</ele>
        <time>2022-07-23T12:11:02Z</time>
      </trkpt>
      <trkpt lat="47.03462" lon="4.08205">
        <ele>559</ele>
        <time>2022-07-23T12:11:14Z</time>
      </trkpt>
      <trkpt lat="47.03356" lon="4.08033">
        <ele>549</ele>
        <time>2022-07-23T12:11:42Z</time>
      </trkpt>
      <trkpt lat="47.0335" lon="4.0801">
        <ele>549</ele>
        <time>2022-07-23T12:11:45Z</time>
      </trkpt>
      <trkpt lat="47.03354" lon="4.07986">
        <ele>550</ele>
        <time>2022-07-23T12:11:48Z</time>
      </trkpt>
      <trkpt lat="47.03361" lon="4.07971">
        <ele>552</ele>
        <time>2022-07-23T12:11:50Z</time>
      </trkpt>
      <trkpt lat="47.03374" lon="4.07965">
        <ele>552</ele>
        <time>2022-07-23T12:11:53Z</time>
      </trkpt>
      <trkpt lat="47.03394" lon="4.07968">
        <ele>551</ele>
        <time>2022-07-23T12:11:56Z</time>
      </trkpt>
      <trkpt lat="47.03435" lon="4.07981">
        <ele>547</ele>
        <time>2022-07-23T12:12:04Z</time>
      </trkpt>
      <trkpt lat="47.03518" lon="4.07992">
        <ele>540</ele>
        <time>2022-07-23T12:12:19Z</time>
      </trkpt>
      <trkpt lat="47.03613" lon="4.08025">
        <ele>526</ele>
        <time>2022-07-23T12:12:36Z</time>
      </trkpt>
      <trkpt lat="47.0363" lon="4.08022">
        <ele>524</ele>
        <time>2022-07-23T12:12:39Z</time>
      </trkpt>
      <trkpt lat="47.03688" lon="4.08001">
        <ele>517</ele>
        <time>2022-07-23T12:12:50Z</time>
      </trkpt>
      <trkpt lat="47.03719" lon="4.07976">
        <ele>511</ele>
        <time>2022-07-23T12:12:56Z</time>
      </trkpt>
      <trkpt lat="47.03809" lon="4.07886">
        <ele>503</ele>
        <time>2022-07-23T12:13:15Z</time>
      </trkpt>
      <trkpt lat="47.03824" lon="4.07878">
        <ele>502</ele>
        <time>2022-07-23T12:13:18Z</time>
      </trkpt>
      <trkpt lat="47.03866" lon="4.07863">
        <ele>499</ele>
        <time>2022-07-23T12:13:26Z</time>
      </trkpt>
      <trkpt lat="47.03949" lon="4.07847">
        <ele>491</ele>
        <time>2022-07-23T12:13:41Z</time>
      </trkpt>
      <trkpt lat="47.03954" lon="4.07841">
        <ele>491</ele>
        <time>2022-07-23T12:13:42Z</time>
      </trkpt>
      <trkpt lat="47.03989" lon="4.07779">
        <ele>491</ele>
        <time>2022-07-23T12:13:52Z</time>
      </trkpt>
      <trkpt lat="47.04006" lon="4.07759">
        <ele>492</ele>
        <time>2022-07-23T12:13:55Z</time>
      </trkpt>
      <trkpt lat="47.04024" lon="4.07758">
        <ele>492</ele>
        <time>2022-07-23T12:13:59Z</time>
      </trkpt>
      <trkpt lat="47.04031" lon="4.07764">
        <ele>492</ele>
        <time>2022-07-23T12:14:00Z</time>
      </trkpt>
      <trkpt lat="47.04067" lon="4.07813">
        <ele>489</ele>
        <time>2022-07-23T12:14:09Z</time>
      </trkpt>
      <trkpt lat="47.04076" lon="4.07822">
        <ele>489</ele>
        <time>2022-07-23T12:14:11Z</time>
      </trkpt>
      <trkpt lat="47.04117" lon="4.07847">
        <ele>487</ele>
        <time>2022-07-23T12:14:19Z</time>
      </trkpt>
      <trkpt lat="47.04244" lon="4.07881">
        <ele>478</ele>
        <time>2022-07-23T12:14:42Z</time>
      </trkpt>
      <trkpt lat="47.04294" lon="4.07897">
        <ele>473</ele>
        <time>2022-07-23T12:14:51Z</time>
      </trkpt>
      <trkpt lat="47.04315" lon="4.07902">
        <ele>471</ele>
        <time>2022-07-23T12:14:55Z</time>
      </trkpt>
      <trkpt lat="47.04345" lon="4.07903">
        <ele>469</ele>
        <time>2022-07-23T12:15:00Z</time>
      </trkpt>
      <trkpt lat="47.04374" lon="4.079">
        <ele>468</ele>
        <time>2022-07-23T12:15:05Z</time>
      </trkpt>
      <trkpt lat="47.04527" lon="4.07874">
        <ele>466</ele>
        <time>2022-07-23T12:15:32Z</time>
      </trkpt>
      <trkpt lat="47.04536" lon="4.07875">
        <ele>466</ele>
        <time>2022-07-23T12:15:34Z</time>
      </trkpt>
      <trkpt lat="47.04581" lon="4.07898">
        <ele>463</ele>
        <time>2022-07-23T12:15:43Z</time>
      </trkpt>
      <trkpt lat="47.04601" lon="4.07915">
        <ele>462</ele>
        <time>2022-07-23T12:15:47Z</time>
      </trkpt>
      <trkpt lat="47.04605" lon="4.07921">
        <ele>462</ele>
        <time>2022-07-23T12:15:48Z</time>
      </trkpt>
      <trkpt lat="47.04611" lon="4.07943">
        <ele>461</ele>
        <time>2022-07-23T12:15:51Z</time>
      </trkpt>
      <trkpt lat="47.04614" lon="4.07984">
        <ele>459</ele>
        <time>2022-07-23T12:15:56Z</time>
      </trkpt>
      <trkpt lat="47.04619" lon="4.08003">
        <ele>458</ele>
        <time>2022-07-23T12:15:58Z</time>
      </trkpt>
      <trkpt lat="47.04642" lon="4.08047">
        <ele>458</ele>
        <time>2022-07-23T12:16:05Z</time>
      </trkpt>
      <trkpt lat="47.04662" lon="4.08078">
        <ele>458</ele>
        <time>2022-07-23T12:16:10Z</time>
      </trkpt>
      <trkpt lat="47.0467" lon="4.08087">
        <ele>458</ele>
        <time>2022-07-23T12:16:12Z</time>
      </trkpt>
      <trkpt lat="47.04723" lon="4.08113">
        <ele>456</ele>
        <time>2022-07-23T12:16:22Z</time>
      </trkpt>
      <trkpt lat="47.04773" lon="4.08145">
        <ele>452</ele>
        <time>2022-07-23T12:16:31Z</time>
      </trkpt>
      <trkpt lat="47.04784" lon="4.08158">
        <ele>450</ele>
        <time>2022-07-23T12:16:34Z</time>
      </trkpt>
      <trkpt lat="47.04799" lon="4.08171">
        <ele>448</ele>
        <time>2022-07-23T12:16:37Z</time>
      </trkpt>
      <trkpt lat="47.04812" lon="4.08173">
        <ele>448</ele>
        <time>2022-07-23T12:16:39Z</time>
      </trkpt>
      <trkpt lat="47.0486" lon="4.08154">
        <ele>448</ele>
        <time>2022-07-23T12:16:48Z</time>
      </trkpt>
      <trkpt lat="47.04874" lon="4.08152">
        <ele>448</ele>
        <time>2022-07-23T12:16:51Z</time>
      </trkpt>
      <trkpt lat="47.04885" lon="4.08155">
        <ele>447</ele>
        <time>2022-07-23T12:16:53Z</time>
      </trkpt>
      <trkpt lat="47.04934" lon="4.08179">
        <ele>444</ele>
        <time>2022-07-23T12:17:02Z</time>
      </trkpt>
      <trkpt lat="47.04972" lon="4.08195">
        <ele>443</ele>
        <time>2022-07-23T12:17:09Z</time>
      </trkpt>
      <trkpt lat="47.04977" lon="4.08195">
        <ele>443</ele>
        <time>2022-07-23T12:17:10Z</time>
      </trkpt>
      <trkpt lat="47.05024" lon="4.08196">
        <ele>442</ele>
        <time>2022-07-23T12:17:18Z</time>
      </trkpt>
      <trkpt lat="47.0507" lon="4.08189">
        <ele>440</ele>
        <time>2022-07-23T12:17:26Z</time>
      </trkpt>
      <trkpt lat="47.05099" lon="4.08181">
        <ele>439</ele>
        <time>2022-07-23T12:17:32Z</time>
      </trkpt>
      <trkpt lat="47.05118" lon="4.08173">
        <ele>439</ele>
        <time>2022-07-23T12:17:35Z</time>
      </trkpt>
      <trkpt lat="47.05176" lon="4.0814">
        <ele>441</ele>
        <time>2022-07-23T12:17:46Z</time>
      </trkpt>
      <trkpt lat="47.05206" lon="4.08126">
        <ele>444</ele>
        <time>2022-07-23T12:17:52Z</time>
      </trkpt>
      <trkpt lat="47.05225" lon="4.08123">
        <ele>445</ele>
        <time>2022-07-23T12:17:55Z</time>
      </trkpt>
      <trkpt lat="47.05249" lon="4.08122">
        <ele>446</ele>
        <time>2022-07-23T12:17:59Z</time>
      </trkpt>
      <trkpt lat="47.05298" lon="4.08126">
        <ele>444</ele>
        <time>2022-07-23T12:18:08Z</time>
      </trkpt>
      <trkpt lat="47.0532" lon="4.08121">
        <ele>444</ele>
        <time>2022-07-23T12:18:12Z</time>
      </trkpt>
      <trkpt lat="47.05336" lon="4.08112">
        <ele>446</ele>
        <time>2022-07-23T12:18:15Z</time>
      </trkpt>
      <trkpt lat="47.05373" lon="4.08086">
        <ele>445</ele>
        <time>2022-07-23T12:18:22Z</time>
      </trkpt>
      <trkpt lat="47.05402" lon="4.08062">
        <ele>444</ele>
        <time>2022-07-23T12:18:28Z</time>
      </trkpt>
      <trkpt lat="47.05432" lon="4.08026">
        <ele>444</ele>
        <time>2022-07-23T12:18:35Z</time>
      </trkpt>
      <trkpt lat="47.0545" lon="4.07997">
        <ele>444</ele>
        <time>2022-07-23T12:18:40Z</time>
      </trkpt>
      <trkpt lat="47.05467" lon="4.07973">
        <ele>446</ele>
        <time>2022-07-23T12:18:44Z</time>
      </trkpt>
      <trkpt lat="47.05487" lon="4.07954">
        <ele>445</ele>
        <time>2022-07-23T12:18:48Z</time>
      </trkpt>
      <trkpt lat="47.05496" lon="4.07949">
        <ele>445</ele>
        <time>2022-07-23T12:18:50Z</time>
      </trkpt>
      <trkpt lat="47.05597" lon="4.07967">
        <ele>450</ele>
        <time>2022-07-23T12:19:08Z</time>
      </trkpt>
      <trkpt lat="47.05618" lon="4.07979">
        <ele>453</ele>
        <time>2022-07-23T12:19:12Z</time>
      </trkpt>
      <trkpt lat="47.05639" lon="4.08004">
        <ele>456</ele>
        <time>2022-07-23T12:19:17Z</time>
      </trkpt>
      <trkpt lat="47.0565" lon="4.08013">
        <ele>460</ele>
        <time>2022-07-23T12:19:19Z</time>
      </trkpt>
      <trkpt lat="47.05669" lon="4.08019">
        <ele>464</ele>
        <time>2022-07-23T12:19:23Z</time>
      </trkpt>
      <trkpt lat="47.05745" lon="4.0802">
        <ele>469</ele>
        <time>2022-07-23T12:19:36Z</time>
      </trkpt>
      <trkpt lat="47.05852" lon="4.0804">
        <ele>475</ele>
        <time>2022-07-23T12:19:56Z</time>
      </trkpt>
      <trkpt lat="47.05918" lon="4.08056">
        <ele>483</ele>
        <time>2022-07-23T12:20:07Z</time>
      </trkpt>
      <trkpt lat="47.05938" lon="4.08056">
        <ele>485</ele>
        <time>2022-07-23T12:20:11Z</time>
      </trkpt>
      <trkpt lat="47.06059" lon="4.08032">
        <ele>491</ele>
        <time>2022-07-23T12:20:33Z</time>
      </trkpt>
      <trkpt lat="47.06081" lon="4.08031">
        <ele>492</ele>
        <time>2022-07-23T12:20:37Z</time>
      </trkpt>
      <trkpt lat="47.06106" lon="4.08021">
        <ele>492</ele>
        <time>2022-07-23T12:20:41Z</time>
      </trkpt>
      <trkpt lat="47.06159" lon="4.07982">
        <ele>492</ele>
        <time>2022-07-23T12:20:52Z</time>
      </trkpt>
      <trkpt lat="47.0617" lon="4.0797">
        <ele>492</ele>
        <time>2022-07-23T12:20:54Z</time>
      </trkpt>
      <trkpt lat="47.06185" lon="4.0795">
        <ele>494</ele>
        <time>2022-07-23T12:20:58Z</time>
      </trkpt>
      <trkpt lat="47.06247" lon="4.07837">
        <ele>496</ele>
        <time>2022-07-23T12:21:15Z</time>
      </trkpt>
      <trkpt lat="47.06262" lon="4.07815">
        <ele>497</ele>
        <time>2022-07-23T12:21:19Z</time>
      </trkpt>
      <trkpt lat="47.06287" lon="4.07788">
        <ele>499</ele>
        <time>2022-07-23T12:21:25Z</time>
      </trkpt>
      <trkpt lat="47.06306" lon="4.07773">
        <ele>500</ele>
        <time>2022-07-23T12:21:29Z</time>
      </trkpt>
      <trkpt lat="47.06327" lon="4.07765">
        <ele>501</ele>
        <time>2022-07-23T12:21:32Z</time>
      </trkpt>
      <trkpt lat="47.06358" lon="4.07762">
        <ele>503</ele>
        <time>2022-07-23T12:21:38Z</time>
      </trkpt>
      <trkpt lat="47.06375" lon="4.07773">
        <ele>506</ele>
        <time>2022-07-23T12:21:41Z</time>
      </trkpt>
      <trkpt lat="47.06389" lon="4.07776">
        <ele>507</ele>
        <time>2022-07-23T12:21:44Z</time>
      </trkpt>
      <trkpt lat="47.06425" lon="4.07789">
        <ele>511</ele>
        <time>2022-07-23T12:21:50Z</time>
      </trkpt>
      <trkpt lat="47.06455" lon="4.07789">
        <ele>512</ele>
        <time>2022-07-23T12:21:56Z</time>
      </trkpt>
      <trkpt lat="47.06488" lon="4.07794">
        <ele>512</ele>
        <time>2022-07-23T12:22:02Z</time>
      </trkpt>
      <trkpt lat="47.06514" lon="4.07805">
        <ele>514</ele>
        <time>2022-07-23T12:22:06Z</time>
      </trkpt>
      <trkpt lat="47.06556" lon="4.07833">
        <ele>518</ele>
        <time>2022-07-23T12:22:15Z</time>
      </trkpt>
      <trkpt lat="47.06573" lon="4.07838">
        <ele>518</ele>
        <time>2022-07-23T12:22:18Z</time>
      </trkpt>
      <trkpt lat="47.0659" lon="4.07839">
        <ele>518</ele>
        <time>2022-07-23T12:22:21Z</time>
      </trkpt>
      <trkpt lat="47.06617" lon="4.07833">
        <ele>519</ele>
        <time>2022-07-23T12:22:26Z</time>
      </trkpt>
      <trkpt lat="47.06636" lon="4.07831">
        <ele>520</ele>
        <time>2022-07-23T12:22:29Z</time>
      </trkpt>
      <trkpt lat="47.06657" lon="4.07838">
        <ele>522</ele>
        <time>2022-07-23T12:22:33Z</time>
      </trkpt>
      <trkpt lat="47.0669" lon="4.07856">
        <ele>525</ele>
        <time>2022-07-23T12:22:39Z</time>
      </trkpt>
      <trkpt lat="47.06704" lon="4.0786">
        <ele>527</ele>
        <time>2022-07-23T12:22:42Z</time>
      </trkpt>
      <trkpt lat="47.0678" lon="4.07856">
        <ele>531</ele>
        <time>2022-07-23T12:22:55Z</time>
      </trkpt>
      <trkpt lat="47.06826" lon="4.0785">
        <ele>533</ele>
        <time>2022-07-23T12:23:03Z</time>
      </trkpt>
      <trkpt lat="47.06851" lon="4.07879">
        <ele>536</ele>
        <time>2022-07-23T12:23:09Z</time>
      </trkpt>
      <trkpt lat="47.06866" lon="4.07913">
        <ele>537</ele>
        <time>2022-07-23T12:23:14Z</time>
      </trkpt>
      <trkpt lat="47.06874" lon="4.07939">
        <ele>538</ele>
        <time>2022-07-23T12:23:17Z</time>
      </trkpt>
      <trkpt lat="47.06884" lon="4.07966">
        <ele>538</ele>
        <time>2022-07-23T12:23:21Z</time>
      </trkpt>
      <trkpt lat="47.06939" lon="4.08072">
        <ele>535</ele>
        <time>2022-07-23T12:23:37Z</time>
      </trkpt>
      <trkpt lat="47.06945" lon="4.0808">
        <ele>535</ele>
        <time>2022-07-23T12:23:39Z</time>
      </trkpt>
      <trkpt lat="47.06951" lon="4.08084">
        <ele>534</ele>
        <time>2022-07-23T12:23:40Z</time>
      </trkpt>
      <trkpt lat="47.06987" lon="4.08088">
        <ele>532</ele>
        <time>2022-07-23T12:23:46Z</time>
      </trkpt>
      <trkpt lat="47.07009" lon="4.08086">
        <ele>532</ele>
        <time>2022-07-23T12:23:50Z</time>
      </trkpt>
      <trkpt lat="47.07028" lon="4.08079">
        <ele>532</ele>
        <time>2022-07-23T12:23:54Z</time>
      </trkpt>
      <trkpt lat="47.07049" lon="4.08063">
        <ele>533</ele>
        <time>2022-07-23T12:23:58Z</time>
      </trkpt>
      <trkpt lat="47.07062" lon="4.08061">
        <ele>533</ele>
        <time>2022-07-23T12:24:00Z</time>
      </trkpt>
      <trkpt lat="47.07073" lon="4.08062">
        <ele>533</ele>
        <time>2022-07-23T12:24:02Z</time>
      </trkpt>
      <trkpt lat="47.071" lon="4.08079">
        <ele>531</ele>
        <time>2022-07-23T12:24:07Z</time>
      </trkpt>
      <trkpt lat="47.07151" lon="4.08119">
        <ele>527</ele>
        <time>2022-07-23T12:24:18Z</time>
      </trkpt>
      <trkpt lat="47.07221" lon="4.082">
        <ele>519</ele>
        <time>2022-07-23T12:24:34Z</time>
      </trkpt>
      <trkpt lat="47.07235" lon="4.08208">
        <ele>519</ele>
        <time>2022-07-23T12:24:36Z</time>
      </trkpt>
      <trkpt lat="47.07256" lon="4.08224">
        <ele>520</ele>
        <time>2022-07-23T12:24:40Z</time>
      </trkpt>
      <trkpt lat="47.07266" lon="4.08242">
        <ele>520</ele>
        <time>2022-07-23T12:24:43Z</time>
      </trkpt>
      <trkpt lat="47.07285" lon="4.08327">
        <ele>513</ele>
        <time>2022-07-23T12:24:54Z</time>
      </trkpt>
      <trkpt lat="47.07307" lon="4.08393">
        <ele>509</ele>
        <time>2022-07-23T12:25:03Z</time>
      </trkpt>
      <trkpt lat="47.07322" lon="4.08427">
        <ele>507</ele>
        <time>2022-07-23T12:25:08Z</time>
      </trkpt>
      <trkpt lat="47.07348" lon="4.08467">
        <ele>508</ele>
        <time>2022-07-23T12:25:15Z</time>
      </trkpt>
      <trkpt lat="47.07356" lon="4.08482">
        <ele>508</ele>
        <time>2022-07-23T12:25:17Z</time>
      </trkpt>
      <trkpt lat="47.0736" lon="4.08494">
        <ele>507</ele>
        <time>2022-07-23T12:25:19Z</time>
      </trkpt>
      <trkpt lat="47.0736" lon="4.08509">
        <ele>507</ele>
        <time>2022-07-23T12:25:20Z</time>
      </trkpt>
      <trkpt lat="47.07358" lon="4.08521">
        <ele>507</ele>
        <time>2022-07-23T12:25:22Z</time>
      </trkpt>
      <trkpt lat="47.07354" lon="4.08531">
        <ele>507</ele>
        <time>2022-07-23T12:25:23Z</time>
      </trkpt>
      <trkpt lat="47.07315" lon="4.08575">
        <ele>502</ele>
        <time>2022-07-23T12:25:32Z</time>
      </trkpt>
      <trkpt lat="47.0727" lon="4.08628">
        <ele>496</ele>
        <time>2022-07-23T12:25:42Z</time>
      </trkpt>
      <trkpt lat="47.07259" lon="4.0865">
        <ele>495</ele>
        <time>2022-07-23T12:25:46Z</time>
      </trkpt>
      <trkpt lat="47.07252" lon="4.08683">
        <ele>493</ele>
        <time>2022-07-23T12:25:50Z</time>
      </trkpt>
      <trkpt lat="47.0725" lon="4.08713">
        <ele>491</ele>
        <time>2022-07-23T12:25:53Z</time>
      </trkpt>
      <trkpt lat="47.07251" lon="4.08732">
        <ele>490</ele>
        <time>2022-07-23T12:25:56Z</time>
      </trkpt>
      <trkpt lat="47.07258" lon="4.08764">
        <ele>489</ele>
        <time>2022-07-23T12:26:00Z</time>
      </trkpt>
      <trkpt lat="47.07267" lon="4.08787">
        <ele>488</ele>
        <time>2022-07-23T12:26:03Z</time>
      </trkpt>
      <trkpt lat="47.07278" lon="4.08812">
        <ele>487</ele>
        <time>2022-07-23T12:26:07Z</time>
      </trkpt>
      <trkpt lat="47.07316" lon="4.08867">
        <ele>483</ele>
        <time>2022-07-23T12:26:16Z</time>
      </trkpt>
      <trkpt lat="47.07335" lon="4.08891">
        <ele>482</ele>
        <time>2022-07-23T12:26:21Z</time>
      </trkpt>
      <trkpt lat="47.07361" lon="4.08914">
        <ele>480</ele>
        <time>2022-07-23T12:26:26Z</time>
      </trkpt>
      <trkpt lat="47.07383" lon="4.08929">
        <ele>479</ele>
        <time>2022-07-23T12:26:30Z</time>
      </trkpt>
      <trkpt lat="47.07405" lon="4.08936">
        <ele>478</ele>
        <time>2022-07-23T12:26:34Z</time>
      </trkpt>
      <trkpt lat="47.07445" lon="4.08929">
        <ele>480</ele>
        <time>2022-07-23T12:26:42Z</time>
      </trkpt>
      <trkpt lat="47.07462" lon="4.08934">
        <ele>480</ele>
        <time>2022-07-23T12:26:45Z</time>
      </trkpt>
      <trkpt lat="47.07471" lon="4.08942">
        <ele>479</ele>
        <time>2022-07-23T12:26:46Z</time>
      </trkpt>
      <trkpt lat="47.07479" lon="4.08961">
        <ele>477</ele>
        <time>2022-07-23T12:26:49Z</time>
      </trkpt>
      <trkpt lat="47.07482" lon="4.08985">
        <ele>475</ele>
        <time>2022-07-23T12:26:52Z</time>
      </trkpt>
      <trkpt lat="47.07482" lon="4.09031">
        <ele>471</ele>
        <time>2022-07-23T12:26:58Z</time>
      </trkpt>
      <trkpt lat="47.07485" lon="4.09052">
        <ele>469</ele>
        <time>2022-07-23T12:27:00Z</time>
      </trkpt>
      <trkpt lat="47.0749" lon="4.09069">
        <ele>468</ele>
        <time>2022-07-23T12:27:03Z</time>
      </trkpt>
      <trkpt lat="47.07501" lon="4.09085">
        <ele>468</ele>
        <time>2022-07-23T12:27:05Z</time>
      </trkpt>
      <trkpt lat="47.07526" lon="4.09107">
        <ele>470</ele>
        <time>2022-07-23T12:27:11Z</time>
      </trkpt>
      <trkpt lat="47.07563" lon="4.09129">
        <ele>471</ele>
        <time>2022-07-23T12:27:18Z</time>
      </trkpt>
      <trkpt lat="47.07635" lon="4.09153">
        <ele>469</ele>
        <time>2022-07-23T12:27:31Z</time>
      </trkpt>
      <trkpt lat="47.07683" lon="4.09156">
        <ele>468</ele>
        <time>2022-07-23T12:27:39Z</time>
      </trkpt>
      <trkpt lat="47.07816" lon="4.09146">
        <ele>456</ele>
        <time>2022-07-23T12:28:03Z</time>
      </trkpt>
      <trkpt lat="47.07826" lon="4.09148">
        <ele>454</ele>
        <time>2022-07-23T12:28:05Z</time>
      </trkpt>
      <trkpt lat="47.07837" lon="4.09154">
        <ele>453</ele>
        <time>2022-07-23T12:28:07Z</time>
      </trkpt>
      <trkpt lat="47.07845" lon="4.09162">
        <ele>453</ele>
        <time>2022-07-23T12:28:09Z</time>
      </trkpt>
      <trkpt lat="47.0785" lon="4.09173">
        <ele>454</ele>
        <time>2022-07-23T12:28:10Z</time>
      </trkpt>
      <trkpt lat="47.07856" lon="4.09193">
        <ele>455</ele>
        <time>2022-07-23T12:28:13Z</time>
      </trkpt>
      <trkpt lat="47.07856" lon="4.09208">
        <ele>456</ele>
        <time>2022-07-23T12:28:15Z</time>
      </trkpt>
      <trkpt lat="47.07851" lon="4.09231">
        <ele>456</ele>
        <time>2022-07-23T12:28:18Z</time>
      </trkpt>
      <trkpt lat="47.07839" lon="4.09253">
        <ele>455</ele>
        <time>2022-07-23T12:28:21Z</time>
      </trkpt>
      <trkpt lat="47.07631" lon="4.096">
        <ele>452</ele>
        <time>2022-07-23T12:29:17Z</time>
      </trkpt>
      <trkpt lat="47.07637" lon="4.09617">
        <ele>454</ele>
        <time>2022-07-23T12:29:19Z</time>
      </trkpt>
      <trkpt lat="47.07639" lon="4.09637">
        <ele>455</ele>
        <time>2022-07-23T12:29:22Z</time>
      </trkpt>
      <trkpt lat="47.07638" lon="4.09647">
        <ele>456</ele>
        <time>2022-07-23T12:29:23Z</time>
      </trkpt>
      <trkpt lat="47.07625" lon="4.09701">
        <ele>457</ele>
        <time>2022-07-23T12:29:30Z</time>
      </trkpt>
      <trkpt lat="47.07624" lon="4.09714">
        <ele>457</ele>
        <time>2022-07-23T12:29:32Z</time>
      </trkpt>
      <trkpt lat="47.07625" lon="4.09727">
        <ele>458</ele>
        <time>2022-07-23T12:29:33Z</time>
      </trkpt>
      <trkpt lat="47.07629" lon="4.09745">
        <ele>459</ele>
        <time>2022-07-23T12:29:35Z</time>
      </trkpt>
      <trkpt lat="47.07651" lon="4.09813">
        <ele>463</ele>
        <time>2022-07-23T12:29:45Z</time>
      </trkpt>
      <trkpt lat="47.07667" lon="4.09849">
        <ele>464</ele>
        <time>2022-07-23T12:29:50Z</time>
      </trkpt>
      <trkpt lat="47.07678" lon="4.09862">
        <ele>465</ele>
        <time>2022-07-23T12:29:52Z</time>
      </trkpt>
      <trkpt lat="47.07725" lon="4.09905">
        <ele>468</ele>
        <time>2022-07-23T12:30:02Z</time>
      </trkpt>
      <trkpt lat="47.07735" lon="4.09911">
        <ele>469</ele>
        <time>2022-07-23T12:30:04Z</time>
      </trkpt>
      <trkpt lat="47.07746" lon="4.09914">
        <ele>471</ele>
        <time>2022-07-23T12:30:06Z</time>
      </trkpt>
      <trkpt lat="47.07764" lon="4.09916">
        <ele>472</ele>
        <time>2022-07-23T12:30:09Z</time>
      </trkpt>
      <trkpt lat="47.07793" lon="4.09913">
        <ele>474</ele>
        <time>2022-07-23T12:30:14Z</time>
      </trkpt>
      <trkpt lat="47.07806" lon="4.0991">
        <ele>474</ele>
        <time>2022-07-23T12:30:17Z</time>
      </trkpt>
      <trkpt lat="47.07815" lon="4.09902">
        <ele>475</ele>
        <time>2022-07-23T12:30:19Z</time>
      </trkpt>
      <trkpt lat="47.07832" lon="4.09881">
        <ele>476</ele>
        <time>2022-07-23T12:30:23Z</time>
      </trkpt>
      <trkpt lat="47.07845" lon="4.09871">
        <ele>477</ele>
        <time>2022-07-23T12:30:25Z</time>
      </trkpt>
      <trkpt lat="47.07861" lon="4.09865">
        <ele>479</ele>
        <time>2022-07-23T12:30:28Z</time>
      </trkpt>
      <trkpt lat="47.07965" lon="4.09842">
        <ele>485</ele>
        <time>2022-07-23T12:30:47Z</time>
      </trkpt>
      <trkpt lat="47.07976" lon="4.09837">
        <ele>486</ele>
        <time>2022-07-23T12:30:49Z</time>
      </trkpt>
      <trkpt lat="47.07984" lon="4.0983">
        <ele>486</ele>
        <time>2022-07-23T12:30:51Z</time>
      </trkpt>
      <trkpt lat="47.0804" lon="4.09774">
        <ele>491</ele>
        <time>2022-07-23T12:31:03Z</time>
      </trkpt>
      <trkpt lat="47.08071" lon="4.09753">
        <ele>495</ele>
        <time>2022-07-23T12:31:09Z</time>
      </trkpt>
      <trkpt lat="47.08191" lon="4.09723">
        <ele>501</ele>
        <time>2022-07-23T12:31:30Z</time>
      </trkpt>
      <trkpt lat="47.0821" lon="4.09715">
        <ele>503</ele>
        <time>2022-07-23T12:31:34Z</time>
      </trkpt>
      <trkpt lat="47.0834" lon="4.09635">
        <ele>510</ele>
        <time>2022-07-23T12:31:59Z</time>
      </trkpt>
      <trkpt lat="47.08371" lon="4.09608">
        <ele>509</ele>
        <time>2022-07-23T12:32:05Z</time>
      </trkpt>
      <trkpt lat="47.08382" lon="4.09589">
        <ele>510</ele>
        <time>2022-07-23T12:32:08Z</time>
      </trkpt>
      <trkpt lat="47.08395" lon="4.0953">
        <ele>514</ele>
        <time>2022-07-23T12:32:16Z</time>
      </trkpt>
      <trkpt lat="47.08428" lon="4.09187">
        <ele>533</ele>
        <time>2022-07-23T12:32:58Z</time>
      </trkpt>
      <trkpt lat="47.08434" lon="4.09162">
        <ele>534</ele>
        <time>2022-07-23T12:33:01Z</time>
      </trkpt>
      <trkpt lat="47.0844" lon="4.09145">
        <ele>535</ele>
        <time>2022-07-23T12:33:03Z</time>
      </trkpt>
      <trkpt lat="47.08448" lon="4.09132">
        <ele>536</ele>
        <time>2022-07-23T12:33:05Z</time>
      </trkpt>
      <trkpt lat="47.08461" lon="4.09123">
        <ele>538</ele>
        <time>2022-07-23T12:33:08Z</time>
      </trkpt>
      <trkpt lat="47.08472" lon="4.09121">
        <ele>540</ele>
        <time>2022-07-23T12:33:10Z</time>
      </trkpt>
      <trkpt lat="47.08481" lon="4.09123">
        <ele>541</ele>
        <time>2022-07-23T12:33:12Z</time>
      </trkpt>
      <trkpt lat="47.08492" lon="4.09133">
        <ele>543</ele>
        <time>2022-07-23T12:33:14Z</time>
      </trkpt>
      <trkpt lat="47.08572" lon="4.09274">
        <ele>552</ele>
        <time>2022-07-23T12:33:36Z</time>
      </trkpt>
      <trkpt lat="47.08607" lon="4.09331">
        <ele>555</ele>
        <time>2022-07-23T12:33:45Z</time>
      </trkpt>
      <trkpt lat="47.08626" lon="4.09356">
        <ele>557</ele>
        <time>2022-07-23T12:33:50Z</time>
      </trkpt>
      <trkpt lat="47.08658" lon="4.09387">
        <ele>559</ele>
        <time>2022-07-23T12:33:57Z</time>
      </trkpt>
      <trkpt lat="47.08858" lon="4.09533">
        <ele>578</ele>
        <time>2022-07-23T12:34:37Z</time>
      </trkpt>
      <trkpt lat="47.08917" lon="4.09583">
        <ele>580</ele>
        <time>2022-07-23T12:34:49Z</time>
      </trkpt>
      <trkpt lat="47.08939" lon="4.09588">
        <ele>580</ele>
        <time>2022-07-23T12:34:53Z</time>
      </trkpt>
      <trkpt lat="47.08953" lon="4.09587">
        <ele>581</ele>
        <time>2022-07-23T12:34:55Z</time>
      </trkpt>
      <trkpt lat="47.08967" lon="4.0958">
        <ele>583</ele>
        <time>2022-07-23T12:34:58Z</time>
      </trkpt>
      <trkpt lat="47.0898" lon="4.09567">
        <ele>586</ele>
        <time>2022-07-23T12:35:01Z</time>
      </trkpt>
      <trkpt lat="47.09011" lon="4.09507">
        <ele>600</ele>
        <time>2022-07-23T12:35:10Z</time>
      </trkpt>
      <trkpt lat="47.09031" lon="4.09457">
        <ele>604</ele>
        <time>2022-07-23T12:35:17Z</time>
      </trkpt>
      <trkpt lat="47.09151" lon="4.0914">
        <ele>619</ele>
        <time>2022-07-23T12:36:01Z</time>
      </trkpt>
      <trkpt lat="47.09175" lon="4.09083">
        <ele>622</ele>
        <time>2022-07-23T12:36:09Z</time>
      </trkpt>
      <trkpt lat="47.0923" lon="4.08991">
        <ele>624</ele>
        <time>2022-07-23T12:36:24Z</time>
      </trkpt>
      <trkpt lat="47.09265" lon="4.08919">
        <ele>628</ele>
        <time>2022-07-23T12:36:34Z</time>
      </trkpt>
      <trkpt lat="47.09367" lon="4.08657">
        <ele>642</ele>
        <time>2022-07-23T12:37:11Z</time>
      </trkpt>
      <trkpt lat="47.09426" lon="4.08546">
        <ele>645</ele>
        <time>2022-07-23T12:37:28Z</time>
      </trkpt>
      <trkpt lat="47.09448" lon="4.0848">
        <ele>649</ele>
        <time>2022-07-23T12:37:37Z</time>
      </trkpt>
      <trkpt lat="47.09454" lon="4.08427">
        <ele>653</ele>
        <time>2022-07-23T12:37:43Z</time>
      </trkpt>
      <trkpt lat="47.09453" lon="4.08381">
        <ele>655</ele>
        <time>2022-07-23T12:37:49Z</time>
      </trkpt>
      <trkpt lat="47.09443" lon="4.08297">
        <ele>657</ele>
        <time>2022-07-23T12:37:59Z</time>
      </trkpt>
      <trkpt lat="47.09441" lon="4.08269">
        <ele>658</ele>
        <time>2022-07-23T12:38:03Z</time>
      </trkpt>
      <trkpt lat="47.09448" lon="4.08215">
        <ele>660</ele>
        <time>2022-07-23T12:38:09Z</time>
      </trkpt>
      <trkpt lat="47.09469" lon="4.08111">
        <ele>663</ele>
        <time>2022-07-23T12:38:22Z</time>
      </trkpt>
      <trkpt lat="47.09479" lon="4.08054">
        <ele>665</ele>
        <time>2022-07-23T12:38:30Z</time>
      </trkpt>
      <trkpt lat="47.09471" lon="4.07895">
        <ele>669</ele>
        <time>2022-07-23T12:38:49Z</time>
      </trkpt>
      <trkpt lat="47.09475" lon="4.07854">
        <ele>670</ele>
        <time>2022-07-23T12:38:54Z</time>
      </trkpt>
      <trkpt lat="47.09489" lon="4.0782">
        <ele>672</ele>
        <time>2022-07-23T12:38:59Z</time>
      </trkpt>
      <trkpt lat="47.09516" lon="4.07787">
        <ele>674</ele>
        <time>2022-07-23T12:39:05Z</time>
      </trkpt>
      <trkpt lat="47.09553" lon="4.07753">
        <ele>678</ele>
        <time>2022-07-23T12:39:13Z</time>
      </trkpt>
      <trkpt lat="47.09571" lon="4.07746">
        <ele>681</ele>
        <time>2022-07-23T12:39:16Z</time>
      </trkpt>
      <trkpt lat="47.09587" lon="4.07744">
        <ele>683</ele>
        <time>2022-07-23T12:39:19Z</time>
      </trkpt>
      <trkpt lat="47.09612" lon="4.0775">
        <ele>686</ele>
        <time>2022-07-23T12:39:23Z</time>
      </trkpt>
      <trkpt lat="47.09646" lon="4.0776">
        <ele>691</ele>
        <time>2022-07-23T12:39:30Z</time>
      </trkpt>
      <trkpt lat="47.09707" lon="4.07782">
        <ele>693</ele>
        <time>2022-07-23T12:39:41Z</time>
      </trkpt>
      <trkpt lat="47.0974" lon="4.07791">
        <ele>693</ele>
        <time>2022-07-23T12:39:47Z</time>
      </trkpt>
      <trkpt lat="47.09766" lon="4.07791">
        <ele>693</ele>
        <time>2022-07-23T12:39:51Z</time>
      </trkpt>
      <trkpt lat="47.09784" lon="4.07783">
        <ele>693</ele>
        <time>2022-07-23T12:39:55Z</time>
      </trkpt>
      <trkpt lat="47.098" lon="4.0777">
        <ele>692</ele>
        <time>2022-07-23T12:39:58Z</time>
      </trkpt>
      <trkpt lat="47.09813" lon="4.07757">
        <ele>691</ele>
        <time>2022-07-23T12:40:01Z</time>
      </trkpt>
      <trkpt lat="47.09826" lon="4.07739">
        <ele>691</ele>
        <time>2022-07-23T12:40:04Z</time>
      </trkpt>
      <trkpt lat="47.09839" lon="4.07713">
        <ele>691</ele>
        <time>2022-07-23T12:40:08Z</time>
      </trkpt>
      <trkpt lat="47.0989" lon="4.07503">
        <ele>700</ele>
        <time>2022-07-23T12:40:35Z</time>
      </trkpt>
      <trkpt lat="47.09906" lon="4.07446">
        <ele>704</ele>
        <time>2022-07-23T12:40:42Z</time>
      </trkpt>
      <trkpt lat="47.09927" lon="4.07396">
        <ele>706</ele>
        <time>2022-07-23T12:40:49Z</time>
      </trkpt>
      <trkpt lat="47.09943" lon="4.07372">
        <ele>707</ele>
        <time>2022-07-23T12:40:54Z</time>
      </trkpt>
      <trkpt lat="47.09971" lon="4.0735">
        <ele>708</ele>
        <time>2022-07-23T12:40:59Z</time>
      </trkpt>
      <trkpt lat="47.10003" lon="4.07333">
        <ele>709</ele>
        <time>2022-07-23T12:41:05Z</time>
      </trkpt>
      <trkpt lat="47.10099" lon="4.07303">
        <ele>714</ele>
        <time>2022-07-23T12:41:23Z</time>
      </trkpt>
      <trkpt lat="47.1012" lon="4.073">
        <ele>713</ele>
        <time>2022-07-23T12:41:26Z</time>
      </trkpt>
      <trkpt lat="47.10136" lon="4.07302">
        <ele>713</ele>
        <time>2022-07-23T12:41:29Z</time>
      </trkpt>
      <trkpt lat="47.10166" lon="4.07315">
        <ele>712</ele>
        <time>2022-07-23T12:41:35Z</time>
      </trkpt>
      <trkpt lat="47.10216" lon="4.07346">
        <ele>710</ele>
        <time>2022-07-23T12:41:45Z</time>
      </trkpt>
      <trkpt lat="47.10259" lon="4.07369">
        <ele>709</ele>
        <time>2022-07-23T12:41:53Z</time>
      </trkpt>
      <trkpt lat="47.10301" lon="4.07383">
        <ele>709</ele>
        <time>2022-07-23T12:42:00Z</time>
      </trkpt>
      <trkpt lat="47.10336" lon="4.0739">
        <ele>709</ele>
        <time>2022-07-23T12:42:07Z</time>
      </trkpt>
      <trkpt lat="47.10365" lon="4.07386">
        <ele>710</ele>
        <time>2022-07-23T12:42:12Z</time>
      </trkpt>
      <trkpt lat="47.10394" lon="4.07373">
        <ele>710</ele>
        <time>2022-07-23T12:42:17Z</time>
      </trkpt>
      <trkpt lat="47.10491" lon="4.07308">
        <ele>711</ele>
        <time>2022-07-23T12:42:36Z</time>
      </trkpt>
      <trkpt lat="47.10584" lon="4.07238">
        <ele>709</ele>
        <time>2022-07-23T12:42:55Z</time>
      </trkpt>
      <trkpt lat="47.10618" lon="4.07229">
        <ele>708</ele>
        <time>2022-07-23T12:43:01Z</time>
      </trkpt>
      <trkpt lat="47.10636" lon="4.07233">
        <ele>708</ele>
        <time>2022-07-23T12:43:04Z</time>
      </trkpt>
      <trkpt lat="47.10658" lon="4.07246">
        <ele>709</ele>
        <time>2022-07-23T12:43:08Z</time>
      </trkpt>
      <trkpt lat="47.10738" lon="4.07318">
        <ele>708</ele>
        <time>2022-07-23T12:43:25Z</time>
      </trkpt>
      <trkpt lat="47.10755" lon="4.07327">
        <ele>708</ele>
        <time>2022-07-23T12:43:28Z</time>
      </trkpt>
      <trkpt lat="47.10791" lon="4.07333">
        <ele>710</ele>
        <time>2022-07-23T12:43:35Z</time>
      </trkpt>
      <trkpt lat="47.10809" lon="4.07328">
        <ele>711</ele>
        <time>2022-07-23T12:43:38Z</time>
      </trkpt>
      <trkpt lat="47.10834" lon="4.07308">
        <ele>711</ele>
        <time>2022-07-23T12:43:43Z</time>
      </trkpt>
      <trkpt lat="47.10916" lon="4.07221">
        <ele>708</ele>
        <time>2022-07-23T12:44:01Z</time>
      </trkpt>
      <trkpt lat="47.10933" lon="4.07212">
        <ele>708</ele>
        <time>2022-07-23T12:44:04Z</time>
      </trkpt>
      <trkpt lat="47.10963" lon="4.07212">
        <ele>708</ele>
        <time>2022-07-23T12:44:10Z</time>
      </trkpt>
      <trkpt lat="47.11" lon="4.07225">
        <ele>708</ele>
        <time>2022-07-23T12:44:16Z</time>
      </trkpt>
      <trkpt lat="47.11033" lon="4.07229">
        <ele>707</ele>
        <time>2022-07-23T12:44:22Z</time>
      </trkpt>
      <trkpt lat="47.11057" lon="4.07221">
        <ele>707</ele>
        <time>2022-07-23T12:44:27Z</time>
      </trkpt>
      <trkpt lat="47.11072" lon="4.07208">
        <ele>706</ele>
        <time>2022-07-23T12:44:30Z</time>
      </trkpt>
      <trkpt lat="47.11096" lon="4.07178">
        <ele>705</ele>
        <time>2022-07-23T12:44:35Z</time>
      </trkpt>
      <trkpt lat="47.11104" lon="4.07164">
        <ele>706</ele>
        <time>2022-07-23T12:44:38Z</time>
      </trkpt>
      <trkpt lat="47.11113" lon="4.07143">
        <ele>706</ele>
        <time>2022-07-23T12:44:41Z</time>
      </trkpt>
      <trkpt lat="47.11146" lon="4.07029">
        <ele>705</ele>
        <time>2022-07-23T12:44:56Z</time>
      </trkpt>
      <trkpt lat="47.11165" lon="4.06983">
        <ele>703</ele>
        <time>2022-07-23T12:45:02Z</time>
      </trkpt>
      <trkpt lat="47.11181" lon="4.06953">
        <ele>702</ele>
        <time>2022-07-23T12:45:07Z</time>
      </trkpt>
      <trkpt lat="47.11199" lon="4.06931">
        <ele>701</ele>
        <time>2022-07-23T12:45:11Z</time>
      </trkpt>
      <trkpt lat="47.1123" lon="4.0691">
        <ele>699</ele>
        <time>2022-07-23T12:45:17Z</time>
      </trkpt>
      <trkpt lat="47.11564" lon="4.06726">
        <ele>689</ele>
        <time>2022-07-23T12:46:20Z</time>
      </trkpt>
      <trkpt lat="47.11602" lon="4.06709">
        <ele>687</ele>
        <time>2022-07-23T12:46:27Z</time>
      </trkpt>
      <trkpt lat="47.11851" lon="4.0665">
        <ele>679</ele>
        <time>2022-07-23T12:47:12Z</time>
      </trkpt>
      <trkpt lat="47.1187" lon="4.06641">
        <ele>680</ele>
        <time>2022-07-23T12:47:16Z</time>
      </trkpt>
      <trkpt lat="47.11889" lon="4.06626">
        <ele>681</ele>
        <time>2022-07-23T12:47:20Z</time>
      </trkpt>
      <trkpt lat="47.12115" lon="4.06353">
        <ele>673</ele>
        <time>2022-07-23T12:48:12Z</time>
      </trkpt>
      <trkpt lat="47.12129" lon="4.06324">
        <ele>674</ele>
        <time>2022-07-23T12:48:16Z</time>
      </trkpt>
      <trkpt lat="47.12137" lon="4.06296">
        <ele>675</ele>
        <time>2022-07-23T12:48:20Z</time>
      </trkpt>
      <trkpt lat="47.12146" lon="4.06378">
        <ele>676.5</ele>
      </trkpt>
      <trkpt lat="47.12248" lon="4.06614">
        <ele>687.1</ele>
      </trkpt>
      <trkpt lat="47.12333" lon="4.06666">
        <ele>687</ele>
      </trkpt>
      <trkpt lat="47.12386" lon="4.06795">
        <ele>683.7</ele>
      </trkpt>
      <trkpt lat="47.12409" lon="4.06923">
        <ele>678.2</ele>
      </trkpt>
      <trkpt lat="47.1238" lon="4.07018">
        <ele>675.8</ele>
      </trkpt>
      <trkpt lat="47.12301" lon="4.07099">
        <ele>675.8</ele>
      </trkpt>
      <trkpt lat="47.12295" lon="4.07164">
        <ele>672.2</ele>
      </trkpt>
      <trkpt lat="47.12304" lon="4.07228">
        <ele>671.3</ele>
      </trkpt>
      <trkpt lat="47.12374" lon="4.07305">
        <ele>672.5</ele>
      </trkpt>
      <trkpt lat="47.12465" lon="4.07395">
        <ele>670.3</ele>
      </trkpt>
      <trkpt lat="47.12582" lon="4.0743">
        <ele>673.4</ele>
      </trkpt>
      <trkpt lat="47.12734" lon="4.07473">
        <ele>683</ele>
      </trkpt>
      <trkpt lat="47.1294" lon="4.07395">
        <ele>677.3</ele>
      </trkpt>
      <trkpt lat="47.13028" lon="4.07425">
        <ele>673</ele>
      </trkpt>
      <trkpt lat="47.13107" lon="4.07434">
        <ele>664.2</ele>
      </trkpt>
      <trkpt lat="47.13168" lon="4.0749">
        <ele>661.7</ele>
      </trkpt>
      <trkpt lat="47.13232" lon="4.07576">
        <ele>655</ele>
      </trkpt>
      <trkpt lat="47.13308" lon="4.07606">
        <ele>650.8</ele>
      </trkpt>
      <trkpt lat="47.13355" lon="4.07992">
        <ele>636.7</ele>
      </trkpt>
      <trkpt lat="47.13375" lon="4.08125">
        <ele>629.6</ele>
      </trkpt>
      <trkpt lat="47.13396" lon="4.0834">
        <ele>621.3</ele>
      </trkpt>
      <trkpt lat="47.13419" lon="4.08378">
        <ele>619.9</ele>
      </trkpt>
      <trkpt lat="47.13489" lon="4.08421">
        <ele>616.8</ele>
      </trkpt>
      <trkpt lat="47.13516" lon="4.08528">
        <ele>613.4</ele>
      </trkpt>
      <trkpt lat="47.13536" lon="4.08713">
        <ele>619</ele>
      </trkpt>
      <trkpt lat="47.13527" lon="4.08799">
        <ele>620.7</ele>
      </trkpt>
      <trkpt lat="47.13615" lon="4.09103">
        <ele>630.4</ele>
      </trkpt>
      <trkpt lat="47.13653" lon="4.09284">
        <ele>622.4</ele>
      </trkpt>
      <trkpt lat="47.13685" lon="4.09485">
        <ele>624</ele>
      </trkpt>
      <trkpt lat="47.13702" lon="4.09563">
        <ele>625.7</ele>
      </trkpt>
      <trkpt lat="47.13688" lon="4.09687">
        <ele>632.2</ele>
      </trkpt>
      <trkpt lat="47.13688" lon="4.09876">
        <ele>639.4</ele>
      </trkpt>
      <trkpt lat="47.13705" lon="4.1">
        <ele>639.6</ele>
      </trkpt>
      <trkpt lat="47.13746" lon="4.10048">
        <ele>637.8</ele>
      </trkpt>
      <trkpt lat="47.1384" lon="4.10176">
        <ele>630.5</ele>
      </trkpt>
      <trkpt lat="47.13886" lon="4.10198">
        <ele>627.3</ele>
      </trkpt>
      <trkpt lat="47.13924" lon="4.10288">
        <ele>627</ele>
      </trkpt>
      <trkpt lat="47.13977" lon="4.10327">
        <ele>626.8</ele>
      </trkpt>
      <trkpt lat="47.14009" lon="4.10502">
        <ele>633.4</ele>
      </trkpt>
      <trkpt lat="47.14026" lon="4.10631">
        <ele>636.9</ele>
      </trkpt>
      <trkpt lat="47.14269" lon="4.11013">
        <ele>646.3</ele>
      </trkpt>
      <trkpt lat="47.14485" lon="4.11361">
        <ele>651.6</ele>
      </trkpt>
      <trkpt lat="47.14607" lon="4.11502">
        <ele>644.1</ele>
      </trkpt>
      <trkpt lat="47.14905" lon="4.11756">
        <ele>652.9</ele>
      </trkpt>
      <trkpt lat="47.15112" lon="4.11983">
        <ele>663.3</ele>
      </trkpt>
      <trkpt lat="47.15369" lon="4.12253">
        <ele>669.8</ele>
      </trkpt>
      <trkpt lat="47.15442" lon="4.12344">
        <ele>668.8</ele>
      </trkpt>
      <trkpt lat="47.1548" lon="4.12421">
        <ele>663.9</ele>
      </trkpt>
      <trkpt lat="47.15886" lon="4.12665">
        <ele>634.3</ele>
      </trkpt>
      <trkpt lat="47.16026" lon="4.12833">
        <ele>632.1</ele>
      </trkpt>
      <trkpt lat="47.16183" lon="4.12983">
        <ele>618.3</ele>
      </trkpt>
      <trkpt lat="47.16428" lon="4.13099">
        <ele>621.3</ele>
      </trkpt>
      <trkpt lat="47.16662" lon="4.13245">
        <ele>608.2</ele>
      </trkpt>
      <trkpt lat="47.16752" lon="4.13378">
        <ele>597.4</ele>
      </trkpt>
      <trkpt lat="47.16788" lon="4.13375">
        <ele>599</ele>
        <time>2022-07-23T13:42:36Z</time>
      </trkpt>
      <trkpt lat="47.16783" lon="4.13391">
        <ele>600</ele>
        <time>2022-07-23T13:42:39Z</time>
      </trkpt>
      <trkpt lat="47.1678" lon="4.13412">
        <ele>600</ele>
        <time>2022-07-23T13:42:41Z</time>
      </trkpt>
      <trkpt lat="47.16781" lon="4.13453">
        <ele>602</ele>
        <time>2022-07-23T13:42:46Z</time>
      </trkpt>
      <trkpt lat="47.16782" lon="4.13468">
        <ele>602</ele>
        <time>2022-07-23T13:42:48Z</time>
      </trkpt>
      <trkpt lat="47.16791" lon="4.13496">
        <ele>601</ele>
        <time>2022-07-23T13:42:52Z</time>
      </trkpt>
      <trkpt lat="47.16858" lon="4.13665">
        <ele>597</ele>
        <time>2022-07-23T13:43:15Z</time>
      </trkpt>
      <trkpt lat="47.1687" lon="4.13686">
        <ele>595</ele>
        <time>2022-07-23T13:43:19Z</time>
      </trkpt>
      <trkpt lat="47.16912" lon="4.13736">
        <ele>588</ele>
        <time>2022-07-23T13:43:28Z</time>
      </trkpt>
      <trkpt lat="47.1701" lon="4.13836">
        <ele>589</ele>
        <time>2022-07-23T13:43:50Z</time>
      </trkpt>
      <trkpt lat="47.1706" lon="4.13898">
        <ele>588</ele>
        <time>2022-07-23T13:44:01Z</time>
      </trkpt>
      <trkpt lat="47.17173" lon="4.14049">
        <ele>577</ele>
        <time>2022-07-23T13:44:28Z</time>
      </trkpt>
      <trkpt lat="47.17272" lon="4.14196">
        <ele>569</ele>
        <time>2022-07-23T13:44:53Z</time>
      </trkpt>
      <trkpt lat="47.17301" lon="4.14247">
        <ele>569</ele>
        <time>2022-07-23T13:45:01Z</time>
      </trkpt>
      <trkpt lat="47.17352" lon="4.14374">
        <ele>561</ele>
        <time>2022-07-23T13:45:19Z</time>
      </trkpt>
      <trkpt lat="47.17363" lon="4.14397">
        <ele>560</ele>
        <time>2022-07-23T13:45:23Z</time>
      </trkpt>
      <trkpt lat="47.17417" lon="4.14479">
        <ele>553</ele>
        <time>2022-07-23T13:45:36Z</time>
      </trkpt>
      <trkpt lat="47.17424" lon="4.14493">
        <ele>555</ele>
        <time>2022-07-23T13:45:39Z</time>
      </trkpt>
      <trkpt lat="47.17429" lon="4.14516">
        <ele>555</ele>
        <time>2022-07-23T13:45:41Z</time>
      </trkpt>
      <trkpt lat="47.17429" lon="4.14529">
        <ele>554</ele>
        <time>2022-07-23T13:45:43Z</time>
      </trkpt>
      <trkpt lat="47.17425" lon="4.14549">
        <ele>551</ele>
        <time>2022-07-23T13:45:46Z</time>
      </trkpt>
      <trkpt lat="47.17397" lon="4.14604">
        <ele>548</ele>
        <time>2022-07-23T13:45:54Z</time>
      </trkpt>
      <trkpt lat="47.17392" lon="4.14617">
        <ele>548</ele>
        <time>2022-07-23T13:45:56Z</time>
      </trkpt>
      <trkpt lat="47.17358" lon="4.14746">
        <ele>539</ele>
        <time>2022-07-23T13:46:12Z</time>
      </trkpt>
      <trkpt lat="47.1734" lon="4.14803">
        <ele>535</ele>
        <time>2022-07-23T13:46:20Z</time>
      </trkpt>
      <trkpt lat="47.17325" lon="4.1484">
        <ele>532</ele>
        <time>2022-07-23T13:46:25Z</time>
      </trkpt>
      <trkpt lat="47.17319" lon="4.14849">
        <ele>532</ele>
        <time>2022-07-23T13:46:27Z</time>
      </trkpt>
      <trkpt lat="47.17311" lon="4.14858">
        <ele>532</ele>
        <time>2022-07-23T13:46:29Z</time>
      </trkpt>
      <trkpt lat="47.17265" lon="4.14886">
        <ele>526</ele>
        <time>2022-07-23T13:46:37Z</time>
      </trkpt>
      <trkpt lat="47.17253" lon="4.14895">
        <ele>525</ele>
        <time>2022-07-23T13:46:40Z</time>
      </trkpt>
      <trkpt lat="47.17245" lon="4.14905">
        <ele>524</ele>
        <time>2022-07-23T13:46:42Z</time>
      </trkpt>
      <trkpt lat="47.17212" lon="4.14939">
        <ele>520</ele>
        <time>2022-07-23T13:46:49Z</time>
      </trkpt>
      <trkpt lat="47.17156" lon="4.15006">
        <ele>511</ele>
        <time>2022-07-23T13:47:02Z</time>
      </trkpt>
      <trkpt lat="47.1714" lon="4.1503">
        <ele>508</ele>
        <time>2022-07-23T13:47:06Z</time>
      </trkpt>
      <trkpt lat="47.17132" lon="4.15049">
        <ele>506</ele>
        <time>2022-07-23T13:47:08Z</time>
      </trkpt>
      <trkpt lat="47.17121" lon="4.15138">
        <ele>502</ele>
        <time>2022-07-23T13:47:19Z</time>
      </trkpt>
      <trkpt lat="47.17099" lon="4.1525">
        <ele>495</ele>
        <time>2022-07-23T13:47:33Z</time>
      </trkpt>
      <trkpt lat="47.17094" lon="4.15268">
        <ele>494</ele>
        <time>2022-07-23T13:47:36Z</time>
      </trkpt>
      <trkpt lat="47.17096" lon="4.15272">
        <ele>494</ele>
        <time>2022-07-23T13:47:36Z</time>
      </trkpt>
      <trkpt lat="47.17104" lon="4.15286">
        <ele>494</ele>
        <time>2022-07-23T13:47:39Z</time>
      </trkpt>
    </trkseg>
  </trk>
</gpx>